[[{"header":{"parameterUnit":"m.s-1","parameterCategory":1,"la1":31.0,"la2":29.5877,"lo1":-88.7671,"lo2":-86.6584,"dx":0.0162,"dy":0.0185,"nx":115,"ny":88,"refTime":"2022-12-22T06:00:00:Z","depth":0,"parameterNumber":2,"parameterNumberName":"U-component_of_WINDS"},"data":[0.0,0.0,0.0,0.0,0.0,0.0,0.0,0.0,0.0,0.0,0.0,0.0,0.0,0.0,0.0,0.0,0.0,0.0,0.0,0.0,0.0,0.0,0.0,0.0,0.0,0.0,0.0,0.0,0.0,0.0,0.0,0.0,0.0,0.0,0.0,0.0,0.0,0.0,0.0,0.0,0.0,0.0,0.0,0.0,0.0,0.0,0.0,0.0,0.0,0.0,0.0,0.0,0.0,0.0,0.0,0.0,0.0,0.0,0.0,0.0,0.0,0.0,0.0,0.0,0.0,0.0,0.0,0.0,0.0,0.0,0.0,0.0,0.0,0.0,0.0,0.0,0.0,0.0,0.0,0.0,0.0,0.0,0.0,0.0,0.0,0.0,0.0,0.0,0.0,0.0,0.0,0.0,0.0,0.0,0.0,0.0,0.0,0.0,0.0,0.0,0.0,0.0,0.0,0.0,0.0,0.0,0.0,0.0,0.0,0.0,0.0,0.0,0.0,0.0,0.0,0.0,0.0,0.0,0.0,0.0,0.0,0.0,0.0,0.0,0.0,0.0,0.0,0.0,0.0,0.0,0.0,0.0,0.0,0.0,0.0,0.0,0.0,0.0,0.0,0.0,0.0,0.0,0.0,0.0,0.0,0.0,0.0,0.0,0.0,0.0,0.0,0.0,0.0,0.0,0.0,0.0,0.0,0.0,0.0,0.0,0.0,0.0,0.0,0.0,0.0,0.0,0.0,0.0,0.0,0.0,0.0,0.0,0.0,0.0,0.0,0.0,0.0,0.0,0.0,0.0,0.0,0.0,0.0,0.0,0.0,0.0,0.0,0.0,0.0,0.0,0.0,0.0,0.0,0.0,0.0,0.0,0.0,0.0,0.0,0.0,0.0,0.0,0.0,0.0,0.0,0.0,0.0,0.0,0.0,0.0,0.0,0.0,0.0,0.0,0.0,0.0,0.0,0.0,0.0,0.0,0.0,0.0,0.0,0.0,0.0,0.0,0.0,0.0,0.0,0.0,0.0,0.0,0.0,0.0,0.0,0.0,0.0,0.0,0.0,0.0,0.0,0.0,0.0,0.0,0.0,0.0,0.0,0.0,0.0,0.0,0.0,0.0,0.0,0.0,0.0,0.0,0.0,0.0,0.0,0.0,0.0,0.0,0.0,0.0,0.0,0.0,0.0,0.0,0.0,0.0,0.0,0.0,0.0,0.0,0.0,0.0,0.0,0.0,0.0,0.0,0.0,0.0,0.0,0.0,0.0,0.0,0.0,0.0,0.0,0.0,0.0,0.0,0.0,0.0,0.0,0.0,0.0,0.0,0.0,0.0,0.0,0.0,0.0,0.0,0.0,0.0,0.0,0.0,0.0,0.0,0.0,0.0,0.0,0.0,0.0,0.0,0.0,0.0,0.0,0.0,0.0,0.0,0.0,0.0,0.0,0.0,0.0,0.0,0.0,0.0,0.0,0.0,0.0,0.0,0.0,0.0,0.0,0.0,0.0,0.0,0.0,0.0,0.0,0.0,0.0,0.0,0.0,0.0,0.0,0.0,0.0,0.0,0.0,0.0,0.0,0.0,0.0,0.0,0.0,0.0,0.0,0.0,0.0,0.0,0.0,0.0,0.0,0.0,0.0,0.0,0.0,0.0,0.0,0.0,0.0,0.0,0.0,0.0,0.0,0.0,0.0,0.0,0.0,0.0,0.0,0.0,0.0,0.0,0.0,0.0,0.0,0.0,0.0,0.0,0.0,0.0,0.0,0.0,0.0,0.0,0.0,0.0,0.0,0.0,0.0,0.0,0.0,0.0,0.0,0.0,0.0,0.0,0.0,0.0,0.0,0.0,0.0,0.0,0.0,0.0,0.0,0.0,0.0,0.0,0.0,0.0,0.0,0.0,0.0,0.0,0.0,0.0,0.0,0.0,0.0,0.0,0.0,0.0,0.0,0.0,0.0,0.0,0.0,0.0,0.0,0.0,0.0,0.0,0.0,0.0,0.0,0.0,0.0,0.0,0.0,0.0,0.0,0.0,0.0,0.0,0.0,0.0,0.0,0.0,0.0,0.0,0.0,0.0,0.0,0.0,0.0,0.0,0.0,0.0,0.0,0.0,0.0,0.0,0.0,0.0,0.0,0.0,0.0,0.0,0.0,0.0,0.0,0.0,0.0,0.0,0.0,0.0,0.0,0.0,0.0,0.0,0.0,0.0,0.0,0.0,0.0,0.0,0.0,0.0,0.0,0.0,0.0,0.0,0.0,0.0,0.0,0.0,0.0,0.0,0.0,0.0,0.0,0.0,0.0,0.0,0.0,0.0,0.0,0.0,0.0,0.0,0.0,0.0,0.0,0.0,0.0,0.0,0.0,0.0,0.0,0.0,0.0,0.0,0.0,0.0,0.0,0.0,0.0,0.0,0.0,0.0,0.0,0.0,0.0,0.0,0.0,0.0,0.0,0.0,0.0,0.0,0.0,0.0,0.0,0.0,0.0,0.0,0.0,0.0,0.0,0.0,0.0,0.0,0.0,0.0,0.0,0.0,0.0,0.0,0.0,0.0,0.0,0.0,0.0,0.0,0.0,0.0,0.0,0.0,0.0,0.0,0.0,0.0,0.0,0.0,0.0,0.0,0.0,0.0,0.0,0.0,0.0,0.0,0.0,0.0,0.0,0.0,0.0,0.0,0.0,0.0,0.0,0.0,0.0,0.0,0.0,0.0,0.0,0.0,0.0,0.0,0.0,0.0,0.0,0.0,0.0,0.0,0.0,0.0,0.0,0.0,0.0,0.0,0.0,0.0,0.0,0.0,0.0,0.0,0.0,0.0,0.0,0.0,0.0,0.0,0.0,0.0,0.0,0.0,0.0,0.0,0.0,0.0,0.0,0.0,0.0,0.0,0.0,0.0,0.0,0.0,0.0,0.0,0.0,0.0,0.0,0.0,0.0,0.0,0.0,0.0,0.0,0.0,0.0,0.0,0.0,0.0,0.0,0.0,0.0,0.0,0.0,0.0,0.0,0.0,0.0,0.0,0.0,0.0,0.0,0.0,0.0,0.0,0.0,0.0,0.0,0.0,0.0,0.0,0.0,0.0,0.0,0.0,0.0,0.0,0.0,0.0,0.0,0.0,0.0,0.0,0.0,0.0,0.0,0.0,0.0,0.0,0.0,0.0,0.0,0.0,0.0,0.0,0.0,0.0,0.0,0.0,0.0,0.0,0.0,0.0,0.0,0.0,0.0,0.0,0.0,0.0,0.0,0.0,0.0,0.0,0.0,0.0,0.0,0.0,0.0,0.0,0.0,0.0,0.0,0.0,0.0,0.0,0.0,0.0,0.0,0.0,0.0,0.0,0.0,0.0,0.0,0.0,0.0,0.0,0.0,0.0,0.0,0.0,0.0,0.0,0.0,0.0,0.0,0.0,0.0,0.0,0.0,0.0,0.0,0.0,0.0,0.0,0.0,0.0,0.0,0.0,0.0,0.0,0.0,0.0,0.0,0.0,0.0,0.0,0.0,0.0,0.0,0.0,0.0,0.0,0.0,0.0,0.0,0.0,0.0,0.0,0.0,0.0,0.0,0.0,0.0,0.0,0.0,0.0,0.0,0.0,0.0,0.0,0.0,0.0,0.0,0.0,0.0,0.0,0.0,0.0,0.0,0.0,0.0,0.0,0.0,0.0,0.0,0.0,0.0,0.0,0.0,0.0,0.0,0.0,0.0,0.0,0.0,0.0,0.0,0.0,0.0,0.0,0.0,0.0,0.0,0.0,0.0,0.0,0.0,0.0,0.0,0.0,0.0,0.0,0.0,0.0,0.0,0.0,0.0,0.0,0.0,0.0,0.0,0.0,0.0,0.0,0.0,0.0,0.0,0.0,0.0,0.0,0.0,0.0,0.0,0.0,0.0,0.0,0.0,0.0,0.0,0.0,0.0,0.0,0.0,0.0,0.0,0.0,0.0,0.0,0.0,0.0,0.0,0.0,0.0,0.0,0.0,0.0,0.0,0.0,0.0,0.0,0.0,0.0,0.0,0.0,0.0,0.0,0.0,0.0,0.0,0.0,0.0,0.0,0.0,0.0,0.0,0.0,0.0,0.0,0.0,0.0,0.0,0.0,0.0,0.0,0.0,0.0,0.0,0.0,0.0,0.0,0.0,0.0,0.0,0.0,0.0,0.0,0.0,0.0,0.0,0.0,0.0,0.0,0.0,0.0,0.0,0.0,0.0,0.0,0.0,0.0,0.0,0.0,0.0,0.0,0.0,0.0,0.0,0.0,3.9234,0.0,0.0,0.0,3.736,0.0,0.0,0.0,0.0,0.0,0.0,0.0,0.0,0.0,0.0,0.0,0.0,0.0,0.0,0.0,0.0,0.0,0.0,0.0,0.0,0.0,0.0,0.0,0.0,0.0,0.0,0.0,0.0,0.0,0.0,0.0,0.0,0.0,0.0,0.0,0.0,0.0,0.0,0.0,0.0,0.0,0.0,0.0,0.0,0.0,0.0,0.0,0.0,0.0,0.0,0.0,0.0,0.0,0.0,0.0,0.0,0.0,0.0,0.0,0.0,0.0,0.0,0.0,0.0,0.0,0.0,0.0,0.0,0.0,0.0,0.0,0.0,0.0,0.0,0.0,0.0,0.0,0.0,0.0,0.0,0.0,0.0,0.0,0.0,0.0,0.0,0.0,0.0,0.0,0.0,0.0,0.0,0.0,0.0,0.0,0.0,0.0,0.0,0.0,0.0,0.0,0.0,0.0,0.0,0.0,0.0,0.0,0.0,0.0,0.0,4.0093,3.9312,4.0093,3.9507,3.7399,0.0,0.0,0.0,0.0,0.0,0.0,0.0,0.0,0.0,0.0,0.0,0.0,0.0,0.0,0.0,0.0,0.0,0.0,0.0,0.0,0.0,0.0,0.0,0.0,0.0,0.0,0.0,0.0,0.0,0.0,0.0,0.0,0.0,0.0,0.0,0.0,0.0,0.0,0.0,0.0,0.0,0.0,0.0,0.0,0.0,0.0,0.0,0.0,0.0,0.0,0.0,0.0,0.0,0.0,0.0,0.0,0.0,0.0,0.0,0.0,0.0,0.0,0.0,0.0,0.0,0.0,0.0,0.0,0.0,0.0,0.0,0.0,0.0,0.0,0.0,0.0,0.0,0.0,0.0,0.0,0.0,0.0,0.0,0.0,0.0,0.0,0.0,0.0,0.0,0.0,0.0,0.0,0.0,0.0,0.0,0.0,0.0,0.0,0.0,0.0,0.0,0.0,0.0,0.0,0.0,0.0,0.0,0.0,0.0,0.0,0.0,0.0,4.0834,3.9976,3.7711,0.0,0.0,0.0,0.0,0.0,0.0,0.0,0.0,0.0,0.0,0.0,0.0,0.0,0.0,0.0,0.0,0.0,0.0,0.0,0.0,0.0,0.0,0.0,0.0,0.0,0.0,0.0,0.0,0.0,0.0,0.0,0.0,0.0,0.0,0.0,0.0,0.0,0.0,0.0,0.0,0.0,0.0,0.0,0.0,0.0,0.0,0.0,0.0,0.0,0.0,0.0,0.0,0.0,0.0,0.0,0.0,0.0,0.0,0.0,0.0,0.0,0.0,0.0,0.0,0.0,0.0,0.0,0.0,0.0,0.0,0.0,0.0,0.0,0.0,0.0,0.0,0.0,0.0,0.0,0.0,0.0,0.0,0.0,0.0,0.0,0.0,0.0,0.0,0.0,0.0,0.0,0.0,0.0,0.0,0.0,0.0,0.0,0.0,0.0,0.0,0.0,0.0,0.0,0.0,0.0,0.0,0.0,0.0,0.0,0.0,4.1459,4.2123,4.1456,0.0,3.8687,0.0,0.0,0.0,0.0,0.0,0.0,0.0,0.0,0.0,0.0,0.0,0.0,0.0,0.0,0.0,0.0,0.0,0.0,0.0,0.0,0.0,0.0,0.0,0.0,0.0,0.0,0.0,0.0,0.0,0.0,0.0,0.0,0.0,0.0,0.0,0.0,0.0,0.0,0.0,0.0,0.0,0.0,0.0,0.0,0.0,0.0,0.0,0.0,0.0,0.0,0.0,0.0,0.0,0.0,0.0,0.0,0.0,0.0,0.0,0.0,0.0,0.0,0.0,0.0,0.0,0.0,0.0,0.0,0.0,0.0,0.0,0.0,0.0,0.0,0.0,0.0,0.0,0.0,0.0,0.0,0.0,0.0,0.0,0.0,0.0,0.0,0.0,0.0,0.0,0.0,0.0,0.0,0.0,0.0,0.0,0.0,0.0,0.0,0.0,0.0,0.0,0.0,0.0,0.0,0.0,0.0,0.0,0.0,0.0,0.0,4.2792,4.3152,4.2324,4.1069,0.0,0.0,0.0,0.0,0.0,0.0,0.0,0.0,0.0,0.0,0.0,0.0,0.0,0.0,0.0,0.0,0.0,0.0,0.0,0.0,0.0,0.0,0.0,0.0,0.0,0.0,0.0,0.0,0.0,0.0,0.0,0.0,0.0,0.0,0.0,0.0,0.0,0.0,0.0,0.0,0.0,0.0,0.0,0.0,0.0,0.0,0.0,0.0,0.0,0.0,0.0,0.0,0.0,0.0,0.0,0.0,0.0,0.0,0.0,0.0,0.0,0.0,0.0,0.0,0.0,0.0,0.0,0.0,0.0,0.0,0.0,0.0,0.0,0.0,0.0,0.0,0.0,0.0,0.0,0.0,0.0,0.0,0.0,0.0,0.0,0.0,0.0,0.0,0.0,0.0,0.0,0.0,0.0,0.0,0.0,0.0,0.0,0.0,0.0,0.0,0.0,0.0,0.0,0.0,0.0,0.0,0.0,0.0,0.0,0.0,4.3464,4.3464,4.3668,4.3344,4.2321,4.0675,0.0,0.0,0.0,0.0,0.0,0.0,0.0,0.0,0.0,0.0,0.0,0.0,0.0,0.0,0.0,0.0,0.0,0.0,0.0,0.0,0.0,0.0,0.0,0.0,0.0,0.0,0.0,0.0,0.0,0.0,0.0,0.0,0.0,0.0,0.0,0.0,0.0,0.0,0.0,0.0,0.0,0.0,0.0,0.0,0.0,0.0,0.0,0.0,0.0,0.0,0.0,0.0,0.0,0.0,0.0,0.0,0.0,0.0,0.0,0.0,0.0,0.0,0.0,0.0,0.0,0.0,0.0,0.0,0.0,0.0,0.0,0.0,0.0,0.0,0.0,0.0,0.0,0.0,0.0,0.0,0.0,0.0,0.0,0.0,0.0,0.0,0.0,0.0,0.0,0.0,0.0,0.0,0.0,0.0,0.0,0.0,0.0,0.0,0.0,0.0,0.0,0.0,0.0,0.0,0.0,0.0,0.0,0.0,4.3594,4.2926,4.2887,4.3711,4.4481,4.4078,0.0,0.0,0.0,0.0,0.0,0.0,0.0,0.0,0.0,0.0,0.0,0.0,0.0,0.0,0.0,0.0,0.0,0.0,0.0,0.0,0.0,0.0,0.0,0.0,0.0,0.0,0.0,0.0,0.0,0.0,0.0,0.0,0.0,0.0,0.0,0.0,0.0,0.0,0.0,0.0,0.0,0.0,0.0,0.0,0.0,0.0,0.0,0.0,0.0,0.0,0.0,0.0,0.0,0.0,0.0,0.0,0.0,0.0,0.0,0.0,0.0,0.0,0.0,0.0,0.0,0.0,0.0,0.0,0.0,0.0,0.0,0.0,0.0,0.0,0.0,0.0,0.0,0.0,0.0,0.0,0.0,0.0,0.0,0.0,0.0,0.0,0.0,0.0,0.0,0.0,0.0,0.0,0.0,0.0,0.0,0.0,0.0,0.0,0.0,0.0,0.0,0.0,0.0,0.0,0.0,0.0,0.0,0.0,0.0,4.5234,4.4531,4.4492,4.5312,4.5155,4.445,0.0,0.0,0.0,0.0,0.0,0.0,0.0,0.0,0.0,0.0,0.0,0.0,0.0,0.0,0.0,0.0,0.0,0.0,0.0,0.0,0.0,0.0,0.0,0.0,0.0,0.0,0.0,0.0,0.0,0.0,0.0,0.0,0.0,0.0,0.0,0.0,0.0,0.0,0.0,0.0,0.0,0.0,0.0,0.0,0.0,0.0,0.0,0.0,0.0,0.0,0.0,0.0,0.0,0.0,0.0,0.0,0.0,0.0,0.0,0.0,0.0,0.0,0.0,0.0,0.0,0.0,0.0,0.0,0.0,0.0,0.0,0.0,0.0,0.0,0.0,0.0,0.0,0.0,0.0,0.0,0.0,0.0,0.0,0.0,0.0,0.0,0.0,0.0,0.0,0.0,0.0,0.0,0.0,0.0,0.0,0.0,0.0,0.0,0.0,0.0,0.0,0.0,0.0,0.0,0.0,0.0,0.0,0.0,0.0,4.6211,4.6289,4.6406,4.668,4.6172,4.543,0.0,0.0,0.0,0.0,0.0,0.0,0.0,0.0,0.0,0.0,0.0,0.0,0.0,0.0,0.0,0.0,0.0,0.0,0.0,0.0,0.0,0.0,0.0,0.0,0.0,0.0,0.0,0.0,0.0,0.0,0.0,0.0,0.0,0.0,0.0,0.0,0.0,0.0,0.0,0.0,0.0,0.0,0.0,0.0,0.0,0.0,0.0,0.0,0.0,0.0,0.0,0.0,0.0,0.0,0.0,0.0,0.0,0.0,0.0,0.0,0.0,0.0,0.0,0.0,0.0,0.0,0.0,0.0,0.0,0.0,0.0,0.0,0.0,0.0,0.0,0.0,0.0,0.0,0.0,0.0,0.0,0.0,0.0,0.0,0.0,0.0,0.0,0.0,0.0,0.0,0.0,0.0,0.0,0.0,0.0,0.0,0.0,0.0,0.0,0.0,0.0,0.0,0.0,0.0,0.0,0.0,0.0,0.0,4.4648,4.6328,4.7969,4.832,4.7617,4.7539,4.7148,0.0,0.0,0.0,0.0,0.0,0.0,0.0,0.0,0.0,0.0,0.0,0.0,0.0,0.0,0.0,0.0,0.0,0.0,0.0,0.0,0.0,0.0,0.0,0.0,0.0,0.0,0.0,0.0,0.0,0.0,0.0,0.0,0.0,0.0,0.0,0.0,0.0,0.0,0.0,0.0,0.0,0.0,0.0,0.0,0.0,0.0,0.0,0.0,0.0,0.0,0.0,0.0,0.0,0.0,0.0,0.0,0.0,0.0,0.0,0.0,0.0,0.0,0.0,0.0,0.0,0.0,0.0,0.0,0.0,0.0,0.0,0.0,0.0,0.0,0.0,0.0,0.0,0.0,0.0,0.0,0.0,0.0,0.0,0.0,0.0,0.0,0.0,0.0,0.0,0.0,0.0,0.0,0.0,0.0,0.0,0.0,0.0,0.0,0.0,0.0,0.0,0.0,0.0,0.0,0.0,0.0,0.0,0.0,0.0,4.8086,4.8047,4.8164,4.8476,4.7891,4.7461,0.0,0.0,0.0,0.0,0.0,0.0,0.0,0.0,0.0,0.0,0.0,0.0,0.0,0.0,0.0,0.0,0.0,0.0,0.0,0.0,0.0,0.0,0.0,0.0,0.0,0.0,0.0,0.0,0.0,0.0,0.0,0.0,0.0,0.0,0.0,0.0,0.0,0.0,0.0,0.0,0.0,0.0,0.0,0.0,0.0,0.0,0.0,0.0,0.0,0.0,0.0,0.0,0.0,0.0,0.0,0.0,0.0,0.0,0.0,0.0,0.0,0.0,0.0,0.0,0.0,0.0,0.0,0.0,0.0,0.0,0.0,0.0,0.0,0.0,0.0,0.0,0.0,0.0,0.0,0.0,0.0,0.0,0.0,0.0,0.0,0.0,0.0,0.0,0.0,0.0,0.0,0.0,0.0,0.0,0.0,0.0,0.0,0.0,0.0,0.0,0.0,0.0,0.0,0.0,0.0,0.0,0.0,0.0,0.0,5.0742,4.9961,4.9766,5.0312,4.9453,4.8867,4.8555,0.0,0.0,0.0,0.0,0.0,0.0,0.0,0.0,0.0,0.0,0.0,0.0,0.0,0.0,0.0,0.0,0.0,0.0,0.0,0.0,0.0,0.0,0.0,0.0,0.0,0.0,0.0,0.0,0.0,0.0,0.0,0.0,0.0,0.0,0.0,0.0,0.0,0.0,0.0,0.0,0.0,0.0,0.0,0.0,0.0,0.0,0.0,0.0,0.0,0.0,0.0,0.0,0.0,0.0,0.0,0.0,0.0,0.0,0.0,0.0,0.0,0.0,0.0,0.0,0.0,0.0,0.0,0.0,0.0,0.0,0.0,0.0,0.0,0.0,0.0,0.0,0.0,0.0,0.0,0.0,0.0,0.0,0.0,0.0,0.0,0.0,0.0,0.0,0.0,0.0,0.0,0.0,0.0,0.0,0.0,0.0,0.0,0.0,0.0,0.0,0.0,0.0,0.0,0.0,0.0,0.0,0.0,0.0,5.4101,5.3359,5.2891,5.2812,5.1914,5.1094,0.0,0.0,0.0,0.0,0.0,0.0,0.0,0.0,0.0,0.0,0.0,0.0,0.0,0.0,0.0,0.0,0.0,0.0,0.0,0.0,0.0,0.0,0.0,0.0,0.0,0.0,0.0,0.0,0.0,0.0,0.0,0.0,0.0,0.0,0.0,0.0,0.0,0.0,0.0,0.0,0.0,0.0,0.0,0.0,0.0,0.0,0.0,0.0,0.0,0.0,0.0,0.0,0.0,0.0,0.0,0.0,0.0,0.0,0.0,0.0,0.0,0.0,0.0,0.0,0.0,0.0,0.0,0.0,0.0,0.0,0.0,0.0,0.0,0.0,0.0,0.0,0.0,0.0,0.0,0.0,0.0,0.0,0.0,0.0,0.0,0.0,0.0,0.0,0.0,0.0,0.0,0.0,0.0,0.0,0.0,0.0,0.0,0.0,0.0,0.0,0.0,0.0,0.0,0.0,0.0,0.0,0.0,0.0,0.0,5.5781,5.5703,5.5273,5.4609,5.3164,5.2266,0.0,0.0,0.0,0.0,0.0,0.0,0.0,0.0,0.0,0.0,0.0,0.0,0.0,0.0,0.0,0.0,0.0,0.0,0.0,0.0,0.0,0.0,0.0,0.0,0.0,0.0,0.0,0.0,0.0,0.0,0.0,0.0,0.0,0.0,0.0,0.0,0.0,0.0,0.0,0.0,0.0,0.0,0.0,0.0,0.0,0.0,0.0,0.0,0.0,0.0,0.0,0.0,0.0,0.0,0.0,0.0,0.0,0.0,0.0,0.0,0.0,0.0,0.0,0.0,0.0,0.0,0.0,0.0,0.0,0.0,0.0,0.0,0.0,0.0,0.0,0.0,0.0,0.0,0.0,0.0,0.0,0.0,0.0,0.0,0.0,0.0,0.0,0.0,0.0,0.0,0.0,0.0,0.0,0.0,0.0,0.0,0.0,0.0,0.0,0.0,0.0,0.0,0.0,0.0,0.0,0.0,0.0,0.0,5.4883,5.7109,5.75,5.7617,5.7422,5.5078,5.3633,0.0,0.0,0.0,0.0,0.0,0.0,0.0,0.0,0.0,0.0,0.0,0.0,0.0,0.0,0.0,0.0,0.0,0.0,0.0,0.0,0.0,0.0,0.0,0.0,0.0,0.0,0.0,0.0,0.0,0.0,0.0,0.0,0.0,0.0,0.0,0.0,0.0,0.0,0.0,0.0,0.0,0.0,0.0,0.0,0.0,0.0,0.0,0.0,0.0,0.0,0.0,0.0,0.0,0.0,0.0,0.0,0.0,0.0,0.0,0.0,0.0,0.0,0.0,0.0,0.0,0.0,0.0,0.0,0.0,0.0,0.0,0.0,0.0,0.0,0.0,0.0,0.0,0.0,0.0,0.0,0.0,0.0,0.0,0.0,0.0,0.0,0.0,0.0,0.0,0.0,0.0,0.0,0.0,0.0,0.0,0.0,0.0,0.0,0.0,0.0,0.0,0.0,0.0,0.0,0.0,0.0,0.0,0.0,5.6367,5.8281,5.8945,5.9765,6.0508,5.7265,5.5078,0.0,0.0,0.0,0.0,0.0,0.0,0.0,0.0,0.0,0.0,0.0,0.0,0.0,0.0,0.0,0.0,0.0,0.0,0.0,0.0,0.0,0.0,0.0,0.0,0.0,0.0,0.0,0.0,0.0,0.0,0.0,0.0,0.0,0.0,0.0,0.0,0.0,0.0,0.0,0.0,0.0,0.0,0.0,0.0,0.0,0.0,0.0,0.0,0.0,0.0,0.0,0.0,0.0,0.0,0.0,0.0,0.0,0.0,0.0,0.0,0.0,0.0,0.0,0.0,0.0,0.0,0.0,0.0,0.0,0.0,0.0,0.0,0.0,0.0,0.0,0.0,0.0,0.0,0.0,0.0,0.0,0.0,0.0,0.0,0.0,0.0,0.0,0.0,0.0,0.0,0.0,0.0,0.0,0.0,0.0,0.0,0.0,0.0,0.0,0.0,0.0,0.0,0.0,0.0,0.0,0.0,0.0,0.0,5.7812,6.0781,6.039,6.0898,6.2383,5.8476,5.6211,0.0,0.0,0.0,0.0,0.0,0.0,0.0,0.0,0.0,0.0,0.0,0.0,0.0,0.0,0.0,0.0,0.0,0.0,0.0,0.0,0.0,0.0,0.0,0.0,0.0,0.0,0.0,0.0,0.0,0.0,0.0,0.0,0.0,0.0,0.0,0.0,0.0,0.0,0.0,0.0,0.0,0.0,0.0,0.0,0.0,0.0,0.0,0.0,4.6605,0.0,0.0,0.0,0.0,0.0,0.0,0.0,0.0,0.0,0.0,0.0,0.0,0.0,0.0,0.0,0.0,0.0,0.0,0.0,0.0,0.0,0.0,0.0,0.0,0.0,0.0,0.0,0.0,0.0,0.0,0.0,0.0,0.0,0.0,0.0,0.0,0.0,0.0,0.0,0.0,0.0,0.0,0.0,0.0,0.0,0.0,0.0,0.0,0.0,0.0,0.0,0.0,0.0,0.0,0.0,0.0,0.0,0.0,0.0,5.9648,6.2187,6.2656,6.289,6.289,6.039,5.8242,0.0,0.0,0.0,0.0,0.0,0.0,0.0,0.0,0.0,0.0,0.0,0.0,0.0,0.0,0.0,0.0,0.0,0.0,0.0,0.0,0.0,0.0,0.0,0.0,0.0,0.0,0.0,0.0,0.0,0.0,0.0,0.0,0.0,0.0,0.0,0.0,0.0,0.0,0.0,0.0,0.0,0.0,0.0,0.0,0.0,0.0,0.0,0.0,0.0,0.0,0.0,0.0,0.0,0.0,0.0,0.0,0.0,0.0,0.0,0.0,0.0,0.0,0.0,0.0,0.0,0.0,0.0,0.0,0.0,0.0,0.0,0.0,0.0,0.0,0.0,0.0,0.0,0.0,0.0,0.0,0.0,0.0,0.0,0.0,0.0,0.0,0.0,0.0,0.0,0.0,0.0,0.0,0.0,0.0,0.0,0.0,0.0,0.0,0.0,0.0,0.0,0.0,0.0,0.0,0.0,0.0,0.0,5.9375,6.1562,6.3555,6.4922,6.4883,6.3437,6.2305,6.0078,5.6719,0.0,0.0,0.0,0.0,0.0,0.0,0.0,0.0,0.0,0.0,0.0,0.0,0.0,0.0,0.0,0.0,0.0,0.0,0.0,0.0,0.0,0.0,0.0,0.0,0.0,0.0,0.0,0.0,0.0,0.0,0.0,0.0,0.0,0.0,0.0,0.0,0.0,0.0,4.3411,4.466,0.0,0.0,0.0,0.0,0.0,0.0,0.0,0.0,5.0949,0.0,0.0,0.0,0.0,0.0,0.0,0.0,0.0,0.0,0.0,0.0,0.0,0.0,0.0,0.0,0.0,0.0,0.0,0.0,0.0,0.0,0.0,0.0,0.0,0.0,0.0,0.0,0.0,0.0,0.0,0.0,0.0,0.0,0.0,0.0,0.0,0.0,0.0,0.0,0.0,0.0,0.0,0.0,0.0,0.0,0.0,0.0,0.0,0.0,0.0,0.0,0.0,0.0,0.0,0.0,0.0,5.875,6.0547,6.3047,6.6133,6.582,6.5469,6.5117,6.293,6.0078,5.6797,0.0,0.0,0.0,0.0,0.0,0.0,0.0,0.0,0.0,0.0,0.0,0.0,0.0,0.0,0.0,0.0,0.0,0.0,0.0,0.0,0.0,0.0,0.0,0.0,0.0,0.0,0.0,0.0,0.0,0.0,0.0,0.0,0.0,0.0,0.0,0.0,0.0,0.0,0.0,4.8057,4.9189,0.0,0.0,0.0,0.0,0.0,0.0,0.0,0.0,5.1316,0.0,0.0,0.0,0.0,0.0,0.0,0.0,0.0,0.0,0.0,0.0,0.0,0.0,0.0,0.0,0.0,0.0,0.0,0.0,0.0,0.0,0.0,0.0,0.0,0.0,0.0,0.0,0.0,0.0,0.0,0.0,0.0,0.0,0.0,0.0,0.0,0.0,0.0,0.0,0.0,0.0,0.0,0.0,0.0,0.0,0.0,0.0,0.0,0.0,0.0,0.0,0.0,0.0,0.0,0.0,5.9726,6.2383,6.539,6.8711,6.8476,6.7851,6.6953,6.4414,6.1211,0.0,0.0,0.0,0.0,0.0,0.0,0.0,0.0,0.0,0.0,0.0,0.0,0.0,0.0,0.0,0.0,0.0,0.0,0.0,0.0,0.0,0.0,0.0,0.0,0.0,0.0,0.0,0.0,0.0,0.0,0.0,0.0,0.0,0.0,0.0,0.0,0.0,0.0,0.0,0.0,5.0477,5.1144,5.3692,0.0,0.0,0.0,0.0,0.0,0.0,5.3578,5.2724,0.0,0.0,0.0,0.0,0.0,0.0,0.0,0.0,0.0,0.0,0.0,0.0,0.0,0.0,0.0,0.0,0.0,0.0,0.0,0.0,0.0,0.0,0.0,0.0,0.0,0.0,0.0,0.0,0.0,0.0,0.0,0.0,0.0,0.0,0.0,0.0,0.0,0.0,0.0,0.0,0.0,0.0,0.0,0.0,0.0,0.0,0.0,0.0,0.0,0.0,0.0,0.0,0.0,0.0,0.0,6.0358,6.4125,6.7535,7.0508,7.0859,7.0114,6.8449,6.5716,6.2332,0.0,0.0,0.0,0.0,0.0,0.0,0.0,0.0,0.0,0.0,0.0,0.0,0.0,0.0,0.0,0.0,0.0,0.0,0.0,0.0,0.0,0.0,0.0,0.0,0.0,0.0,0.0,0.0,0.0,0.0,0.0,0.0,0.0,0.0,0.0,0.0,0.0,0.0,0.0,0.0,0.0,5.2755,5.4989,5.4713,0.0,0.0,0.0,0.0,5.5843,5.5499,0.0,0.0,0.0,0.0,0.0,0.0,0.0,0.0,0.0,0.0,0.0,0.0,0.0,0.0,0.0,0.0,0.0,0.0,0.0,0.0,0.0,0.0,0.0,0.0,0.0,0.0,0.0,0.0,0.0,0.0,0.0,0.0,0.0,0.0,0.0,0.0,0.0,0.0,0.0,0.0,0.0,0.0,0.0,0.0,0.0,0.0,0.0,0.0,0.0,0.0,0.0,0.0,0.0,0.0,0.0,0.0,6.0384,6.5103,6.8515,7.0508,7.1328,7.0883,6.9188,6.595,6.2519,0.0,0.0,0.0,0.0,0.0,0.0,0.0,0.0,0.0,0.0,0.0,0.0,0.0,0.0,0.0,0.0,0.0,0.0,0.0,0.0,0.0,0.0,0.0,0.0,0.0,0.0,0.0,0.0,0.0,0.0,0.0,0.0,0.0,0.0,0.0,0.0,0.0,0.0,0.0,0.0,0.0,5.4054,5.5148,5.5231,5.5153,0.0,0.0,0.0,5.7616,5.875,0.0,0.0,0.0,0.0,0.0,0.0,0.0,0.0,0.0,0.0,0.0,0.0,0.0,0.0,0.0,0.0,0.0,0.0,0.0,0.0,0.0,0.0,0.0,0.0,0.0,0.0,0.0,0.0,0.0,0.0,0.0,0.0,0.0,0.0,0.0,0.0,0.0,0.0,0.0,0.0,0.0,0.0,0.0,0.0,0.0,0.0,0.0,0.0,0.0,0.0,0.0,0.0,0.0,0.0,0.0,5.9644,6.1927,6.6844,7.0471,7.264,7.2614,7.216,7.1358,6.756,6.3934,0.0,0.0,0.0,0.0,0.0,0.0,0.0,0.0,0.0,0.0,0.0,0.0,0.0,0.0,0.0,0.0,0.0,0.0,0.0,0.0,0.0,0.0,0.0,0.0,0.0,0.0,0.0,0.0,0.0,0.0,0.0,0.0,0.0,0.0,0.0,0.0,0.0,0.0,0.0,0.0,0.0,0.0,5.7341,5.7929,0.0,0.0,0.0,5.9723,5.8789,0.0,0.0,0.0,0.0,0.0,0.0,0.0,0.0,0.0,0.0,0.0,0.0,0.0,0.0,0.0,0.0,0.0,0.0,0.0,0.0,0.0,0.0,0.0,0.0,0.0,0.0,0.0,0.0,0.0,0.0,0.0,0.0,0.0,0.0,0.0,0.0,0.0,0.0,0.0,0.0,0.0,0.0,0.0,0.0,0.0,0.0,0.0,0.0,0.0,0.0,0.0,0.0,0.0,0.0,0.0,0.0,0.0,6.332,6.847,7.2091,7.3938,7.3574,7.32,7.2832,6.909,0.0,0.0,0.0,0.0,0.0,0.0,0.0,0.0,0.0,0.0,0.0,0.0,0.0,0.0,0.0,0.0,0.0,0.0,0.0,0.0,0.0,0.0,0.0,0.0,0.0,0.0,0.0,4.3242,0.0,0.0,0.0,0.0,0.0,0.0,0.0,0.0,0.0,0.0,0.0,0.0,0.0,0.0,5.7718,5.9023,6.0078,6.0781,0.0,0.0,6.1484,6.0898,6.2031,6.1914,0.0,0.0,0.0,0.0,0.0,0.0,0.0,0.0,0.0,0.0,0.0,0.0,0.0,0.0,0.0,0.0,0.0,0.0,0.0,0.0,0.0,0.0,0.0,0.0,0.0,0.0,0.0,0.0,0.0,0.0,0.0,0.0,0.0,0.0,0.0,0.0,0.0,0.0,0.0,0.0,0.0,0.0,0.0,0.0,0.0,0.0,0.0,0.0,0.0,0.0,0.0,0.0,0.0,0.0,0.0,6.417,6.9705,7.2768,7.3115,7.3651,7.3574,7.2805,7.0152,6.7539,0.0,0.0,0.0,0.0,0.0,0.0,0.0,0.0,0.0,0.0,0.0,0.0,0.0,0.0,0.0,0.0,0.0,0.0,0.0,0.0,0.0,0.0,0.0,0.0,0.0,0.0,0.0,0.0,0.0,0.0,0.0,0.0,0.0,0.0,0.0,0.0,0.0,0.0,0.0,0.0,0.0,5.9084,5.9179,6.0586,6.1914,0.0,0.0,6.25,6.4805,6.5937,6.5664,6.2969,0.0,0.0,0.0,0.0,0.0,0.0,0.0,0.0,0.0,0.0,0.0,0.0,0.0,0.0,0.0,0.0,0.0,0.0,0.0,0.0,0.0,0.0,0.0,0.0,0.0,0.0,0.0,0.0,0.0,0.0,0.0,0.0,0.0,0.0,0.0,0.0,0.0,0.0,0.0,0.0,0.0,0.0,0.0,0.0,0.0,0.0,0.0,0.0,0.0,0.0,0.0,0.0,0.0,6.4337,6.5623,7.0868,7.3601,7.3635,7.3883,7.3612,7.2684,7.1175,6.8949,0.0,0.0,0.0,0.0,0.0,0.0,0.0,0.0,0.0,0.0,0.0,0.0,0.0,0.0,0.0,0.0,0.0,0.0,0.0,0.0,0.0,0.0,0.0,0.0,0.0,0.0,0.0,0.0,5.1094,5.1992,5.1055,0.0,0.0,0.0,0.0,0.0,0.0,0.0,0.0,0.0,0.0,6.1521,6.3633,6.4492,0.0,0.0,6.5898,6.6055,6.7031,6.7461,6.6992,6.4922,6.4609,0.0,0.0,0.0,0.0,0.0,0.0,0.0,0.0,0.0,0.0,0.0,0.0,0.0,0.0,0.0,0.0,0.0,0.0,0.0,0.0,0.0,0.0,0.0,0.0,0.0,0.0,0.0,0.0,0.0,0.0,0.0,0.0,0.0,0.0,0.0,0.0,0.0,0.0,0.0,0.0,0.0,0.0,0.0,0.0,0.0,0.0,0.0,0.0,0.0,0.0,0.0,0.0,6.6341,6.7285,7.2008,7.4325,7.4038,7.4038,7.3551,7.2623,7.1943,7.0413,0.0,0.0,0.0,0.0,0.0,0.0,0.0,0.0,0.0,0.0,0.0,0.0,0.0,0.0,0.0,0.0,0.0,0.0,0.0,0.0,0.0,0.0,0.0,0.0,0.0,0.0,0.0,0.0,5.3789,5.457,5.2773,0.0,0.0,0.0,0.0,0.0,0.0,0.0,0.0,0.0,0.0,6.4023,6.6211,6.6953,6.7422,6.7773,6.7812,6.8008,6.8476,6.8359,6.7969,6.7265,0.0,0.0,0.0,0.0,0.0,0.0,0.0,0.0,0.0,0.0,0.0,0.0,0.0,0.0,0.0,0.0,0.0,0.0,0.0,0.0,0.0,0.0,0.0,0.0,0.0,0.0,0.0,0.0,0.0,0.0,0.0,0.0,0.0,0.0,0.0,0.0,0.0,0.0,0.0,0.0,0.0,0.0,0.0,0.0,0.0,0.0,0.0,0.0,0.0,0.0,0.0,0.0,0.0,0.0,6.9092,7.3164,7.4889,7.4138,7.3914,7.3403,7.2553,7.2404,7.1941,7.0946,0.0,0.0,0.0,0.0,0.0,0.0,0.0,0.0,0.0,0.0,0.0,0.0,0.0,0.0,0.0,0.0,0.0,0.0,0.0,0.0,0.0,0.0,0.0,0.0,0.0,0.0,4.9492,5.2812,5.5312,0.0,0.0,0.0,0.0,0.0,0.0,0.0,0.0,0.0,0.0,6.4609,6.6484,6.582,6.7109,6.789,6.7148,6.6992,6.7539,6.918,6.875,6.875,0.0,0.0,0.0,0.0,0.0,0.0,0.0,0.0,0.0,0.0,0.0,0.0,0.0,0.0,0.0,0.0,0.0,0.0,0.0,0.0,0.0,0.0,0.0,0.0,0.0,0.0,0.0,0.0,5.2067,0.0,0.0,0.0,0.0,0.0,0.0,0.0,0.0,0.0,0.0,0.0,6.0586,6.1742,0.0,0.0,0.0,0.0,0.0,0.0,0.0,0.0,0.0,0.0,0.0,0.0,6.9125,7.0667,7.417,7.5624,7.4811,7.5252,7.4842,7.3403,7.3843,7.3446,7.2007,0.0,0.0,0.0,0.0,0.0,0.0,0.0,0.0,0.0,0.0,0.0,0.0,0.0,0.0,0.0,0.0,0.0,0.0,0.0,0.0,0.0,0.0,0.0,0.0,0.0,5.4453,0.0,0.0,0.0,0.0,0.0,0.0,0.0,0.0,0.0,0.0,0.0,6.3242,6.4922,6.6172,6.7187,6.8008,6.8164,6.8476,0.0,0.0,0.0,0.0,0.0,0.0,0.0,0.0,0.0,0.0,0.0,0.0,0.0,0.0,6.5781,6.2344,6.2187,6.25,6.2187,0.0,0.0,0.0,0.0,0.0,0.0,0.0,0.0,0.0,0.0,0.0,0.0,0.0,0.0,0.0,0.0,5.656,0.0,0.0,0.0,0.0,0.0,0.0,0.0,0.0,6.2557,6.3823,6.4894,6.6049,6.6332,0.0,6.6088,6.4524,0.0,0.0,0.0,0.0,0.0,0.0,0.0,0.0,7.081,7.2258,7.5276,7.6436,7.56,7.6079,7.5514,7.3843,7.4488,7.4513,7.3674,7.0651,6.8501,0.0,0.0,0.0,0.0,0.0,0.0,0.0,0.0,0.0,0.0,0.0,0.0,0.0,0.0,0.0,0.0,0.0,0.0,0.0,0.0,0.0,0.0,0.0,5.7344,0.0,0.0,0.0,0.0,0.0,0.0,0.0,0.0,0.0,6.0703,6.3515,6.6172,6.7578,6.8281,6.875,6.8945,0.0,0.0,0.0,0.0,0.0,0.0,0.0,6.9961,7.1367,7.1406,7.1211,7.1211,7.0703,7.0312,7.0351,0.0,0.0,6.6406,6.5898,6.5976,6.5742,6.5898,6.6172,6.6484,6.7656,6.8828,0.0,0.0,0.0,0.0,0.0,0.0,0.0,0.0,6.1058,6.0173,0.0,6.0355,0.0,0.0,0.0,0.0,0.0,0.0,0.0,0.0,6.8462,6.9744,6.9783,6.9783,6.9821,0.0,6.9103,6.8704,6.8423,6.5388,0.0,0.0,0.0,0.0,0.0,0.0,7.3071,7.3992,7.649,7.7379,7.6505,7.643,7.5543,7.3999,7.4522,7.5236,7.5899,7.3688,7.1622,6.9871,6.6746,0.0,0.0,0.0,0.0,0.0,0.0,0.0,0.0,0.0,0.0,0.0,0.0,0.0,0.0,0.0,0.0,0.0,0.0,0.0,0.0,5.8047,0.0,0.0,0.0,0.0,0.0,0.0,0.0,0.0,0.0,0.0,6.3711,6.625,6.8594,6.9336,0.0,0.0,0.0,0.0,6.9844,6.7539,6.7812,6.8398,6.8555,6.918,7.0508,7.3047,0.0,0.0,7.4726,7.3359,7.2344,7.2265,7.3086,7.2969,7.1328,7.0195,6.9805,7.0547,7.0039,6.9883,7.0664,7.1484,7.2187,6.5667,0.0,0.0,0.0,0.0,6.1858,6.3166,6.5243,6.473,6.4537,6.4551,6.447,0.0,0.0,0.0,0.0,0.0,0.0,6.7754,6.9554,7.0285,7.1233,7.2437,7.2437,7.2399,7.2399,7.2195,7.2107,7.2041,7.1118,6.9604,6.7647,0.0,0.0,0.0,0.0,7.4185,7.5639,7.8065,7.8926,7.8052,7.8617,7.837,7.7235,7.7343,7.7275,7.6929,7.5668,7.4178,7.2534,7.036,0.0,0.0,0.0,0.0,0.0,0.0,0.0,0.0,0.0,0.0,0.0,0.0,0.0,0.0,0.0,0.0,0.0,0.0,0.0,5.9531,6.1367,6.2617,0.0,0.0,0.0,0.0,0.0,0.0,0.0,0.0,0.0,6.9453,7.0273,7.0781,0.0,0.0,7.0586,6.9297,7.0039,7.0664,7.0547,0.0,0.0,0.0,7.3359,7.3789,7.5781,7.6797,7.7383,7.7383,7.7461,7.75,7.7461,7.7695,7.7695,7.7148,7.4883,7.332,7.3398,7.3281,7.3398,7.4258,7.5117,7.5859,7.0898,6.8436,6.6244,6.5705,6.632,6.632,6.759,6.959,6.9129,6.8821,6.8629,6.8809,6.7603,6.5408,6.5972,0.0,0.0,0.0,7.0593,7.2454,7.2492,7.335,7.4938,7.5014,7.5168,7.5476,7.5505,7.5505,7.5476,7.5197,7.4087,7.2147,0.0,0.0,7.3253,7.461,7.5903,7.7305,7.9384,8.0251,7.9741,8.0232,8.0357,8.0076,7.9392,7.8968,7.8815,7.766,7.6207,7.4639,7.3226,7.0871,0.0,0.0,0.0,0.0,0.0,0.0,0.0,0.0,0.0,0.0,0.0,5.5859,0.0,0.0,0.0,0.0,6.1875,6.2773,6.3437,6.4922,0.0,0.0,0.0,0.0,0.0,0.0,0.0,6.789,7.043,7.2578,7.3437,7.3867,7.375,7.2851,7.3047,7.2851,7.168,0.0,7.2851,7.3008,7.3047,7.3555,7.5117,7.5547,7.6211,7.789,7.8633,7.8984,7.8984,7.9375,7.9687,7.9726,7.9726,7.9726,7.9726,7.7969,7.664,7.664,7.664,7.6797,7.7344,7.7812,7.8359,7.5014,7.4668,7.0821,6.9975,7.1091,7.1091,7.2052,7.3591,7.3514,7.2629,7.136,7.2822,7.1822,6.9052,6.9013,0.0,0.0,7.1437,7.2706,7.4976,7.5014,7.5861,7.7361,7.74,7.7784,7.8477,7.8536,7.8575,7.8554,7.7882,7.7603,7.7641,7.6101,7.5646,7.6289,7.7162,7.8023,7.8915,8.0538,8.1424,8.1452,8.1424,8.1724,8.2324,8.0893,8.0431,8.1016,7.9546,7.7959,7.6284,7.5408,7.388,7.141,0.0,0.0,0.0,0.0,0.0,0.0,0.0,0.0,0.0,0.0,0.0,0.0,0.0,0.0,0.0,6.8125,0.0,6.8594,6.8555,0.0,0.0,0.0,6.9453,7.1836,7.1523,7.1719,7.332,0.0,0.0,0.0,0.0,7.7148,7.6484,7.6875,7.664,7.5117,7.5625,7.5937,7.5351,7.5234,7.5273,7.6015,7.7148,7.8633,8.0,8.0117,8.0273,8.0273,8.0273,8.0195,8.0312,8.0156,8.0234,8.0156,8.0195,8.0117,8.0117,7.9765,7.9609,7.9531,7.9609,7.9726,7.7592,7.7515,7.6515,7.4861,7.2899,7.2899,7.3476,7.4361,7.3745,7.363,7.3783,7.3591,7.3745,7.4168,7.4207,7.5091,7.6669,7.6053,7.6438,7.7553,7.7592,7.7823,7.8207,7.8207,7.8323,7.8477,7.8545,7.8853,7.9438,7.9285,7.9584,8.0161,7.9815,7.8787,7.728,7.7935,7.9057,8.0592,8.1554,8.2362,8.3054,8.3048,8.3125,8.3247,8.2901,8.217,8.1131,8.0708,7.9708,7.7993,7.7169,7.5861,7.3918,7.2107,0.0,0.0,0.0,0.0,0.0,0.0,0.0,0.0,0.0,6.3515,6.2187,0.0,6.6875,0.0,6.9531,7.1328,7.1133,7.168,0.0,0.0,7.1328,7.1601,7.2851,7.3984,7.4805,7.5234,7.664,7.7656,7.7851,7.8594,7.9531,8.0547,7.8711,7.7305,7.75,7.8281,7.8945,7.9375,7.9961,8.0703,8.1211,8.2344,8.3086,8.3594,8.3633,8.3672,8.3633,8.3672,8.3672,8.3672,8.3672,8.3672,8.3594,8.3672,8.3594,8.3476,8.1562,7.9726,7.9726,8.0234,8.0703,7.8477,7.8477,7.8477,7.74,7.5707,7.5707,7.5976,7.6361,7.5938,7.5976,7.6361,7.5938,7.6245,7.7092,7.7092,7.763,7.8438,7.8054,7.8092,7.8477,7.8477,7.89,7.9631,7.9669,8.0054,8.0746,8.0746,8.1016,8.1477,8.1477,8.1708,8.2208,8.2208,8.1732,8.081,8.0058,8.0192,8.1131,8.2292,8.3484,8.467,8.4709,8.4709,8.467,8.3984,8.3176,8.2253,8.1516,8.0484,7.9146,7.8639,7.7438,7.5399,7.4427,7.3388,0.0,0.0,0.0,0.0,0.0,0.0,0.0,0.0,0.0,0.0,0.0,7.0273,0.0,7.2187,0.0,7.3203,7.3945,7.457,7.4883,7.4883,7.5234,7.6055,7.6992,7.7578,7.7617,7.914,8.0195,8.0195,8.125,8.2344,8.332,8.1836,8.082,8.125,8.1758,8.2187,8.2695,8.3164,8.3594,8.414,8.457,8.4883,8.4883,8.4883,8.4883,8.4883,8.4883,8.4883,8.4883,8.4883,8.4883,8.4883,8.4883,8.4883,8.4648,8.3398,8.2187,8.2031,8.2383,8.2734,7.9131,7.9169,7.9169,7.9131,7.9131,7.9131,7.89,7.8477,7.8477,7.8477,7.8477,7.8631,7.8669,7.8669,7.8784,7.89,7.8977,7.8977,7.9015,7.9131,7.9131,7.9977,8.14,8.14,8.2208,8.3555,8.3593,8.3632,8.3747,8.3747,8.3824,8.3901,8.3901,8.4279,8.492,8.2855,8.1747,8.1747,8.3292,8.4791,8.6209,8.617,8.6094,8.6055,8.4599,8.372,8.3566,8.2061,8.0862,8.0023,7.9754,7.8707,7.6611,7.6275,7.5601,0.0,7.2727,0.0,0.0,0.0,0.0,0.0,0.0,0.0,0.0,7.2617,7.3711,7.3945,7.5351,7.5976,7.5312,7.5937,7.7031,7.8594,7.8828,7.914,7.9922,8.0117,8.0195,8.0195,8.164,8.2656,8.2656,8.3984,8.4883,8.4961,8.4844,8.4844,8.5273,8.5078,8.4922,8.5156,8.5234,8.5273,8.5312,8.5273,8.5351,8.5312,8.5351,8.5234,8.5351,8.5312,8.5273,8.5273,8.5351,8.5312,8.5234,8.5273,8.5273,8.5351,8.5195,8.5,8.4726,8.4609,8.4883,8.2631,8.2631,8.2631,8.2631,8.2631,8.2631,8.1054,7.8477,7.8477,7.8477,7.8554,7.9246,7.9554,7.9592,8.0285,8.0939,8.1554,8.1593,8.1939,8.2631,8.2631,8.2785,8.3131,8.3093,8.3285,8.3593,8.3593,8.3978,8.4632,8.467,8.4978,8.5593,8.5632,8.5703,0.0,0.0,0.0,0.0,8.6132,8.6824,8.7094,8.6478,8.6094,8.6094,8.5176,0.0,8.3632,8.2593,8.167,8.09,7.9515,0.0,0.0,0.0,0.0,0.0,0.0,0.0,0.0,0.0,0.0,0.0,7.4784,7.4637,7.289,7.4336,7.5976,7.7383,7.7812,7.8203,7.8672,7.8867,7.9375,8.039,8.0547,8.0859,8.1719,8.2422,8.289,8.289,8.3789,8.4375,8.4453,8.4726,8.5234,8.5937,8.5976,8.6523,8.7773,8.6797,8.6289,8.6836,8.6992,8.7031,8.7031,8.7031,8.7031,8.6992,8.6992,8.6992,8.6992,8.6992,8.6992,8.6992,8.7031,8.6992,8.6992,8.6992,8.6992,8.7031,8.6992,8.6562,8.5234,8.4922,8.4883,8.3593,0.0,8.3593,8.3593,0.0,0.0,8.2631,8.1016,8.1016,8.1016,8.1054,8.1477,8.167,8.1708,8.2131,8.2554,8.2939,8.2939,8.317,8.3593,8.3593,8.3824,8.4247,8.4247,8.4439,8.4824,8.5286,8.5709,8.6132,8.6594,8.6978,8.7363,8.7363,8.7589,8.8007,8.8402,8.7983,8.6752,8.7175,8.7598,8.8017,8.7632,8.7401,8.7363,0.0,0.0,0.0,0.0,0.0,0.0,0.0,0.0,0.0,0.0,0.0,7.8477,7.7784,7.716,7.6688,7.6822,7.7136,7.755,7.8592,7.822,7.5858,7.7305,7.8711,7.9648,8.0117,8.0703,8.1523,8.164,8.1992,8.2812,8.2929,8.3125,8.3515,8.3945,8.4258,8.4336,8.5,8.5703,8.6133,8.6562,8.7109,8.7929,8.8086,8.8359,8.9023,8.8242,8.7773,8.8554,8.8711,8.875,8.875,8.875,8.8711,8.875,8.8711,8.875,8.875,8.875,8.875,8.8711,8.875,8.875,8.8711,8.875,8.8711,8.875,8.875,8.8515,8.75,8.6758,8.6172,8.4055,8.4016,8.4055,8.4055,8.4055,8.417,8.4362,8.4478,0.0,0.0,0.0,8.3593,8.3593,8.3593,8.3747,8.3824,8.3824,8.3978,8.4132,8.4286,8.4286,8.4709,8.5555,8.5593,8.5901,8.6594,8.7286,8.7632,8.7671,8.8363,8.8786,8.8902,8.8902,8.9286,9.0129,9.0825,9.0252,8.8371,8.799,8.8179,8.8863,8.8748,8.8671,8.8671,8.7858,8.7396,8.7385,8.5928,8.512,8.5074,8.4164,8.3054,8.1862,8.1477,8.0746,7.9515,7.8784,7.8631,7.9131,7.8784,7.9143,8.0563,8.153,8.1272,7.926,8.0417,8.1364,8.1601,8.2304,8.3008,8.375,8.3828,8.4179,8.5039,8.5117,8.5195,8.5508,8.5586,8.5742,8.582,8.6523,8.7148,8.7851,8.8437,8.9179,8.9765,8.9765,9.0117,9.0078,8.9453,8.9062,8.9687,8.9765,8.9922,8.9961,8.9883,9.0,8.9844,8.9922,9.0,9.0,9.0,9.0,8.9844,9.0,8.9922,8.9961,8.9883,9.0,9.0,9.0,9.0,8.9883,8.8906,8.7969,8.5747,8.5747,8.5747,8.5747,8.5786,8.6555,8.7286,8.7709,8.4863,8.3593,8.3593,8.3593,8.3593,8.3632,8.4401,8.4709,8.4786,8.544,8.617,0.0,8.6863,8.7325,8.8132,8.8171,8.8209,8.8325,8.844,8.8517,8.8517,8.8671,8.9056,8.9671,8.9748,9.0171,9.0941,9.1133,9.1402,9.1748,9.029,8.9598,8.9748,8.9056,8.8671,8.8632,8.7902,8.7406,8.7401,8.6488,8.595,8.5901,8.4445,8.3797,8.4291,8.2978,8.2324,8.2824,8.2778,8.2463,8.1855,8.2401,8.2956,8.3259,8.3459,8.3206,8.245,8.2668,8.3194,8.3906,8.4258,8.4414,8.4531,8.4765,8.5234,8.5937,8.6054,8.6562,8.7851,8.8047,8.832,8.8945,8.9375,8.9414,8.9531,8.9726,8.9883,9.0,9.0273,9.0312,9.082,9.0351,8.9922,8.9961,9.0,9.0,9.0195,9.0,9.0156,9.0,9.0117,9.0195,9.0234,9.0234,9.0234,9.0078,9.0195,9.0156,9.0117,9.0,9.0156,9.0195,9.0234,9.0234,9.0234,8.9883,8.9648,8.7517,8.7517,8.7517,8.7517,8.7555,8.794,8.8325,8.8556,8.7055,8.6363,8.6363,8.6363,8.6363,8.6401,8.6786,8.694,8.6978,8.7363,8.7709,8.8094,8.8094,8.8286,8.8671,8.8671,8.8671,8.8709,8.9171,8.9363,8.9402,8.9825,9.0479,9.1287,9.1745,9.2168,9.2518,9.2553,9.2784,9.3133,9.1905,9.1521,9.1941,9.1595,9.121,9.0787,9.0364,8.994,8.9479,8.8602,8.8179,8.8137,8.6987,8.6526,8.6868,8.5747,8.5247,8.5593,8.5235,8.4773,8.4388,8.5241,8.5742,8.5792,8.6307,8.651,8.6285,8.5142,8.4883,8.5867,8.6427,8.698,8.75,8.7617,8.7851,8.8203,8.8281,8.8554,8.9219,8.9414,8.957,8.9922,9.0,9.0156,9.0625,9.0703,9.0937,9.1289,9.1406,9.1601,9.1992,9.2109,9.1914,9.1523,9.1406,9.1406,9.1406,9.1406,9.1406,9.1406,9.1406,9.1406,9.1406,9.1406,9.1406,9.1406,9.1406,9.1406,9.1406,9.1406,9.1406,9.1445,9.1836,9.1914,9.1601,9.1406,9.125,8.8671,8.8671,8.8671,8.8786,8.8979,8.8979,8.9056,8.9248,8.9248,8.9363,8.9479,8.8979,8.8671,8.8671,8.8671,8.8671,8.8671,8.8671,8.8786,8.8979,8.8979,8.9171,8.9517,8.9556,8.9633,8.9863,9.0479,9.0787,9.0864,9.1441,9.2095,9.2787,9.34,9.3669,9.3672,9.3708,9.3785,9.3941,9.3366,9.3251,9.3672,9.3672,9.3403,9.2826,9.2746,9.2438,9.1748,9.1133,9.0675,9.0444,8.9713,8.9175,8.8979,8.8171,8.7709,8.7632,8.705,8.6698,8.6742,8.7363,8.7786,8.7809,8.8451,8.8892,8.8798,8.734,8.6648,8.7565,8.8243,8.8974,8.957,8.9844,8.9961,9.0,9.0,9.0,9.0234,9.0312,9.039,9.0547,9.0586,9.0898,9.1445,9.1758,9.2265,9.3008,9.3203,9.3164,9.3242,9.3789,9.3828,9.3437,9.3164,9.3203,9.3203,9.3164,9.3203,9.3164,9.3203,9.3203,9.3203,9.3203,9.3164,9.3164,9.3203,9.3203,9.3203,9.3203,9.3164,9.3203,9.3633,9.3867,9.332,9.3203,9.2773,8.8709,8.8671,8.8748,8.9133,8.9825,8.9825,9.0248,9.0941,9.0979,9.1441,9.1825,8.971,8.8786,8.8671,8.8786,8.8863,8.8863,8.8709,8.9171,8.9825,8.9787,9.0633,9.1979,9.2095,9.2518,9.3056,9.3172,9.3095,9.3133,9.3326,9.3518,9.3595,9.3672,9.3749,9.3749,9.3751,9.4097,9.4864,9.4789,9.4405,9.3749,9.3672,9.3633,9.3595,9.3592,9.3589,9.3397,9.3397,9.2977,9.2284,9.1402,9.0598,8.9867,8.9056,8.8594,8.8632,8.8517,8.8479,8.8487,8.8563,8.8637,8.8594,8.8848,8.8958,8.899,8.8837,8.8759,8.9127,8.9275,8.9454,8.9609,8.9844,9.0039,9.0234,9.0234,9.0312,9.1094,9.1172,9.1484,9.2265,9.2344,9.2383,9.2617,9.3125,9.3906,9.457,9.4648,9.4648,9.4687,9.4922,9.5078,9.4961,9.4961,9.4922,9.4844,9.4922,9.4726,9.4804,9.4883,9.4804,9.4765,9.4844,9.4961,9.4922,9.4961,9.4961,9.4961,9.4961,9.4961,9.4922,9.5078,9.5078,9.4961,9.4961,9.4414,9.0171,9.0171,9.0171,9.0671,9.1402,9.1441,9.1902,9.2633,9.2672,9.2864,9.3095,9.2095,9.1672,9.1633,9.1633,9.1633,9.1633,9.1633,9.1825,9.2133,9.2133,9.2518,9.3133,9.321,9.3403,9.3672,9.3672,9.371,9.3787,9.421,9.4441,9.4518,9.498,9.5249,9.5211,9.5212,9.5405,9.5749,9.5788,9.5595,9.5288,9.5249,9.498,9.4518,9.4441,9.421,9.3785,9.371,9.352,9.3213,9.2864,9.2518,9.2172,9.1825,9.1633,9.1633,9.1206,9.0941,9.0941,9.0482,9.0406,9.0902,9.0975,9.1236,9.1837,9.1901,9.2025,9.2003,9.0981,9.0402,9.0959,9.1131,9.1223,9.1445,9.1875,9.2344,9.2773,9.3281,9.3789,9.4101,9.414,9.4101,9.4179,9.4453,9.4804,9.5156,9.5195,9.5273,9.5234,9.5625,9.5937,9.6015,9.6367,9.6172,9.5508,9.5195,9.5234,9.5234,9.5195,9.5273,9.5937,9.5976,9.6094,9.6562,9.6679,9.6679,9.6679,9.6679,9.6679,9.6679,9.6719,9.6797,9.7304,9.7031,9.6367,9.1902,9.1902,9.1902,9.2249,9.2826,9.2826,9.3172,9.3672,9.3672,9.3826,9.4057,9.4057,9.421,9.4326,9.3941,9.3672,9.3672,9.3672,9.3672,9.3672,9.3672,9.3787,9.4018,9.4057,9.4172,9.4364,9.4441,9.4441,9.448,9.498,9.5365,9.5441,9.598,9.6288,9.6288,9.6288,9.6288,9.6288,9.6288,9.6288,9.6249,9.6288,9.6019,9.5441,9.5365,9.502,9.4441,9.4405,9.4291,9.406,9.4059,9.398,9.3713,9.371,9.371,9.3633,9.3207,9.2823,9.2823,9.221,9.2172,9.2749,9.2826,9.3166,9.3731,9.3919,9.4017,9.393,9.2567,9.2014,9.2595,9.276,9.2843,9.3057,9.3628,9.4005,9.4101,9.4708,9.4961,9.5117,9.4961,9.5273,9.5469,9.5547,9.5664,9.5937,9.5937,9.5898,9.5937,9.6406,9.6758,9.6808,9.7265,9.707,9.6133,9.6328,9.6172,9.6328,9.6562,9.7109,9.7422,9.75,9.7578,9.8398,9.8398,9.8437,9.8437,9.8398,9.8398,9.8398,9.8437,9.8594,9.8984,9.8711,9.8515,9.3595,9.3557,9.3557,9.3557,9.3633,9.3633,9.3672,9.3864,9.3787,9.421,9.4903,9.4941,9.5403,9.5942,9.4518,9.3749,9.3749,9.3826,9.3864,9.3864,9.3826,9.4172,9.4903,9.4941,9.5365,9.5903,9.5942,9.598,9.6057,9.6172,9.6249,9.6288,9.6365,9.6326,9.6442,9.648,9.6365,9.648,9.648,9.6365,9.6365,9.6365,9.6403,9.6326,9.6249,9.6134,9.6095,9.6172,9.5751,9.4982,9.4943,9.4597,9.3868,9.3789,9.3789,9.3787,9.371,9.3669,9.3631,9.3515,9.3518,9.3633,9.3633,9.371,9.4013,9.4086,9.4189,9.4087,9.4055,9.4065,9.4297,9.4153,9.423,9.4395,9.4562,9.4676,9.4666,9.4977,9.4822,9.5063,9.5273,9.5703,9.6367,9.6445,9.6719,9.7187,9.75,9.75,9.7422,9.7465,9.7503,9.7494,9.7499,9.7383,9.7578,9.7656,9.8281,9.8515,9.8633,9.9726,10.0,10.0156,10.0117,10.0156,10.0195,10.0195,10.0195,10.0195,10.0195,10.0195,10.0195,10.0351,10.0547,10.0351,10.0195,9.3672,9.3672,9.3672,9.398,9.4518,9.4518,9.4826,9.5365,9.5365,9.5518,9.5788,9.5826,9.6019,9.6288,9.5672,9.5365,9.5365,9.5365,9.5365,9.5365,9.5365,9.5518,9.5788,9.5826,9.598,9.6249,9.6288,9.6288,9.6288,9.6288,9.6596,9.7019,9.7057,9.7326,9.7788,9.7902,9.7902,9.7904,9.7904,9.7904,9.7827,9.7904,9.7904,9.7827,9.6826,9.6288,9.6288,9.6288,9.6134,9.5865,9.5826,9.5674,9.5405,9.5328,9.5365,9.5326,9.4864,9.4557,9.448,9.3982,9.3982,9.4443,9.4518,9.4785,9.5283,9.5508,9.5542,9.5605,9.5687,9.5816,9.5623,9.4974,9.4365,9.4578,9.5093,9.5515,9.5723,9.6461,9.7153,9.7169,9.7199,9.7394,9.7364,9.7344,9.7124,9.7436,9.7866,9.8139,9.8196,9.8173,9.8264,9.868,9.8464,9.8294,9.9023,9.8672,9.8789,9.9375,9.9844,10.0312,10.0703,10.1015,10.1015,10.1445,10.164,10.164,10.1523,10.1562,10.164,10.1719,10.1719,10.1562,10.1953,10.1601,10.1719,9.4557,9.4557,9.4557,9.4864,9.5403,9.5403,9.5749,9.6288,9.6288,9.6288,9.6326,9.6557,9.6673,9.6749,9.698,9.7096,9.7019,9.6557,9.6288,9.6288,9.6288,9.6288,9.6288,9.6288,9.6288,9.6365,9.6596,9.6826,9.7096,9.7096,9.7403,9.7865,9.7673,9.7788,9.8288,9.8134,9.8019,9.798,9.8019,9.798,9.798,9.798,9.798,9.7827,9.6903,9.6596,9.7094,9.7133,9.6942,9.6711,9.6673,9.6557,9.6326,9.6288,9.6288,9.6211,9.5751,9.5405,9.5366,9.4866,9.4828,9.5328,9.5441,9.5747,9.632,9.6397,9.6397,9.6463,9.6531,9.659,9.6444,9.5632,9.5206,9.567,9.6435,9.6938,9.7092,9.806,9.8485,9.8302,9.8023,9.8046,9.8077,9.7619,9.7362,9.7285,9.781,9.816,9.8412,9.8471,9.8719,9.9464,9.9104,9.9202,9.9665,9.963,9.9599,10.0105,10.0682,10.1133,10.126,10.1572,10.1953,10.2539,10.2812,10.2851,10.2851,10.289,10.289,10.289,10.2695,10.2383,10.2617,10.2773,10.25,9.6288,9.6249,9.6288,9.6288,9.6403,9.6442,9.6365,9.6519,9.648,9.6557,9.6711,9.7211,9.7519,9.7673,9.8211,9.8673,9.8327,9.7173,9.6596,9.6557,9.6519,9.6519,9.6519,9.6596,9.6596,9.6596,9.7173,9.7904,9.8557,9.8557,9.8634,9.8634,9.8134,9.798,9.7673,9.7404,9.6789,9.6943,9.7097,9.6827,9.6403,9.6826,9.6865,9.6673,9.6558,9.7173,9.8632,9.8518,9.8018,9.7441,9.7364,9.7094,9.6403,9.6288,9.6288,9.6288,9.6249,9.6249,9.6249,9.6134,9.6019,9.6172,9.6249,9.6172,9.6249,9.6288,9.6325,9.6358,9.6435,9.6432,9.6537,9.6529,9.683,9.7875,9.8145,9.8562,9.8833,9.9143,9.9065,9.8485,9.7925,9.7402,9.7363,9.7296,9.7236,9.7236,9.744,9.7789,9.8292,9.8359,9.867,9.9259,9.9259,9.9181,9.9878,10.0604,10.0721,10.0983,10.1564,10.2007,10.1738,10.186,10.1932,10.2383,10.2617,10.2656,10.289,10.289,10.289,10.289,10.289,10.2812,10.2617,10.25,10.25,9.6785,9.7134,9.7134,9.748,9.798,9.8019,9.8019,9.8019,9.8019,9.8019,9.8057,9.8288,9.8404,9.8442,9.8673,9.8788,9.875,9.8211,9.8019,9.8019,9.798,9.7942,9.798,9.798,9.8019,9.8057,9.825,9.8519,9.8788,9.8827,9.9058,9.9481,9.9404,9.9596,9.9942,9.9865,9.975,9.975,9.975,9.948,9.8981,9.8904,9.8634,9.8096,9.8019,9.8288,9.8711,9.7712,9.6982,9.6751,9.6674,9.6557,9.6365,9.6288,9.6288,9.6288,9.6288,9.6288,9.6288,9.6326,9.6365,9.6326,9.6326,9.6288,9.6288,9.6326,9.6326,9.6325,9.6365,9.6399,9.6509,9.7045,9.738,9.7187,9.7411,9.7827,9.8098,9.8292,9.864,9.8872,9.833,9.7905,9.7711,9.7479,9.7092,9.717,9.7518,9.806,9.8214,9.8408,9.8485,9.9181,9.8949,9.9143,9.9994,10.0574,10.0767,10.1115,10.1765,10.2114,10.1983,10.1953,10.2028,10.2123,10.2351,10.2578,10.2812,10.289,10.2851,10.289,10.289,10.2617,10.2148,10.2109,10.2265,9.7708,9.798,9.798,9.8288,9.875,9.8788,9.8788,9.8788,9.8788,9.8788,9.8827,9.9135,9.9288,9.9327,9.9596,9.9712,9.975,9.9712,9.975,9.9558,9.8981,9.8788,9.8788,9.8788,9.9019,9.925,9.9288,9.9442,9.9712,9.975,10.0019,10.0442,10.025,10.0289,10.075,10.0519,10.0365,10.0366,10.0289,10.0096,9.9712,9.9596,9.9365,9.8865,9.8788,9.8788,9.8749,9.775,9.7097,9.6828,9.675,9.6749,9.6788,9.7057,9.7211,9.7248,9.7248,9.7287,9.7248,9.7325,9.7211,9.7211,9.6942,9.6749,9.6749,9.6749,9.6749,9.6749,9.7133,9.7287,9.7402,9.7787,9.7973,9.7672,9.8083,9.83,9.8601,9.8872,9.922,9.9452,9.8794,9.8369,9.8292,9.7827,9.7479,9.7711,9.8176,9.8756,9.8872,9.9104,9.9452,9.9723,9.9762,9.9994,10.0303,10.0574,10.0729,10.1193,10.1696,10.1812,10.1739,10.1923,10.2046,10.207,10.2257,10.2504,10.2695,10.2734,10.2734,10.2812,10.289,10.2734,10.2461,10.2344,10.2422,9.8827,9.8865,9.8865,9.8942,9.9058,9.9058,9.9135,9.9019,9.9058,9.9096,9.9211,9.9865,10.0173,10.0327,10.0789,10.1019,10.125,10.1096,10.1019,10.0712,9.9865,9.9211,9.9211,9.925,9.9596,10.0058,10.0135,10.0519,10.0981,10.1019,10.1289,10.1135,10.0557,10.0173,10.0289,9.9404,9.9327,9.9481,9.925,9.925,9.9058,9.8981,9.8904,9.8827,9.8788,9.8788,9.8749,9.8595,9.8287,9.771,9.7596,9.7558,9.7712,9.8365,9.8634,9.8557,9.8748,9.8634,9.8672,9.8518,9.8557,9.8481,9.7942,9.7595,9.7596,9.7596,9.7596,9.7633,9.8172,9.8634,9.8634,9.8749,9.8862,9.9197,9.9448,10.0241,10.1348,10.0729,10.0187,9.9994,9.9143,9.8408,9.9104,9.8524,9.8562,9.8872,9.9143,9.9413,9.98,9.9955,10.0729,10.0613,10.0071,10.0071,10.011,10.0535,10.069,10.0999,10.1502,10.1618,10.1502,10.1618,10.1966,10.2018,10.2148,10.2361,10.2539,10.2617,10.2734,10.2851,10.289,10.289,10.2617,10.2226,10.1758,9.9355,9.975,9.975,10.0096,10.0596,10.0635,10.0596,10.0635,10.0596,10.0519,10.0673,10.0866,10.0943,10.1019,10.1173,10.1289,10.1289,10.1289,10.1289,10.125,10.0943,10.0673,10.0635,10.0635,10.0712,10.0904,10.0904,10.1096,10.1289,10.1289,10.1289,10.1289,10.1096,10.0981,10.0904,10.0673,10.0673,10.0673,10.0635,10.0289,9.9827,9.975,9.9404,9.8827,9.8827,9.8865,9.8788,9.875,9.875,9.848,9.848,9.8442,9.8481,9.8712,9.8942,9.8942,9.8903,9.8827,9.8827,9.8865,9.8865,9.8789,9.8673,9.8442,9.8442,9.8442,9.8442,9.8481,9.8711,9.8827,9.8827,9.8904,9.9172,9.974,9.995,9.9931,10.0079,9.98,9.9645,9.9568,9.9297,9.922,9.9297,9.922,9.9143,9.9375,9.9491,9.9568,10.0071,10.011,10.0535,9.9994,9.9568,9.9684,9.9878,10.0342,10.0651,10.0806,10.1193,10.1541,10.1231,10.0961,10.1464,10.1864,10.2,10.2205,10.2421,10.2539,10.2695,10.2792,10.2699,10.2568,10.1744,10.1211,10.0547,10.0279,10.0596,10.0596,10.0866,10.1289,10.1289,10.1289,10.1289,10.1289,10.1289,10.1289,10.1289,10.1289,10.1289,10.1289,10.1289,10.1289,10.1289,10.1289,10.1289,10.125,10.125,10.125,10.1289,10.1289,10.1289,10.1289,10.1289,10.1289,10.1289,10.1289,10.1289,10.1289,10.1289,10.125,10.1289,10.1289,10.1289,10.1289,10.1058,10.0635,10.0596,10.0404,9.9904,9.9865,9.9865,9.9865,9.9865,9.9558,9.9096,9.9135,9.9327,9.9404,9.9673,9.9827,9.9827,9.9865,9.9865,9.9865,9.9865,9.9865,9.9788,9.9595,9.9365,9.9365,9.9327,9.9327,9.9327,9.9596,9.9827,9.9865,9.9904,10.0173,10.0595,10.0462,10.0286,10.0318,10.0504,10.0419,10.0342,10.011,10.0032,10.0264,10.0071,10.011,10.0342,10.0574,10.0535,10.0613,10.038,10.0264,10.0148,9.9963,10.0163,10.0318,10.0666,10.0936,10.1084,10.1077,10.1425,10.1309,10.0883,10.1231,10.1696,10.1889,10.2067,10.2251,10.2384,10.242,10.2468,10.2413,10.2226,10.1643,10.0987,10.0196,10.125,10.1289,10.1289,10.1289,10.1289,10.1289,10.1289,10.1289,10.1289,10.1289,10.1289,10.1289,10.1289,10.1289,10.1289,10.1289,10.1289,10.1289,10.1289,10.1289,10.1289,10.1289,10.1289,10.1289,10.1289,10.1289,10.1289,10.1289,10.1289,10.1289,10.1289,10.1289,10.1289,10.1289,10.1289,10.1289,10.1289,10.1289,10.1289,10.1289,10.1173,10.1135,10.1058,10.1019,10.0981,10.1019,10.1096,10.1096,10.0557,9.9134,9.9827,10.0173,10.0288,10.0943,10.1173,10.1135,10.1019,10.1096,10.1212,10.1058,10.1173,10.1019,10.0519,10.0211,10.0212,10.0212,10.0173,10.025,10.0866,10.1019,10.1096,10.1289,10.1289,10.1289,10.14,10.1546,10.1688,10.1787,10.1889,10.185,10.1115,10.1231,10.1386,10.1348,10.0999,10.1115,10.1309,10.127,10.127,10.1162,10.1239,10.1316,10.1098,10.091,10.0988,10.1103,10.1258,10.1407,10.1207,10.1355,10.1618,10.1425,10.1386,10.158,10.185,10.2005,10.2105,10.2173,10.2229,10.2293,10.2288,10.2307,10.2173,10.1468,10.0716,10.0885,10.1289,10.1289,10.1289,10.1289,10.1289,10.1289,10.1289,10.1289,10.1289,10.1289,10.1289,10.1289,10.1289,10.1289,10.1289,10.1289,10.1289,10.1289,10.1289,10.1289,10.1289,10.1289,10.1289,10.1289,10.1289,10.1289,10.1289,10.1289,10.1289,10.1289,10.1289,10.1289,10.1289,10.1289,10.1289,10.1289,10.1289,10.1289,10.1289,10.1289,10.1289,10.1289,10.1289,10.1289,10.1289,10.1289,10.1289,10.1135,10.0865,10.0865,10.0903,10.1019,10.1173,10.1289,10.1289,10.1289,10.1289,10.1289,10.1289,10.1289,10.1289,10.1135,10.1058,10.1019,10.0981,10.1019,10.1058,10.1212,10.1289,10.1327,10.1327,10.1366,10.1404,10.1481,10.1516,10.1552,10.1654,10.1716,10.1703,10.1657,10.1696,10.185,10.1773,10.1696,10.1889,10.1889,10.1889,10.1858,10.1787,10.1787,10.1755,10.1572,10.1234,10.1273,10.1311,10.1423,10.15,10.1374,10.1362,10.1626,10.1773,10.1626,10.1734,10.185,10.1966,10.2044,10.2036,10.2039,10.2155,10.2204,10.2165,10.2019,10.1611,10.1386,10.0627,10.0928,10.121,10.1289,10.1289,10.1289,10.1289,10.1289,10.1289,10.1289,10.1289,10.1289,10.1289,10.1289,10.1289,10.1289,10.1289,10.1289,10.1289,10.1289,10.1289,10.1289,10.1289,10.1289,10.1289,10.1289,10.1289,10.1289,10.1289,10.1289,10.1289,10.1289,10.1289,10.1289,10.1289,10.1289,10.1289,10.1289,10.1289,10.1289,10.1289,10.1289,10.1289,10.1289,10.1289,10.1289,10.1289,10.1289,10.1289,10.1289,10.1289,10.1289,10.1289,10.1289,10.1289,10.1289,10.1289,10.1289,10.1289,10.1289,10.1289,10.1289,10.1289,10.1289,10.1289,10.1289,10.1289,10.1289,10.1289,10.1289,10.1289,10.1289,10.1289,10.1289,10.1366,10.1404,10.1442,10.155,10.165,10.1677,10.1748,10.178,10.1858,10.1858,10.1889,10.1889,10.1889,10.1889,10.1787,10.1755,10.1688,10.1654,10.1585,10.1475,10.1475,10.1511,10.1473,10.1508,10.15,10.1528,10.1677,10.1748,10.1787,10.1858,10.1889,10.1928,10.1966,10.1928,10.1928,10.1997,10.2028,10.1997,10.1889,10.1657,10.158,10.0442,10.0536,10.1091,10.1289,10.1289,10.1289,10.1289,10.1289,10.1289,10.1289,10.1289,10.1289,10.1289,10.1289,10.1289,10.1289,10.1289,10.1289,10.1289,10.1289,10.1289,10.1289,10.1289,10.1289,10.1289,10.1289,10.1289,10.1289,10.1289,10.1289,10.1289,10.1289,10.1289,10.1289,10.1289,10.1289,10.1289,10.1289,10.1289,10.1289,10.1289,10.1289,10.1289,10.1289,10.1289,10.1289,10.1289,10.1289,10.1289,10.1289,10.1289,10.1289,10.1289,10.1289,10.1289,10.1289,10.1289,10.1289,10.1289,10.1289,10.1289,10.1289,10.1289,10.1289,10.1289,10.1289,10.1289,10.1289,10.1289,10.1289,10.1289,10.1289,10.1289,10.1289,10.1289,10.1289,10.1328,10.1441,10.155,10.1654,10.1688,10.1722,10.1826,10.1826,10.1858,10.1858,10.1858,10.1826,10.1722,10.1688,10.162,10.155,10.1516,10.1441,10.1442,10.1479,10.1516,10.1514,10.1473,10.1581,10.165,10.1722,10.1755,10.1858,10.1928,10.1928,10.1928,10.1928,10.1928,10.1889,10.1928,10.1928,10.185,10.1773,10.1618,10.0025,10.0536,10.105,10.1289,10.1289,10.1289,10.1289,10.1289,10.1289,10.1289,10.1289,10.1289,10.1289,10.1289,10.1289,10.1289,10.1289,10.1289,10.1289,10.1289,10.1289,10.1289,10.1289,10.1289,10.1289,10.1289,10.1289,10.1289,10.1289,10.1289,10.1289,10.1289,10.1289,10.1289,10.1289,10.1289,10.1289,10.1289,10.1289,10.1289,10.1289,10.1289,10.1289,10.1289,10.1289,10.1289,10.1289,10.1289,10.1289,10.1289,10.1289,10.1289,10.1289,10.1289,10.1289,10.1289,10.1289,10.1289,10.1289,10.1289,10.1289,10.1289,10.1289,10.1289,10.1289,10.1289,10.1289,10.1289,10.1289,10.1289,10.1289,10.1289,10.1289,10.1289,10.1289,10.1289,10.1327,10.1328,10.1404,10.1514,10.155,10.1659,10.1727,10.176,10.1722,10.176,10.176,10.1727,10.1659,10.1588,10.1552,10.1479,10.1404,10.1366,10.1328,10.1366,10.1404,10.1442,10.1478,10.1514,10.1585,10.1688,10.1755,10.1787,10.1889,10.1928,10.1928,10.1889,10.1889,10.1889,10.1889,10.1889,10.1618,10.1348,10.0922,9.9767,10.0113,10.0966,10.1289,10.1289,10.1289,10.1289,10.1289,10.1289,10.1289,10.1289,10.1289,10.1289,10.1289,10.1289,10.1289,10.1289,10.1289,10.1289,10.1289,10.1289,10.1289,10.1289,10.1289,10.1289,10.1289,10.1289,10.1289,10.1289,10.1289,10.1289,10.1289,10.1289,10.1289,10.1289,10.1289,10.1289,10.1289,10.1289,10.1289,10.1289,10.1289,10.1289,10.1289,10.1289,10.1289,10.1289,10.1289,10.1289,10.1289,10.1289,10.1289,10.1289,10.1289,10.1289,10.1289,10.1289,10.1289,10.1289,10.1289,10.1289,10.1289,10.1289,10.1289,10.1289,10.1289,10.1289,10.1289,10.1289,10.1289,10.1289,10.1289,10.1289,10.1289,10.1289,10.1289,10.1289,10.1289,10.1366,10.1404,10.1479,10.1552,10.1624,10.1624,10.162,10.162,10.1585,10.1588,10.1552,10.1516,10.1442,10.1404,10.1366,10.1366,10.1289,10.1289,10.1289,10.1366,10.1404,10.1479,10.1516,10.155,10.1654,10.1755,10.1787,10.1703,10.1889,10.1889,10.1889,10.185,10.1773,10.158,10.1231,10.0883,10.038,9.946,9.9714,10.0716,10.121,10.1289,10.1289,10.1289,10.1289,10.1289,10.1289,10.1289,10.1289,10.1289,10.1289,10.1289,10.1289,10.1289,10.1289,10.1289,10.1289,10.1289,10.1289,10.1289,10.1289,10.1289,10.1289,10.1289,10.1289,10.1289,10.1289,10.1289,10.1289,10.1289,10.1289,10.1289,10.1289,10.1289,10.1289,10.1289,10.1289,10.1289,10.1289,10.1289,10.1289,10.1289,10.1289,10.1289,10.1289,10.1289,10.1289,10.1289,10.1289,10.1289,10.1289,10.1289,10.1289,10.1289,10.1289,10.1289,10.1289,10.1289,10.1289,10.1289,10.1289,10.1289,10.1289,10.1289,10.1289,10.1289,10.1289,10.1289,10.1289,10.1289,10.1289,10.1289,10.1289,10.1289,10.1289,10.1289,10.1366,10.1404,10.1479,10.1516,10.1516,10.1478,10.1514,10.1552,10.1479,10.1442,10.1442,10.1404,10.1366,10.1289,10.1289,10.1289,10.1289,10.1289,10.1289,10.1366,10.1404,10.1442,10.1479,10.1511,10.15,10.1368,10.1323,10.1587,10.1696,10.1464,10.1309,10.1425,10.1154,10.0496,9.9994,9.9491,9.91,9.9623,10.0309,10.0842,10.125,10.1289,10.1289,10.1289,10.1289,10.1289,10.1289,10.1289,10.1289,10.1289,10.1289,10.1289,10.1289,10.1289,10.1289,10.1289,10.1289,10.1289,10.1289,10.1289,10.1289,10.1289,10.1289,10.1289,10.1289,10.1289,10.1289,10.1289,10.1289,10.1289,10.1289,10.1289,10.1289,10.1289,10.1289,10.1289,10.125,10.125,10.1289,10.1289,10.1289,10.1289,10.1289,10.1289,10.1289,10.1289,10.1289,10.1289,10.1289,10.1289,10.1289,10.1289,10.1289,10.1289,10.1289,10.1289,10.1289,10.1289,10.1289,10.1289,10.1289,10.1289,10.1289,10.1289,10.1289,10.1289,10.1289,10.1289,10.1289,10.1289,10.1289,10.1289,10.1289,10.1289,10.1289,10.1289,10.1366,10.1404,10.1479,10.1404,10.1366,10.1404,10.1442,10.1404,10.1366,10.1366,10.1366,10.1289,10.1289,10.1289,10.1289,10.1289,10.1135,10.1173,10.1096,10.1058,10.0827,10.075,10.1171,10.1125,10.0882,10.0827,10.1052,10.1046,10.0845,10.0651,10.0535,10.011,9.9568,9.9065,9.8678,9.8778,9.9714,10.0581,10.1091,10.1289,10.1289,10.1289,10.1289,10.1289,10.1289,10.1289,10.1289,10.1289,10.1289,10.1289,10.1289,10.1289,10.1289,10.1289,10.1289,10.1289,10.1289,10.1289,10.1289,10.1289,10.1289,10.1289,10.1289,10.1289,10.1289,10.1289,10.1289,10.1289,10.1289,10.1212,10.1289,10.1289,10.1289,10.125,10.1058,10.0866,10.1019,10.1289,10.125,10.125,10.125,10.1289,10.1289,10.1289,10.1289,10.1289,10.1289,10.1289,10.1289,10.1289,10.1289,10.1289,10.1289,10.1289,10.1289,10.1289,10.1289,10.1289,10.1289,10.1289,10.1289,10.1289,10.1289,10.1289,10.1289,10.1289,10.1289,10.1289,10.1289,10.1289,10.1289,10.1289,10.1289,10.1289,10.1289,10.1289,10.1366,10.1404,10.1366,10.1289,10.1328,10.1366,10.1366,10.1289,10.1289,10.1289,10.1289,10.1289,10.1289,10.1289,10.1289,10.0827,10.075,10.0481,10.0327,9.9865,9.9865,10.0211,10.0208,9.974,9.9883,10.0331,10.0202,9.9885,9.9692,9.9568,9.9143,9.8717,9.8601,9.8176,9.8567,9.9497,10.0451,10.105,10.1289,10.1289,10.1289,10.1289,10.1289,10.1289,10.1289,10.1289,10.1289,10.1289,10.1289,10.1289,10.1289,10.1289,10.1289,10.1289,10.1289,10.1289,10.1289,10.1289,10.1289,10.1289,10.1289,10.1289,10.125,10.1135,10.1019,10.1289,10.1289,10.1135,10.1019,10.0904,10.0827,10.0442,10.0442,10.0212,9.9942,10.0327,10.0519,10.0635,10.0712,10.0788,10.0981,10.0981,10.0981,10.1289,10.1289,10.1289,10.1289,10.1289,10.1289,10.1289,10.1289,10.1289,10.1289,10.1289,10.1289,10.1289,10.1289,10.1289,10.1289,10.1289,10.1289,10.1289,10.1289,10.1289,10.1289,10.1289,10.1289,10.1289,10.1289,10.1289,10.1289,10.1289,10.1289,10.1289,10.1289,10.1289,10.1327,10.1289,10.1289,10.1289,10.1289,10.1289,10.1289,10.1289,10.1289,10.1289,10.1289,10.1289,10.125,10.1135,10.0712,10.025,9.9981,9.9635,9.9211,9.9058,9.9288,9.9017,9.8705,9.8741,9.9039,9.8985,9.8926,9.8772,9.8578,9.8261,9.7952,9.7905,9.775,9.8717,9.8802,9.946,10.0357,10.125,10.1289,10.1289,10.1289,10.1289,10.1289,10.1289,10.1289,10.1289,10.1289,10.1289,10.1289,10.1289,10.1289,10.1289,10.1289,10.1289,10.1289,10.1289,10.1289,10.125,10.1173,10.1096,10.1135,10.1058,10.0327,10.0673,10.1173,10.0866,10.0634,10.0365,10.0134,9.975,9.9365,9.9249,9.9211,9.8981,9.9096,9.9173,9.9135,9.9135,9.9326,10.0096,10.0173,10.0365,10.0903,10.0943,10.0943,10.0827,10.1019,10.1058,10.1096,10.125,10.1289,10.1289,10.1289,10.1289,10.1289,10.1289,10.1289,10.1289,10.1289,10.1289,10.1289,10.1289,10.1289,10.1289,10.1289,10.1289,10.1289,10.1289,10.1289,10.1289,10.1289,10.1289,10.1289,10.1289,10.1289,10.1289,10.1289,10.1289,10.1289,10.1289,10.1289,10.1289,10.1289,10.1289,10.1289,10.1289,10.125,10.1212,10.0866,10.0327,9.9712,9.9288,9.8981,9.8634,9.8557,9.8211,9.821,9.7939,9.786,9.7781,9.7847,9.7876,9.7787,9.7658,9.7496,9.7372,9.7286,9.7209,9.863,9.9273,9.946,10.0075,10.0842,10.117,10.1289,10.1289,10.1289,10.1289,10.1289,10.1289,10.1289,10.1289,10.1289,10.1289,10.1289,10.1289,10.1289,10.1289,10.1289,10.1289,10.1289,10.1173,10.1058,10.0673,10.0519,10.0173,9.9673,9.9442,9.9481,9.9712,9.9788,9.9596,9.9327,9.9211,9.8711,9.8403,9.8403,9.8557,9.8134,9.8557,9.8788,9.8788,9.8788,9.8904,9.925,9.9288,9.9519,9.9711,9.9865,9.9904,10.0019,10.0327,10.0519,10.0635,10.0904,10.1135,10.125,10.1289,10.1289,10.1289,10.1289,10.1289,10.1289,10.1289,10.1289,10.1289,10.1289,10.1289,10.1289,10.1289,10.1289,10.1289,10.1289,10.1289,10.1289,10.1289,10.1289,10.1289,10.1289,10.1289,10.1289,10.1289,10.1289,10.1289,10.1289,10.1289,10.1289,10.1289,10.1289,10.1289,10.1289,10.1289,10.125,10.0635,9.9904,9.9327,9.875,9.8288,9.7942,9.725,9.7019,9.7096,9.7248,9.7094,9.6977,9.6936,9.6968,9.7104,9.7086,9.6924,9.683,9.6822,9.6822,9.8385,9.91,9.9497,10.0025,10.0716,10.1131,10.1289,10.1289,10.1289,10.1289,10.1289,10.1289,10.1289,10.1289,10.1289,10.1289,10.1289,10.1289,10.1289,10.1212,10.1058,10.0981,10.0866,10.0558,10.0096,9.9788,9.9673,9.9327,9.8981,9.8596,9.8481,9.8404,9.8211,9.8135,9.8366,9.8096,9.7749,9.7479,9.7595,9.7825,9.7288,9.7634,9.7942,9.7904,9.7904,9.8134,9.8288,9.8442,9.8635,9.8865,9.8942,9.8865,9.9057,9.9288,9.9635,9.9904,10.0212,10.0634,10.0903,10.1212,10.1289,10.1289,10.1289,10.1289,10.1289,10.1289,10.1289,10.1289,10.1289,10.1289,10.1289,10.1289,10.1289,10.1289,10.1289,10.1289,10.1289,10.1289,10.1289,10.1289,10.1289,10.1289,10.1289,10.1289,10.1289,10.1289,10.1289,10.1289,10.1289,10.1289,10.1289,10.1289,10.1289,10.1289,10.125,10.0558,9.9942,9.9519,9.8788,9.7788,9.7211,9.6673,9.6365,9.6596,9.6596,9.6365,9.6365,9.6556,9.6586,9.6608,9.6635,9.6661,9.6731,9.6761,9.6753,9.7961,9.8061,9.9158,10.0223,10.1131,10.125,10.1289,10.1289,10.1289,10.1289,10.1289,10.1289,10.1289,10.1289,10.1212,10.1096,10.1058,10.1058,10.1019,10.0789,10.0327,10.0135,9.9865,9.9519,9.9173,9.8904,9.8788,9.8711,9.8519,9.7865,9.7596,9.7365,9.7134,9.698,9.7404,9.6788,9.6403,9.6365,9.6519,9.6519,9.6711,9.6865,9.6942,9.7173,9.7211,9.7633,9.7941,9.8056,9.8326,9.8711,9.8788,9.8711,9.8634,9.8865,9.8942,9.8865,9.9058,9.9519,10.0134,10.0865,10.125,10.1289,10.1289,10.1289,10.1289,10.1289,10.1289,10.1289,10.1289,10.1289,10.1289,10.1289,10.1289,10.1289,10.1289,10.1289,10.1289,10.1289,10.1289,10.1289,10.1289,10.1289,10.1289,10.1289,10.1289,10.1289,10.1289,10.1289,10.1289,10.1289,10.1289,10.1289,10.1289,10.1289,10.1173,10.0519,9.9942,9.9558,9.8981,9.8057,9.748,9.725,9.6903,9.6519,9.648,9.6634,9.648,9.6326,9.6397,9.6467,9.6531,9.6564,9.6629,9.6731,9.6692,9.8091,9.8504,9.9273,10.0025,10.0798,10.1131,10.1289,10.1289,10.1289,10.1289,10.1289,10.1289,10.1289,10.1173,10.0712,10.0481,10.0404,9.975,9.9635,9.9635,9.9365,9.9288,9.9058,9.8827,9.8404,9.8057,9.7904,9.7634,9.7057,9.6865,9.6788,9.6557,9.6519,9.648,9.6596,9.6365,9.6288,9.6288,9.6365,9.6519,9.7019,9.7134,9.7365,9.7827,9.7825,9.7979,9.821,9.821,9.8441,9.8749,9.8788,9.8595,9.8326,9.8365,9.8481,9.8481,9.875,10.0058,10.0673,10.125,10.1289,10.1289,10.1289,10.1289,10.1289,10.1289,10.1289,10.1289,10.1289,10.1289,10.1289,10.1289,10.1289,10.1289,10.1289,10.1289,10.1289,10.1289,10.1289,10.1289,10.1289,10.1289,10.1289,10.1289,10.1289,10.1289,10.1289,10.1289,10.1289,10.1289,10.1289,10.1289,10.1289,10.1289,10.1096,10.0635,10.0327,10.0058,9.9442,9.8634,9.8173,9.7904,9.7596,9.7288,9.7134,9.6942,9.6596,9.6288,9.6288,9.6361,9.6429,9.6531,9.6597,9.6629,9.6629,9.8091,9.8504,9.9273,9.963,9.9879,10.0854,10.1289,10.1289,10.1289,10.1173,10.0904,10.0866,10.0635,10.0327,9.9942,9.9673,9.9596,9.9135,9.8827,9.875,9.8442,9.8404,9.8288,9.8057,9.7519,9.7173,9.7057,9.6788,9.648,9.6326,9.6326,9.6365,9.6288,9.6326,9.6326,9.6326,9.6288,9.6365,9.6557,9.698,9.7442,9.7788,9.8211,9.8519,9.8711,9.8749,9.8749,9.8788,9.8788,9.8827,9.875,9.8596,9.8327,9.8057,9.8288,9.8404,9.9211,10.0289,10.0673,10.1212,10.125,10.1289,10.1289,10.1289,10.1289,10.1289,10.1289,10.1289,10.1289,10.1289,10.1289,10.1289,10.1289,10.1289,10.1289,10.1289,10.1289,10.1289,10.1289,10.1289,10.1289,10.1289,10.1289,10.1289,10.1289,10.1289,10.1289,10.1289,10.1289,10.1289,10.1289,10.1289,10.1289,10.1289,10.1212,10.0981,10.0712,10.0558,9.9942,9.9288,9.9019,9.875,9.8442,9.8019,9.7634,9.7173,9.6596,9.6288,9.6326,9.6363,9.6361,9.6429,9.6564,9.6564,9.6531,9.7817,9.7986,9.9024,9.9,9.8718,10.0267,10.1096,10.1173,10.1135,10.0712,10.0058,10.0058,9.975,9.9019,9.8827,9.875,9.8673,9.8557,9.8442,9.8288,9.775,9.7596,9.725,9.6903,9.6711,9.648,9.6403,9.6519,9.6288,9.6288,9.6288,9.6326,9.648,9.6519,9.6519,9.6673,9.6673,9.6788,9.725,9.7711,9.8173,9.8557,9.8981,9.925,9.9327,9.9288,9.9288,9.925,9.9212,9.9134,9.9019,9.8942,9.8596,9.7981,9.825,9.875,9.9596,10.0058,10.0519,10.1096,10.125,10.1289,10.1289,10.1289,10.1289,10.1289,10.1289,10.1289,10.1289,10.1289,10.1289,10.1289,10.1289,10.1289,10.1289,10.1289,10.1289,10.1289,10.1289,10.1289,10.1289,10.1289,10.1289,10.1289,10.1289,10.1289,10.1289,10.1289,10.1289,10.1289,10.1289,10.1289,10.1289,10.1289,10.1212,10.1096,10.1058,10.0866,10.0635,10.0058,9.9827,9.9596,9.9327,9.8865,9.8096,9.748,9.6942,9.6596,9.6442,9.644,9.6325,9.6397,9.6463,9.6429,9.6394,9.6629,9.6244,9.6929,9.729,9.7679,9.8926,9.9519,9.9519,9.9519,9.9327,9.9173,9.9173,9.8981,9.8788,9.8173,9.7942,9.7673,9.7365,9.7057,9.6903,9.6942,9.6749,9.6557,9.6442,9.6288,9.6288,9.6288,9.6288,9.6288,9.6288,9.6288,9.6326,9.6788,9.7019,9.7364,9.7749,9.7557,9.7596,9.8058,9.8596,9.9058,9.9519,9.9904,10.0212,10.0327,10.0327,10.0366,10.0365,10.0404,10.0442,10.0519,10.0404,9.9673,9.8942,9.8673,9.8827,9.9634,10.0327,10.0866,10.1173,10.1289,10.1289,10.1289,10.1289,10.1289,10.1289,10.1289,10.1289,10.1289,10.1289,10.1289,10.1289,10.1289,10.1289,10.1289,10.1289,10.1289,10.1289,10.1289,10.1289,10.1289,10.1289,10.1289,10.1289,10.1289,10.1289,10.1289,10.1289,10.1289,10.1289,10.1289,10.1289,10.1289,10.1289,10.1289,10.1212,10.125,10.1212,10.0943,10.0789,10.0712,10.0481,10.0212,9.9673,9.8865,9.8096,9.7365,9.7173,9.7096,9.648,9.6363,9.6361,9.6397,9.6361,9.6322,9.6146,9.5574,9.6069,9.6573,9.7056,9.7897,9.8134,9.798,9.8481,9.8634,9.8288,9.8288,9.8288,9.8134,9.7442,9.7173,9.748,9.6826,9.6442,9.648,9.6288,9.6326,9.6288,9.6288,9.6288,9.6288,9.6288,9.6288,9.6326,9.6365,9.6365,9.6865,9.7364,9.771,9.8133,9.8711,9.8981,9.8865,9.9058,9.9596,9.9981,10.0404,10.0904,10.1173,10.1289,10.1289,10.1289,10.1289,10.1289,10.1289,10.1289,10.1135,10.0557,10.0058,9.9519,9.9673,10.0173,10.075,10.1173,10.125,10.1289,10.1289,10.1289,10.1289,10.1289,10.1289,10.1289,10.1289,10.1289,10.1289,10.1289,10.1289,10.1289,10.1289,10.1289,10.1289,10.1289,10.1289,10.1289,10.1289,10.1289,10.1289,10.1289,10.1289,10.1289,10.1289,10.1289,10.1289,10.1289,10.1289,10.1289,10.1289,10.1289,10.1289,10.1289,10.1289,10.1289,10.1289,10.1212,10.1135,10.1289,10.1135,10.0673,10.0173,9.9635,9.8904,9.8173,9.8019,9.7865,9.7211,9.6711,9.6671,9.6594,9.6325,9.6325,9.5923,9.521,9.5943,9.6226,9.6585,9.7133,9.7057,9.648,9.7865,9.8134,9.748,9.7403,9.7403,9.7288,9.6749,9.6826,9.6942,9.6557,9.6288,9.6288,9.6288,9.6288,9.6288,9.6288,9.6288,9.6288,9.6326,9.6403,9.6442,9.6596,9.698,9.7557,9.7864,9.8287,9.898,9.975,10.0019,10.0019,10.0019,10.0289,10.0442,10.0866,10.1289,10.1289,10.1289,10.1289,10.1289,10.1289,10.1289,10.1289,10.1289,10.1289,10.0981,10.1058,10.0635,10.0519,10.0712,10.1019,10.125,10.1289,10.1289,10.1289,10.1289,10.1289,10.1289,10.1289,10.1289,10.1289,10.1289,10.1289,10.1289,10.1289,10.1289,10.1289,10.1289,10.1289,10.1289,10.1289,10.1289,10.1289,10.1289,10.1289,10.1289,10.1289,10.1289,10.1289,10.1289,10.1289,10.1289,10.1289,10.1289,10.1289,10.1289,10.1289,10.1289,10.1289,10.1289,10.1289,10.1289,10.1289,10.1289,10.1173,10.1019,10.0635,10.0289,9.975,9.9173,9.8981,9.8596,9.7942,9.748,9.7173,9.6903,9.6634,9.6365,9.4325,9.3677,9.4594,9.5058,9.5246,9.6169,9.6519,9.6326,9.6673,9.6865,9.6634,9.6596,9.6673,9.6711,9.648,9.6557,9.6557,9.6519,9.6326,9.6288,9.6288,9.6288,9.6288,9.6288,9.6288,9.6288,9.6365,9.6634,9.698,9.725,9.7634,9.8481,9.8903,9.9442,9.9788,10.0558,10.0865,10.0827,10.0904,10.0866,10.0981,10.1058,10.1289,10.1289,10.1289,10.1289,10.1289,10.1289,10.1289,10.1289,10.1289,10.0981,10.0404,10.0981,10.0827,10.0442,10.0866,10.1173,10.1289,10.1289,10.1289,10.1289,10.1289,10.1289,10.1289,10.1289,10.1289,10.1289,10.1289,10.1289,10.1289,10.1289,10.1289,10.1289,10.1289,10.1289,10.1289,10.1289,10.1289,10.1289,10.1289,10.1289,10.1289,10.1289,10.1289,10.1289,10.1289,10.1289,10.1289,10.1289,10.1289,10.1289,10.1289,10.1289,10.1289,10.1289,10.1289,10.1289,10.1289,10.1289,10.1289,10.1212,10.1135,10.1173,10.0943,10.0404,10.0019,9.9865,9.9404,9.875,9.8404,9.8134,9.7634,9.7326,9.6865,9.3731,9.3184,9.416,9.4756,9.5172,9.6286,9.6634,9.6403,9.6673,9.6634,9.6326,9.6326,9.648,9.6634,9.6519,9.6557,9.6596,9.6403,9.6326,9.6288,9.6288,9.6288,9.6288,9.6326,9.6288,9.6326,9.6749,9.7134,9.7596,9.8019,9.8519,9.9288,9.9981,10.0288,10.0558,10.1096,10.1289,10.1289,10.1289,10.1289,10.1289,10.1289,10.1289,10.1289,10.1289,10.1289,10.1289,10.1289,10.1289,10.1289,10.1289,10.1212,10.0904,10.1135,10.1058,10.0904,10.1058,10.1289,10.1289,10.1289,10.1289,10.1289,10.1289,10.1289,10.1289,10.1289,10.1289,10.1289,10.1289,10.1289,10.1289,10.1289,10.1289,10.1289,10.1289,10.1289,10.1289,10.1289,10.1289,10.1289,10.1289,10.1289,10.1289,10.1289,10.1289,10.1289,10.1289,10.1289,10.1289,10.1289,10.1289,10.1289,10.1289,10.1289,10.1289,10.1289,10.1289,10.1289,10.1289,10.1289,10.1289,10.1289,10.1289,10.125,10.1212,10.1058,10.075,10.0558,10.0173,9.9558,9.9288,9.9096,9.8557,9.8019,9.7634,9.3648,9.3275,9.4215,9.4904,9.5566,9.675,9.6903,9.648,9.698,9.6942,9.6365,9.6288,9.6749,9.6865,9.6711,9.698,9.6942,9.648,9.6326,9.6288,9.6288,9.648,9.6519,9.6403,9.6442,9.6826,9.7326,9.775,9.8173,9.8673,9.9327,10.0058,10.0366,10.0596,10.1096,10.1289,10.1289,10.1289,10.1289,10.1289,10.1289,10.1289,10.1289,10.1289,10.1289,10.1289,10.1289,10.1289,10.1289,10.1289,10.1289,10.125,10.1212,10.125,10.125,10.1173,10.1173,10.1289,10.1289,10.1289,10.1289,10.1289,10.1289,10.1289,10.1289,10.1289,10.1289,10.1289,10.1289,10.1289,10.1289,10.1289,10.1289,10.1289,10.1289,10.1289,10.1289,10.1289,10.1289,10.1289,10.1289,10.1289,10.1289,10.1289,10.1289,10.1289,10.1289,10.1289,10.1289,10.1289,10.1289,10.1289,10.1289,10.1289,10.1289,10.1289,10.1289,10.1289,10.1289,10.1289,10.1289,10.1289,10.1289,10.1289,10.125,10.1212,10.1212,10.1058,10.0673,10.025,10.0212,9.9981,9.9365,9.8865,9.8481,9.3386,9.368,9.4341,9.4904,9.549,9.6212,9.6442,9.6326,9.648,9.6403,9.6326,9.6288,9.6442,9.6557,9.6403,9.6519,9.6596,9.6365,9.6326,9.6288,9.6288,9.6711,9.6903,9.6634,9.6788,9.7365,9.8134,9.8865,9.9058,9.9558,10.0212,10.0943,10.1019,10.1096,10.1173,10.1289,10.1289,10.1289,10.1289,10.1289,10.1289,10.1289,10.1289,10.1289,10.1289,10.1289,10.1289,10.1289,10.1289,10.1289,10.1289,10.1289,10.1289,10.1289,10.1289,10.1289,10.1289,10.1289,10.1289,10.1289,10.1289,10.1289,10.1289,10.1289,10.1289,10.1289,10.1289,10.1289,10.1289,10.1289,10.1289,10.1289,10.1289,10.1289,10.1289,10.1289,10.1289,10.1289,10.1289,10.1289,10.1289,10.1289,10.1289,10.1289,10.1289,10.1289,10.1289,10.1289,10.1289,10.1289,10.1289,10.1289,10.1289,10.1289,10.1289,10.1289,10.1289,10.1289,10.1289,10.1289,10.1289,10.1289,10.1289,10.1289,10.1289,10.125,10.1289,10.1289,10.1212,10.0866,10.1019,10.0827,10.0212,9.9712,9.9365]},{"header":{"parameterUnit":"m.s-1","parameterCategory":1,"la1":31.0,"la2":29.5877,"lo1":-88.7671,"lo2":-86.6584,"dx":0.0162,"dy":0.0185,"nx":115,"ny":88,"refTime":"2022-12-22T06:00:00:Z","depth":0,"parameterNumber":3,"parameterNumberName":"V-component_of_WINDS"},"data":[0.0,0.0,0.0,0.0,0.0,0.0,0.0,0.0,0.0,0.0,0.0,0.0,0.0,0.0,0.0,0.0,0.0,0.0,0.0,0.0,0.0,0.0,0.0,0.0,0.0,0.0,0.0,0.0,0.0,0.0,0.0,0.0,0.0,0.0,0.0,0.0,0.0,0.0,0.0,0.0,0.0,0.0,0.0,0.0,0.0,0.0,0.0,0.0,0.0,0.0,0.0,0.0,0.0,0.0,0.0,0.0,0.0,0.0,0.0,0.0,0.0,0.0,0.0,0.0,0.0,0.0,0.0,0.0,0.0,0.0,0.0,0.0,0.0,0.0,0.0,0.0,0.0,0.0,0.0,0.0,0.0,0.0,0.0,0.0,0.0,0.0,0.0,0.0,0.0,0.0,0.0,0.0,0.0,0.0,0.0,0.0,0.0,0.0,0.0,0.0,0.0,0.0,0.0,0.0,0.0,0.0,0.0,0.0,0.0,0.0,0.0,0.0,0.0,0.0,0.0,0.0,0.0,0.0,0.0,0.0,0.0,0.0,0.0,0.0,0.0,0.0,0.0,0.0,0.0,0.0,0.0,0.0,0.0,0.0,0.0,0.0,0.0,0.0,0.0,0.0,0.0,0.0,0.0,0.0,0.0,0.0,0.0,0.0,0.0,0.0,0.0,0.0,0.0,0.0,0.0,0.0,0.0,0.0,0.0,0.0,0.0,0.0,0.0,0.0,0.0,0.0,0.0,0.0,0.0,0.0,0.0,0.0,0.0,0.0,0.0,0.0,0.0,0.0,0.0,0.0,0.0,0.0,0.0,0.0,0.0,0.0,0.0,0.0,0.0,0.0,0.0,0.0,0.0,0.0,0.0,0.0,0.0,0.0,0.0,0.0,0.0,0.0,0.0,0.0,0.0,0.0,0.0,0.0,0.0,0.0,0.0,0.0,0.0,0.0,0.0,0.0,0.0,0.0,0.0,0.0,0.0,0.0,0.0,0.0,0.0,0.0,0.0,0.0,0.0,0.0,0.0,0.0,0.0,0.0,0.0,0.0,0.0,0.0,0.0,0.0,0.0,0.0,0.0,0.0,0.0,0.0,0.0,0.0,0.0,0.0,0.0,0.0,0.0,0.0,0.0,0.0,0.0,0.0,0.0,0.0,0.0,0.0,0.0,0.0,0.0,0.0,0.0,0.0,0.0,0.0,0.0,0.0,0.0,0.0,0.0,0.0,0.0,0.0,0.0,0.0,0.0,0.0,0.0,0.0,0.0,0.0,0.0,0.0,0.0,0.0,0.0,0.0,0.0,0.0,0.0,0.0,0.0,0.0,0.0,0.0,0.0,0.0,0.0,0.0,0.0,0.0,0.0,0.0,0.0,0.0,0.0,0.0,0.0,0.0,0.0,0.0,0.0,0.0,0.0,0.0,0.0,0.0,0.0,0.0,0.0,0.0,0.0,0.0,0.0,0.0,0.0,0.0,0.0,0.0,0.0,0.0,0.0,0.0,0.0,0.0,0.0,0.0,0.0,0.0,0.0,0.0,0.0,0.0,0.0,0.0,0.0,0.0,0.0,0.0,0.0,0.0,0.0,0.0,0.0,0.0,0.0,0.0,0.0,0.0,0.0,0.0,0.0,0.0,0.0,0.0,0.0,0.0,0.0,0.0,0.0,0.0,0.0,0.0,0.0,0.0,0.0,0.0,0.0,0.0,0.0,0.0,0.0,0.0,0.0,0.0,0.0,0.0,0.0,0.0,0.0,0.0,0.0,0.0,0.0,0.0,0.0,0.0,0.0,0.0,0.0,0.0,0.0,0.0,0.0,0.0,0.0,0.0,0.0,0.0,0.0,0.0,0.0,0.0,0.0,0.0,0.0,0.0,0.0,0.0,0.0,0.0,0.0,0.0,0.0,0.0,0.0,0.0,0.0,0.0,0.0,0.0,0.0,0.0,0.0,0.0,0.0,0.0,0.0,0.0,0.0,0.0,0.0,0.0,0.0,0.0,0.0,0.0,0.0,0.0,0.0,0.0,0.0,0.0,0.0,0.0,0.0,0.0,0.0,0.0,0.0,0.0,0.0,0.0,0.0,0.0,0.0,0.0,0.0,0.0,0.0,0.0,0.0,0.0,0.0,0.0,0.0,0.0,0.0,0.0,0.0,0.0,0.0,0.0,0.0,0.0,0.0,0.0,0.0,0.0,0.0,0.0,0.0,0.0,0.0,0.0,0.0,0.0,0.0,0.0,0.0,0.0,0.0,0.0,0.0,0.0,0.0,0.0,0.0,0.0,0.0,0.0,0.0,0.0,0.0,0.0,0.0,0.0,0.0,0.0,0.0,0.0,0.0,0.0,0.0,0.0,0.0,0.0,0.0,0.0,0.0,0.0,0.0,0.0,0.0,0.0,0.0,0.0,0.0,0.0,0.0,0.0,0.0,0.0,0.0,0.0,0.0,0.0,0.0,0.0,0.0,0.0,0.0,0.0,0.0,0.0,0.0,0.0,0.0,0.0,0.0,0.0,0.0,0.0,0.0,0.0,0.0,0.0,0.0,0.0,0.0,0.0,0.0,0.0,0.0,0.0,0.0,0.0,0.0,0.0,0.0,0.0,0.0,0.0,0.0,0.0,0.0,0.0,0.0,0.0,0.0,0.0,0.0,0.0,0.0,0.0,0.0,0.0,0.0,0.0,0.0,0.0,0.0,0.0,0.0,0.0,0.0,0.0,0.0,0.0,0.0,0.0,0.0,0.0,0.0,0.0,0.0,0.0,0.0,0.0,0.0,0.0,0.0,0.0,0.0,0.0,0.0,0.0,0.0,0.0,0.0,0.0,0.0,0.0,0.0,0.0,0.0,0.0,0.0,0.0,0.0,0.0,0.0,0.0,0.0,0.0,0.0,0.0,0.0,0.0,0.0,0.0,0.0,0.0,0.0,0.0,0.0,0.0,0.0,0.0,0.0,0.0,0.0,0.0,0.0,0.0,0.0,0.0,0.0,0.0,0.0,0.0,0.0,0.0,0.0,0.0,0.0,0.0,0.0,0.0,0.0,0.0,0.0,0.0,0.0,0.0,0.0,0.0,0.0,0.0,0.0,0.0,0.0,0.0,0.0,0.0,0.0,0.0,0.0,0.0,0.0,0.0,0.0,0.0,0.0,0.0,0.0,0.0,0.0,0.0,0.0,0.0,0.0,0.0,0.0,0.0,0.0,0.0,0.0,0.0,0.0,0.0,0.0,0.0,0.0,0.0,0.0,0.0,0.0,0.0,0.0,0.0,0.0,0.0,0.0,0.0,0.0,0.0,0.0,0.0,0.0,0.0,0.0,0.0,0.0,0.0,0.0,0.0,0.0,0.0,0.0,0.0,0.0,0.0,0.0,0.0,0.0,0.0,0.0,0.0,0.0,0.0,0.0,0.0,0.0,0.0,0.0,0.0,0.0,0.0,0.0,0.0,0.0,0.0,0.0,0.0,0.0,0.0,0.0,0.0,0.0,0.0,0.0,0.0,0.0,0.0,0.0,0.0,0.0,0.0,0.0,0.0,0.0,0.0,0.0,0.0,0.0,0.0,0.0,0.0,0.0,0.0,0.0,0.0,0.0,0.0,0.0,0.0,0.0,0.0,0.0,0.0,0.0,0.0,0.0,0.0,0.0,0.0,0.0,0.0,0.0,0.0,0.0,0.0,0.0,0.0,0.0,0.0,0.0,0.0,0.0,0.0,0.0,0.0,0.0,0.0,0.0,0.0,0.0,0.0,0.0,0.0,0.0,0.0,0.0,0.0,0.0,0.0,0.0,0.0,0.0,0.0,0.0,0.0,0.0,0.0,0.0,0.0,0.0,0.0,0.0,0.0,0.0,0.0,0.0,0.0,0.0,0.0,0.0,0.0,0.0,0.0,0.0,0.0,0.0,0.0,0.0,0.0,0.0,0.0,0.0,0.0,0.0,0.0,0.0,0.0,0.0,0.0,0.0,0.0,0.0,0.0,0.0,0.0,0.0,0.0,0.0,0.0,0.0,0.0,0.0,0.0,0.0,0.0,0.0,0.0,0.0,0.0,0.0,0.0,0.0,0.0,0.0,0.0,0.0,0.0,0.0,0.0,0.0,0.0,0.0,0.0,0.0,0.0,0.0,0.0,0.0,0.0,0.0,0.0,0.0,0.0,0.0,0.0,0.0,0.0,0.0,0.0,0.0,0.0,0.0,0.0,0.0,0.0,0.0,0.0,0.0,0.0,0.0,0.0,0.0,0.0,0.0,0.0,0.0,0.0,0.0,0.0,-0.137,0.0,0.0,0.0,-0.1305,0.0,0.0,0.0,0.0,0.0,0.0,0.0,0.0,0.0,0.0,0.0,0.0,0.0,0.0,0.0,0.0,0.0,0.0,0.0,0.0,0.0,0.0,0.0,0.0,0.0,0.0,0.0,0.0,0.0,0.0,0.0,0.0,0.0,0.0,0.0,0.0,0.0,0.0,0.0,0.0,0.0,0.0,0.0,0.0,0.0,0.0,0.0,0.0,0.0,0.0,0.0,0.0,0.0,0.0,0.0,0.0,0.0,0.0,0.0,0.0,0.0,0.0,0.0,0.0,0.0,0.0,0.0,0.0,0.0,0.0,0.0,0.0,0.0,0.0,0.0,0.0,0.0,0.0,0.0,0.0,0.0,0.0,0.0,0.0,0.0,0.0,0.0,0.0,0.0,0.0,0.0,0.0,0.0,0.0,0.0,0.0,0.0,0.0,0.0,0.0,0.0,0.0,0.0,0.0,0.0,0.0,0.0,0.0,0.0,0.0,-0.14,-0.1373,-0.14,-0.138,-0.1306,0.0,0.0,0.0,0.0,0.0,0.0,0.0,0.0,0.0,0.0,0.0,0.0,0.0,0.0,0.0,0.0,0.0,0.0,0.0,0.0,0.0,0.0,0.0,0.0,0.0,0.0,0.0,0.0,0.0,0.0,0.0,0.0,0.0,0.0,0.0,0.0,0.0,0.0,0.0,0.0,0.0,0.0,0.0,0.0,0.0,0.0,0.0,0.0,0.0,0.0,0.0,0.0,0.0,0.0,0.0,0.0,0.0,0.0,0.0,0.0,0.0,0.0,0.0,0.0,0.0,0.0,0.0,0.0,0.0,0.0,0.0,0.0,0.0,0.0,0.0,0.0,0.0,0.0,0.0,0.0,0.0,0.0,0.0,0.0,0.0,0.0,0.0,0.0,0.0,0.0,0.0,0.0,0.0,0.0,0.0,0.0,0.0,0.0,0.0,0.0,0.0,0.0,0.0,0.0,0.0,0.0,0.0,0.0,0.0,0.0,0.0,0.0,-0.1426,-0.1396,-0.1317,0.0,0.0,0.0,0.0,0.0,0.0,0.0,0.0,0.0,0.0,0.0,0.0,0.0,0.0,0.0,0.0,0.0,0.0,0.0,0.0,0.0,0.0,0.0,0.0,0.0,0.0,0.0,0.0,0.0,0.0,0.0,0.0,0.0,0.0,0.0,0.0,0.0,0.0,0.0,0.0,0.0,0.0,0.0,0.0,0.0,0.0,0.0,0.0,0.0,0.0,0.0,0.0,0.0,0.0,0.0,0.0,0.0,0.0,0.0,0.0,0.0,0.0,0.0,0.0,0.0,0.0,0.0,0.0,0.0,0.0,0.0,0.0,0.0,0.0,0.0,0.0,0.0,0.0,0.0,0.0,0.0,0.0,0.0,0.0,0.0,0.0,0.0,0.0,0.0,0.0,0.0,0.0,0.0,0.0,0.0,0.0,0.0,0.0,0.0,0.0,0.0,0.0,0.0,0.0,0.0,0.0,0.0,0.0,0.0,0.0,-0.1448,-0.1471,-0.1538,0.0,-0.1351,0.0,0.0,0.0,0.0,0.0,0.0,0.0,0.0,0.0,0.0,0.0,0.0,0.0,0.0,0.0,0.0,0.0,0.0,0.0,0.0,0.0,0.0,0.0,0.0,0.0,0.0,0.0,0.0,0.0,0.0,0.0,0.0,0.0,0.0,0.0,0.0,0.0,0.0,0.0,0.0,0.0,0.0,0.0,0.0,0.0,0.0,0.0,0.0,0.0,0.0,0.0,0.0,0.0,0.0,0.0,0.0,0.0,0.0,0.0,0.0,0.0,0.0,0.0,0.0,0.0,0.0,0.0,0.0,0.0,0.0,0.0,0.0,0.0,0.0,0.0,0.0,0.0,0.0,0.0,0.0,0.0,0.0,0.0,0.0,0.0,0.0,0.0,0.0,0.0,0.0,0.0,0.0,0.0,0.0,0.0,0.0,0.0,0.0,0.0,0.0,0.0,0.0,0.0,0.0,0.0,0.0,0.0,0.0,0.0,0.0,-0.1307,-0.1036,-0.1293,-0.1434,0.0,0.0,0.0,0.0,0.0,0.0,0.0,0.0,0.0,0.0,0.0,0.0,0.0,0.0,0.0,0.0,0.0,0.0,0.0,0.0,0.0,0.0,0.0,0.0,0.0,0.0,0.0,0.0,0.0,0.0,0.0,0.0,0.0,0.0,0.0,0.0,0.0,0.0,0.0,0.0,0.0,0.0,0.0,0.0,0.0,0.0,0.0,0.0,0.0,0.0,0.0,0.0,0.0,0.0,0.0,0.0,0.0,0.0,0.0,0.0,0.0,0.0,0.0,0.0,0.0,0.0,0.0,0.0,0.0,0.0,0.0,0.0,0.0,0.0,0.0,0.0,0.0,0.0,0.0,0.0,0.0,0.0,0.0,0.0,0.0,0.0,0.0,0.0,0.0,0.0,0.0,0.0,0.0,0.0,0.0,0.0,0.0,0.0,0.0,0.0,0.0,0.0,0.0,0.0,0.0,0.0,0.0,0.0,0.0,0.0,-0.1043,-0.1043,-0.0572,-0.1135,-0.1385,-0.1509,0.0,0.0,0.0,0.0,0.0,0.0,0.0,0.0,0.0,0.0,0.0,0.0,0.0,0.0,0.0,0.0,0.0,0.0,0.0,0.0,0.0,0.0,0.0,0.0,0.0,0.0,0.0,0.0,0.0,0.0,0.0,0.0,0.0,0.0,0.0,0.0,0.0,0.0,0.0,0.0,0.0,0.0,0.0,0.0,0.0,0.0,0.0,0.0,0.0,0.0,0.0,0.0,0.0,0.0,0.0,0.0,0.0,0.0,0.0,0.0,0.0,0.0,0.0,0.0,0.0,0.0,0.0,0.0,0.0,0.0,0.0,0.0,0.0,0.0,0.0,0.0,0.0,0.0,0.0,0.0,0.0,0.0,0.0,0.0,0.0,0.0,0.0,0.0,0.0,0.0,0.0,0.0,0.0,0.0,0.0,0.0,0.0,0.0,0.0,0.0,0.0,0.0,0.0,0.0,0.0,0.0,0.0,0.0,-0.0095,-0.0562,-0.0561,-0.0095,-0.0971,-0.1443,0.0,0.0,0.0,0.0,0.0,0.0,0.0,0.0,0.0,0.0,0.0,0.0,0.0,0.0,0.0,0.0,0.0,0.0,0.0,0.0,0.0,0.0,0.0,0.0,0.0,0.0,0.0,0.0,0.0,0.0,0.0,0.0,0.0,0.0,0.0,0.0,0.0,0.0,0.0,0.0,0.0,0.0,0.0,0.0,0.0,0.0,0.0,0.0,0.0,0.0,0.0,0.0,0.0,0.0,0.0,0.0,0.0,0.0,0.0,0.0,0.0,0.0,0.0,0.0,0.0,0.0,0.0,0.0,0.0,0.0,0.0,0.0,0.0,0.0,0.0,0.0,0.0,0.0,0.0,0.0,0.0,0.0,0.0,0.0,0.0,0.0,0.0,0.0,0.0,0.0,0.0,0.0,0.0,0.0,0.0,0.0,0.0,0.0,0.0,0.0,0.0,0.0,0.0,0.0,0.0,0.0,0.0,0.0,0.0,0.0,-0.0194,-0.0194,-0.0,-0.0296,-0.0485,0.0,0.0,0.0,0.0,0.0,0.0,0.0,0.0,0.0,0.0,0.0,0.0,0.0,0.0,0.0,0.0,0.0,0.0,0.0,0.0,0.0,0.0,0.0,0.0,0.0,0.0,0.0,0.0,0.0,0.0,0.0,0.0,0.0,0.0,0.0,0.0,0.0,0.0,0.0,0.0,0.0,0.0,0.0,0.0,0.0,0.0,0.0,0.0,0.0,0.0,0.0,0.0,0.0,0.0,0.0,0.0,0.0,0.0,0.0,0.0,0.0,0.0,0.0,0.0,0.0,0.0,0.0,0.0,0.0,0.0,0.0,0.0,0.0,0.0,0.0,0.0,0.0,0.0,0.0,0.0,0.0,0.0,0.0,0.0,0.0,0.0,0.0,0.0,0.0,0.0,0.0,0.0,0.0,0.0,0.0,0.0,0.0,0.0,0.0,0.0,0.0,0.0,0.0,0.0,0.0,0.0,0.0,0.0,0.0,0.0,0.0,0.0,0.0,0.0,0.0,0.0,0.0,0.0,0.0,0.0,0.0,0.0,0.0,0.0,0.0,0.0,0.0,0.0,0.0,0.0,0.0,0.0,0.0,0.0,0.0,0.0,0.0,0.0,0.0,0.0,0.0,0.0,0.0,0.0,0.0,0.0,0.0,0.0,0.0,0.0,0.0,0.0,0.0,0.0,0.0,0.0,0.0,0.0,0.0,0.0,0.0,0.0,0.0,0.0,0.0,0.0,0.0,0.0,0.0,0.0,0.0,0.0,0.0,0.0,0.0,0.0,0.0,0.0,0.0,0.0,0.0,0.0,0.0,0.0,0.0,0.0,0.0,0.0,0.0,0.0,0.0,0.0,0.0,0.0,0.0,0.0,0.0,0.0,0.0,0.0,0.0,0.0,0.0,0.0,0.0,0.0,0.0,0.0,0.0,0.0,0.0,0.0,0.0,0.0,0.0,0.0,0.0,0.0,0.0,0.0,0.0,0.0,0.0,0.0,0.0,0.0,0.0,0.0,0.0,0.0,0.0,0.0,0.0,0.0,0.0,0.0,0.0,0.0,0.0,0.0,0.0,0.0,0.0,0.0,0.0,0.0,0.0,0.0,0.0,0.0,0.0,0.0,0.0,0.0,0.0,0.0,0.0,0.0,0.0,0.0,0.0,0.0,0.0,0.0,0.0,0.0,0.0,0.0,0.0,0.0,0.0,0.0,0.0,0.0,0.0,0.0,0.0,0.0,0.0,0.0,0.0,0.0,0.0,0.0,0.0,0.0,0.0,0.0,0.0,0.0,0.0,0.0,0.0,0.0,0.0,0.0,0.0,0.0,0.0,0.0,0.0,0.0,0.0,0.0,0.0,0.0,0.0,0.0,0.0,0.0,0.0,0.0,0.0,0.0,0.0,0.0,0.0,0.0,0.0,0.0,0.0,0.0,0.0,0.0,0.0,0.0,0.0,0.0,0.0,0.0,0.0,0.0,0.0,0.0,0.0,0.0,0.0,0.0,0.0,0.0,0.0,0.0,0.0,0.0,0.0,0.0,0.0,0.0,0.0,0.0,0.0,0.0,0.0,0.0,0.0,0.0,0.0,0.0,0.0,0.0,0.0,0.0,0.0,0.0,0.0,0.0,0.0,0.0,0.0,0.0,0.0,0.0,0.0,0.0,0.0,0.0,0.0,0.0,0.0,0.0,0.0,0.0,0.0,0.0,0.0,0.0,0.0,0.0,0.0,0.0,0.0,0.0,0.0,0.0,0.0,0.0,0.0,0.0,0.0,0.0,0.0,0.0,0.0,0.0,0.0,0.0,0.0,0.0,0.0,0.0,0.0,0.0,0.0,0.0,0.0,0.0,0.0,0.0,0.0,0.0,0.0,0.0,0.0,0.0,0.0,0.0,0.0,0.0,0.0,0.0,0.0,0.0,0.0,0.0,0.0,0.0,0.0,0.0,0.0,0.0,0.0,0.0,0.0,0.0,0.0,0.0,0.0,0.0,0.0,0.0,0.0,0.0,0.0,0.0,0.0,0.0,0.0,0.0,0.0,0.0,0.0,0.0,0.0,0.0,0.0,0.0,0.0,0.0,0.0,0.0,0.0,0.0,0.0,0.0,0.0,0.0,0.0,0.0,0.0,0.0,0.0,0.0,0.0,0.0,0.0,0.0,0.0,0.0,0.0,0.0,0.0,0.0,0.0,0.0,0.0,0.0,0.0,0.0,0.0,0.0,0.0,0.0,0.0,0.0,0.0,0.0,0.0,0.0,0.0,0.0,0.0,0.0,0.0,0.0,0.0,0.0,0.0,0.0,0.0,0.0,0.0,0.0,0.0,0.0,0.0,0.0,0.0,0.0,0.0,0.0,0.0,0.0,0.0,0.0,0.0,0.0,0.0,0.0,0.0,0.0,0.0,0.0,0.0,0.0,0.0,0.0,0.0,0.0,0.0,0.0,0.0,0.0,0.0,0.0,0.0,0.0,0.0,0.0,0.0,0.0,0.0,0.0,0.0,0.0,0.0,0.0,0.0,0.0,0.0,0.0,0.0,0.0,0.0,0.0,0.0,0.0,0.0,0.0,0.0,0.0,0.0,0.0,0.0,0.0,0.0,0.0,0.0,0.0,0.0,0.0,0.0,0.0,0.0,0.0,0.0,0.0,0.0,0.0,0.0,0.0,0.0,0.0,0.0,0.0,0.0,0.0,0.0,0.0,0.0,0.0,0.0,0.0,0.0,0.0,0.0,0.0,0.0,0.0,0.0,0.0,0.0,0.0,0.0,0.0,0.0,0.0,0.0,0.0,0.0,0.0,0.0,0.0,0.0,0.0,0.0,0.0,0.0,0.0,0.0,0.0,0.0,0.0,0.0,0.0,0.0,0.0,0.0,0.0,0.0,0.0,0.0,0.0,0.0,0.0,0.0,0.0,0.0,0.0,0.0,0.0,0.0,0.0,0.0,0.0,0.0,0.0,0.0,0.0,0.0,0.0,0.0,0.0,0.0,0.0,0.0,0.0,0.0,0.0,0.0,0.0,0.0,0.0,0.0,0.0,0.0,0.0,0.0,0.0,0.0,0.0,0.0,0.0,0.0,0.0,0.0,0.0,0.0,0.0,0.0,0.0,0.0,0.0,0.0,0.0,0.0,0.0,0.0,0.0,0.0,0.0,0.0,0.0,0.0,0.0,0.0,0.0,0.0,0.0,0.0,0.0,0.0,0.0,0.0,0.0,0.0,0.0,0.0,0.0,0.0,0.0,0.0,0.0,0.0,0.0,0.0,0.0,0.0,0.0,0.0,0.0,0.0,0.0,0.0,0.0,0.0,0.0,0.0,0.0,0.0,0.0,0.0,0.0,0.0,0.0,0.0,0.0,0.0,0.0,0.0,0.0,0.0,0.0,0.0,0.0,0.0,0.0,0.0,0.0,0.0,0.0,0.0,0.0,0.0,0.0,0.0,0.0,0.0,0.0,0.0,0.0,0.0,0.0,0.0,0.0,0.0,0.0,0.0,0.0,0.0,0.0,0.0,0.0,0.0,0.0,0.0,0.0,0.0,0.0,0.0,0.0,0.0,0.0,0.0,0.0,0.0,0.0,0.0,0.0,0.0,0.0,0.0,0.0,0.0,0.0,0.0,0.0,0.0,0.0,0.0,0.0,0.0,0.0,0.0,0.0,0.0,0.0,0.0,0.0,0.0,0.0,0.0,0.0,0.0,0.0,0.0,0.0,0.0,0.0,0.0,0.0,0.0,0.0,0.0,0.0,0.0,0.0,0.0,0.0,0.0,0.0,0.0,0.0,0.0,0.0,0.0,0.0,0.0,0.0,0.0,0.0,0.0,0.0,0.0,0.0,0.0,0.0,0.0,0.0,0.0,0.0,0.0,0.0,0.0,0.0,0.0,0.0,0.0,0.0,0.0,0.0,0.0,0.0,0.0,0.0,0.0,0.0,0.0,0.0,0.0,0.0,0.0,0.0,0.0,0.0,0.0,0.0,0.0,0.0,0.0,0.0,0.0,0.0,0.0,0.0,0.0,0.0,0.0,0.0,0.0,0.0,0.0,0.0,0.0,0.0,0.0,0.0,0.0,0.0,0.0,0.0,0.0,0.0,0.0,0.0,0.0,0.0,0.0,0.0,0.0,0.0,0.0,0.0,0.0,0.0,0.0,0.0,0.0,0.0,0.0,0.0,0.0,0.0,0.0,0.0,0.0,0.0,0.0,0.0,0.0,0.0,0.0,0.0,0.0,0.0,0.0,0.0,0.0,0.0,0.0,0.0,0.0,0.0,0.0,0.0,0.0,0.0,0.0,0.0,0.0,0.0,0.0,0.0,0.0,0.0,0.0,0.0,0.0,0.0,0.0,0.0,0.0,0.0,0.0,0.0,0.0,0.0,0.0,0.0,0.0,0.0,0.0,0.0,0.0,0.0,0.0,0.0,0.0,0.0,0.0,0.0,0.0,0.0,0.0,0.0,0.0,0.0,0.0,0.0,0.0,0.0,0.0,0.0,0.0,0.0,0.0,0.0,0.0,0.0,0.0,0.0,0.0,0.0,0.0,0.0,0.0,0.0,0.0,0.0,0.0,0.0,0.0,0.0,0.0,0.0,0.0,0.0,0.0,0.0,0.0,0.0,0.0,0.0,0.0,0.0,0.0,0.0,0.0,0.0,0.0,0.0,0.0,0.0,0.0,0.0,0.0,0.0,0.0,0.0,0.0,0.0,0.0,0.0,0.0,0.0,0.0,0.0,0.0,0.0,0.0,0.0,0.0,0.0,0.0,0.0,0.0,0.0,0.0,0.0,0.0,0.0,0.0,0.0,0.0,-0.1831,0.0,0.0,0.0,0.0,0.0,0.0,0.0,0.0,0.0,0.0,0.0,0.0,0.0,0.0,0.0,0.0,0.0,0.0,0.0,0.0,0.0,0.0,0.0,0.0,0.0,0.0,0.0,0.0,0.0,0.0,0.0,0.0,0.0,0.0,0.0,0.0,0.0,0.0,0.0,0.0,0.0,0.0,0.0,0.0,0.0,0.0,0.0,0.0,0.0,0.0,0.0,0.0,0.0,0.0,0.0,0.0,0.0,0.0,0.0,0.0,0.0,0.0,0.0,0.0,0.0,0.0,0.0,0.0,0.0,0.0,0.0,0.0,0.0,0.0,0.0,0.0,0.0,0.0,0.0,0.0,0.0,0.0,0.0,0.0,0.0,0.0,0.0,0.0,0.0,0.0,0.0,0.0,0.0,0.0,0.0,0.0,0.0,0.0,0.0,0.0,0.0,0.0,0.0,0.0,0.0,0.0,0.0,0.0,0.0,0.0,0.0,0.0,0.0,0.0,0.0,0.0,0.0,0.0,0.0,0.0,0.0,0.0,0.0,0.0,0.0,0.0,0.0,0.0,0.0,0.0,0.0,0.0,0.0,0.0,0.0,0.0,0.0,0.0,0.0,0.0,0.0,0.0,0.0,0.0,0.0,0.0,0.0,0.0,0.0,0.0,0.0,0.0,0.0,0.0,0.0,0.0,0.0,0.0,0.0,0.0,0.0,0.0,0.0,0.0,0.0,0.0,0.0,0.0,0.0,0.0,0.0,0.0,0.0,0.0,0.0,0.0,0.0,0.0,0.0,0.0,0.0,0.0,0.0,0.0,0.0,0.0,0.0,0.0,0.0,0.0,0.0,0.0,0.0,0.0,0.0,0.0,0.0,0.0,0.0,0.0,0.0,0.0,0.0,0.0,0.0,0.0,0.0,0.0,0.0,0.0,0.0,0.0,0.0,0.0,0.0,0.0,0.0,0.0,0.0,0.0,-0.1516,-0.156,0.0,0.0,0.0,0.0,0.0,0.0,0.0,0.0,-0.1668,0.0,0.0,0.0,0.0,0.0,0.0,0.0,0.0,0.0,0.0,0.0,0.0,0.0,0.0,0.0,0.0,0.0,0.0,0.0,0.0,0.0,0.0,0.0,0.0,0.0,0.0,0.0,0.0,0.0,0.0,0.0,0.0,0.0,0.0,0.0,0.0,0.0,0.0,0.0,0.0,0.0,0.0,0.0,0.0,0.0,0.0,0.0,0.0,0.0,0.0,0.0,0.0,0.0,0.0,0.0,0.0,0.0,0.0,0.0,0.0,0.0,0.0,0.0,0.0,0.0,0.0,0.0,0.0,0.0,0.0,0.0,0.0,0.0,0.0,0.0,0.0,0.0,0.0,0.0,0.0,0.0,0.0,0.0,0.0,0.0,0.0,0.0,0.0,0.0,0.0,0.0,0.0,0.0,0.0,0.0,0.0,0.0,0.0,0.0,0.0,0.0,0.0,0.0,0.0,0.0,-0.1678,-0.1718,0.0,0.0,0.0,0.0,0.0,0.0,0.0,0.0,-0.112,0.0,0.0,0.0,0.0,0.0,0.0,0.0,0.0,0.0,0.0,0.0,0.0,0.0,0.0,0.0,0.0,0.0,0.0,0.0,0.0,0.0,0.0,0.0,0.0,0.0,0.0,0.0,0.0,0.0,0.0,0.0,0.0,0.0,0.0,0.0,0.0,0.0,0.0,0.0,0.0,0.0,0.0,0.0,0.0,0.0,0.0,0.0,0.0,0.0,0.0,0.0,0.0,0.0,0.0,0.0,0.0,0.0,0.0,0.0,0.0,0.0,0.0,0.0,0.0,0.0,0.0,0.0,0.0,0.0,0.0,0.0,0.0,0.0,0.0,0.0,0.0,0.0,0.0,0.0,0.0,0.0,0.0,0.0,0.0,0.0,0.0,0.0,0.0,0.0,0.0,0.0,0.0,0.0,0.0,0.0,0.0,0.0,0.0,0.0,0.0,0.0,0.0,0.0,0.0,-0.1763,-0.1674,-0.1406,0.0,0.0,0.0,0.0,0.0,0.0,-0.1286,-0.1035,0.0,0.0,0.0,0.0,0.0,0.0,0.0,0.0,0.0,0.0,0.0,0.0,0.0,0.0,0.0,0.0,0.0,0.0,0.0,0.0,0.0,0.0,0.0,0.0,0.0,0.0,0.0,0.0,0.0,0.0,0.0,0.0,0.0,0.0,0.0,0.0,0.0,0.0,0.0,0.0,0.0,0.0,0.0,0.0,0.0,0.0,0.0,0.0,0.0,0.0,0.0,0.0,0.0,0.0,0.0,0.1976,0.1399,0.0737,0.0,0.0,0.0612,0.1942,0.1864,0.1224,0.0,0.0,0.0,0.0,0.0,0.0,0.0,0.0,0.0,0.0,0.0,0.0,0.0,0.0,0.0,0.0,0.0,0.0,0.0,0.0,0.0,0.0,0.0,0.0,0.0,0.0,0.0,0.0,0.0,0.0,0.0,0.0,0.0,0.0,0.0,0.0,0.0,0.0,0.0,0.0,0.0,-0.1381,-0.108,-0.1194,0.0,0.0,0.0,0.0,-0.134,-0.0969,0.0,0.0,0.0,0.0,0.0,0.0,0.0,0.0,0.0,0.0,0.0,0.0,0.0,0.0,0.0,0.0,0.0,0.0,0.0,0.0,0.0,0.0,0.0,0.0,0.0,0.0,0.0,0.0,0.0,0.0,0.0,0.0,0.0,0.0,0.0,0.0,0.0,0.0,0.0,0.0,0.0,0.0,0.0,0.0,0.0,0.0,0.0,0.0,0.0,0.0,0.0,0.0,0.0,0.0,0.0,0.0,0.8755,0.6125,0.3291,0.0,0.0,0.2785,0.8648,0.8098,0.5195,0.0,0.0,0.0,0.0,0.0,0.0,0.0,0.0,0.0,0.0,0.0,0.0,0.0,0.0,0.0,0.0,0.0,0.0,0.0,0.0,0.0,0.0,0.0,0.0,0.0,0.0,0.0,0.0,0.0,0.0,0.0,0.0,0.0,0.0,0.0,0.0,0.0,0.0,0.0,0.0,0.0,-0.0944,-0.0963,-0.0603,-0.0602,0.0,0.0,0.0,-0.0377,-0.0128,0.0,0.0,0.0,0.0,0.0,0.0,0.0,0.0,0.0,0.0,0.0,0.0,0.0,0.0,0.0,0.0,0.0,0.0,0.0,0.0,0.0,0.0,0.0,0.0,0.0,0.0,0.0,0.0,0.0,0.0,0.0,0.0,0.0,0.0,0.0,0.0,0.0,0.0,0.0,0.0,0.0,0.0,0.0,0.0,0.0,0.0,0.0,0.0,0.0,0.0,0.0,0.0,0.0,0.0,0.0,0.9714,0.9531,0.8504,0.7407,0.6036,0.5874,0.6155,0.7185,0.8445,0.785,0.0,0.0,0.0,0.0,0.0,0.0,0.0,0.0,0.0,0.0,0.0,0.0,0.0,0.0,0.0,0.0,0.0,0.0,0.0,0.0,0.0,0.0,0.0,0.0,0.0,0.0,0.0,0.0,0.0,0.0,0.0,0.0,0.0,0.0,0.0,0.0,0.0,0.0,0.0,0.0,0.0,0.0,-0.05,-0.0126,0.0,0.0,0.0,-0.0652,-0.0128,0.0,0.0,0.0,0.0,0.0,0.0,0.0,0.0,0.0,0.0,0.0,0.0,0.0,0.0,0.0,0.0,0.0,0.0,0.0,0.0,0.0,0.0,0.0,0.0,0.0,0.0,0.0,0.0,0.0,0.0,0.0,0.0,0.0,0.0,0.0,0.0,0.0,0.0,0.0,0.0,0.0,0.0,0.0,0.0,0.0,0.0,0.0,0.0,0.0,0.0,0.0,0.0,0.0,0.0,0.0,0.0,0.0,0.9463,0.9318,0.9651,1.0556,1.034,0.8988,0.6532,0.8483,0.0,0.0,0.0,0.0,0.0,0.0,0.0,0.0,0.0,0.0,0.0,0.0,0.0,0.0,0.0,0.0,0.0,0.0,0.0,0.0,0.0,0.0,0.0,0.0,0.0,0.0,0.0,0.0,0.0,0.0,0.0,0.0,0.0,0.0,0.0,0.0,0.0,0.0,0.0,0.0,0.0,0.0,-0.1385,-0.0129,0.0,0.0,0.0,0.0,0.0,0.0,0.0,0.0,0.0,0.0,0.0,0.0,0.0,0.0,0.0,0.0,0.0,0.0,0.0,0.0,0.0,0.0,0.0,0.0,0.0,0.0,0.0,0.0,0.0,0.0,0.0,0.0,0.0,0.0,0.0,0.0,0.0,0.0,0.0,0.0,0.0,0.0,0.0,0.0,0.0,0.0,0.0,0.0,0.0,0.0,0.0,0.0,0.0,0.0,0.0,0.0,0.0,0.0,0.0,0.0,0.0,0.0,0.0,0.959,0.7942,0.7969,0.9951,1.0351,1.034,0.9908,0.9703,0.9492,0.0,0.0,0.0,0.0,0.0,0.0,0.0,0.0,0.0,0.0,0.0,0.0,0.0,0.0,0.0,0.0,0.0,0.0,0.0,0.0,0.0,0.0,0.0,0.0,0.0,0.0,0.0,0.0,0.0,0.0,0.0,0.0,0.0,0.0,0.0,0.0,0.0,0.0,0.0,0.0,0.0,-0.1418,-0.0129,0.0,0.0,0.0,0.0,0.0,0.0,0.0,0.0,0.0,0.0,0.0,0.0,0.0,0.0,0.0,0.0,0.0,0.0,0.0,0.0,0.0,0.0,0.0,0.0,0.0,0.0,0.0,0.0,0.0,0.0,0.0,0.0,0.0,0.0,0.0,0.0,0.0,0.0,0.0,0.0,0.0,0.0,0.0,0.0,0.0,0.0,0.0,0.0,0.0,0.0,0.0,0.0,0.0,0.0,0.0,0.0,0.0,0.0,0.0,0.0,0.0,0.0,0.6337,0.7187,0.698,0.7898,1.0185,1.0384,1.0346,1.0215,1.0003,0.9844,0.0,0.0,0.0,0.0,0.0,0.0,0.0,0.0,0.0,0.0,0.0,0.0,0.0,0.0,0.0,0.0,0.0,0.0,0.0,0.0,0.0,0.0,0.0,0.0,0.0,0.0,0.0,0.0,0.0,0.0,0.0,0.0,0.0,0.0,0.0,0.0,0.0,0.0,0.0,0.0,0.0,-0.0537,0.0,0.0,0.0,0.0,0.0,0.0,0.0,0.0,0.0,0.0,0.0,0.0,0.0,0.0,0.0,0.0,0.0,0.0,0.0,0.0,0.0,0.0,0.0,0.0,0.0,0.0,0.0,0.0,0.0,0.0,0.0,0.0,0.0,0.0,0.0,0.0,0.0,0.0,0.0,0.0,0.0,0.0,0.0,0.0,0.0,0.0,0.0,0.0,0.0,0.0,0.0,0.0,0.0,0.0,0.0,0.0,0.0,0.0,0.0,0.0,0.0,0.0,0.0,0.8734,0.7072,0.7727,0.8797,1.0405,1.0405,1.0501,1.0368,1.0431,1.0366,0.0,0.0,0.0,0.0,0.0,0.0,0.0,0.0,0.0,0.0,0.0,0.0,0.0,0.0,0.0,0.0,0.0,0.0,0.0,0.0,0.0,0.0,0.0,0.0,0.0,0.0,0.0,0.0,0.0,0.0,0.0,0.0,0.0,0.0,0.0,0.0,0.0,0.0,0.0,0.0,0.0,0.0,0.0,0.0,0.0,0.0,0.0,0.0,0.0,0.0,0.0,0.0,0.0,0.0,0.0,0.0,0.0,0.0,0.0,0.0,0.0,0.0,0.0,0.0,0.0,0.0,0.0,0.0,0.0,0.0,0.0,0.0,0.0,0.0,0.0,0.0,0.0,0.0,0.0,0.0,0.0,0.0,0.0,0.0,0.0,0.0,0.0,0.0,0.0,0.0,0.0,0.0,0.0,0.0,0.0,0.0,0.0,0.0,0.0,0.0,0.0,0.0,0.0,0.0,0.0,0.0,1.048,1.0445,1.0525,1.0254,1.0717,1.097,1.0843,1.1306,1.1233,1.0761,0.0,0.0,0.0,0.0,0.0,0.0,0.0,0.0,0.0,0.0,0.0,0.0,0.0,0.0,0.0,0.0,0.0,0.0,0.0,0.0,0.0,0.0,0.0,0.0,0.0,0.0,0.0,0.0,0.0,0.0,0.0,0.0,0.0,0.0,0.0,0.0,0.0,0.0,0.0,0.0,0.0,0.0,0.0,0.0,0.0,0.0,0.0,0.0,0.0,0.0,0.0,0.0,0.0,0.0,0.0,0.0,0.0,0.0,0.0,0.0,0.0,0.0,0.0,0.0,0.0,0.0,0.0,0.0,0.0,0.0,0.0,0.0,0.0,0.0,0.0,0.0,0.0,0.0,0.8363,0.0,0.0,0.0,0.0,0.0,0.0,0.0,0.0,0.0,0.0,0.0,1.0003,1.0194,0.0,0.0,0.0,0.0,0.0,0.0,0.0,0.0,0.0,0.0,0.0,0.0,0.9715,1.0246,1.0589,1.0628,1.0514,1.0744,1.0852,1.097,1.1201,1.1468,1.1566,0.0,0.0,0.0,0.0,0.0,0.0,0.0,0.0,0.0,0.0,0.0,0.0,0.0,0.0,0.0,0.0,0.0,0.0,0.0,0.0,0.0,0.0,0.0,0.0,0.0,0.0,0.0,0.0,0.0,0.0,0.0,0.0,0.0,0.0,0.0,0.0,0.0,0.0,0.0,0.0,0.0,0.0,0.0,0.0,0.0,0.0,0.0,0.0,0.0,0.0,0.0,0.0,0.0,0.0,0.0,0.0,0.0,0.0,0.0,0.0,0.0,0.0,0.0,0.0,0.0,0.0,0.0,0.0,0.0,0.0,0.0,0.0,0.0,0.0,0.0,0.0,0.0,0.0,0.0,0.8958,0.0,0.0,0.0,0.0,0.0,0.0,0.0,0.0,1.0048,1.0537,1.1005,1.1201,1.1398,0.0,1.1208,1.0364,0.0,0.0,0.0,0.0,0.0,0.0,0.0,0.0,0.9794,1.0155,1.0579,1.0742,1.0793,1.1031,1.1117,1.1201,1.1631,1.1968,1.2494,1.2776,1.1925,0.0,0.0,0.0,0.0,0.0,0.0,0.0,0.0,0.0,0.0,0.0,0.0,0.0,0.0,0.0,0.0,0.0,0.0,0.0,0.0,0.0,0.0,0.0,0.0,0.0,0.0,0.0,0.0,0.0,0.0,0.0,0.0,0.0,0.0,0.0,0.0,0.0,0.0,0.0,0.0,0.0,0.0,0.0,0.0,0.0,0.0,0.0,0.0,0.0,0.0,0.0,0.0,0.0,0.0,0.0,0.0,0.0,0.0,0.0,0.0,0.0,0.0,0.0,0.0,0.0,0.0,0.0,0.0,0.0,0.0,0.0,0.0,0.0,0.0,1.0492,1.034,0.0,0.9965,0.0,0.0,0.0,0.0,0.0,0.0,0.0,0.0,1.1918,1.2298,1.2305,1.2305,1.2311,0.0,1.1409,1.1189,1.145,1.0649,0.0,0.0,0.0,0.0,0.0,0.0,1.0269,1.0728,1.092,1.1047,1.1093,1.1593,1.1965,1.172,1.2638,1.3097,1.3383,1.3325,1.3113,1.2477,1.0572,0.0,0.0,0.0,0.0,0.0,0.0,0.0,0.0,0.0,0.0,0.0,0.0,0.0,0.0,0.0,0.0,0.0,0.0,0.0,0.0,0.0,0.0,0.0,0.0,0.0,0.0,0.0,0.0,0.0,0.0,0.0,0.0,0.0,0.0,0.0,0.0,0.0,0.0,0.0,0.0,0.0,0.0,0.0,0.0,0.0,0.0,0.0,0.0,0.0,0.0,0.0,0.0,0.0,0.0,0.0,0.0,0.0,0.0,0.0,0.0,0.0,0.0,0.0,0.0,1.1579,0.0,0.0,0.0,0.0,1.0907,1.1138,1.1504,1.1268,1.1235,1.1382,1.0933,0.0,0.0,0.0,0.0,0.0,0.0,1.1186,1.1795,1.1919,1.24,1.2773,1.2773,1.2766,1.2766,1.2568,1.239,1.2541,1.238,1.1492,1.011,0.0,0.0,0.0,0.0,1.0756,1.0799,1.2015,1.2324,1.1839,1.2276,1.2588,1.2752,1.329,1.3452,1.3392,1.3342,1.3246,1.3116,1.2406,0.0,0.0,0.0,0.0,0.0,0.0,0.0,0.0,0.0,0.0,0.0,0.0,0.0,0.0,0.0,0.0,0.0,0.0,0.0,0.0,0.0,0.0,0.0,0.0,0.0,0.0,0.0,0.0,0.0,0.0,0.0,0.0,0.0,0.0,0.0,0.0,0.0,0.0,0.0,0.0,0.0,0.0,0.0,0.0,0.0,0.0,0.0,0.0,0.0,0.0,0.0,0.0,0.0,0.0,0.0,0.0,0.0,0.0,0.0,0.0,0.0,0.0,0.0,0.0,1.2501,1.2067,1.1681,1.1586,1.1694,1.1694,1.1918,1.2271,1.2189,1.2135,1.2101,1.1978,1.1616,1.1239,1.1188,0.0,0.0,0.0,1.1972,1.245,1.2456,1.2769,1.3214,1.3227,1.3254,1.3308,1.3144,1.3144,1.3308,1.309,1.2398,1.1427,0.0,0.0,0.9807,1.0818,1.1683,1.2071,1.2928,1.3429,1.3165,1.3067,1.3267,1.376,1.382,1.3747,1.372,1.3519,1.3437,1.3329,1.3241,1.2656,0.0,0.0,0.0,0.0,0.0,0.0,0.0,0.0,0.0,0.0,0.0,0.0,0.0,0.0,0.0,0.0,0.0,0.0,0.0,0.0,0.0,0.0,0.0,0.0,0.0,0.0,0.0,0.0,0.0,0.0,0.0,0.0,0.0,0.0,0.0,0.0,0.0,0.0,0.0,0.0,0.0,0.0,0.0,0.0,0.0,0.0,0.0,0.0,0.0,0.0,0.0,0.0,0.0,0.0,0.0,0.0,0.0,0.0,0.0,0.0,0.0,0.0,0.0,1.3227,1.3166,1.2488,1.2338,1.2535,1.2535,1.2705,1.2976,1.2963,1.2807,1.2583,1.284,1.2664,1.2176,1.2169,0.0,0.0,1.2596,1.282,1.322,1.3227,1.3376,1.3641,1.3648,1.3715,1.3838,1.3495,1.3502,1.3851,1.3383,1.316,1.3167,1.2906,1.1812,1.0382,1.1188,1.2532,1.427,1.3839,1.3991,1.4729,1.3991,1.3859,1.4516,1.4082,1.4001,1.4285,1.3847,1.3396,1.3451,1.3466,1.336,1.3396,0.0,0.0,0.0,0.0,0.0,0.0,0.0,0.0,0.0,0.0,0.0,0.0,0.0,0.0,0.0,0.0,0.0,0.0,0.0,0.0,0.0,0.0,0.0,0.0,0.0,0.0,0.0,0.0,0.0,0.0,0.0,0.0,0.0,0.0,0.0,0.0,0.0,0.0,0.0,0.0,0.0,0.0,0.0,0.0,0.0,0.0,0.0,0.0,0.0,0.0,0.0,0.0,0.0,0.0,0.0,0.0,0.0,0.0,0.0,0.0,0.0,0.0,1.3682,1.3668,1.3492,1.32,1.2854,1.2854,1.2956,1.3112,1.3003,1.2983,1.301,1.2976,1.3003,1.3078,1.3085,1.3241,1.3519,1.341,1.3478,1.3675,1.3682,1.3722,1.379,1.379,1.381,1.3838,1.3673,1.3727,1.4007,1.398,1.3854,1.3954,1.3894,1.3184,1.1722,1.2344,1.323,1.4211,1.438,1.4523,1.4645,1.4457,1.447,1.4679,1.4618,1.4489,1.4306,1.4231,1.4055,1.4103,1.3607,1.3376,1.3367,1.239,0.0,0.0,0.0,0.0,0.0,0.0,0.0,0.0,0.0,0.0,0.0,0.0,0.0,0.0,0.0,0.0,0.0,0.0,0.0,0.0,0.0,0.0,0.0,0.0,0.0,0.0,0.0,0.0,0.0,0.0,0.0,0.0,0.0,0.0,0.0,0.0,0.0,0.0,0.0,0.0,0.0,0.0,0.0,0.0,0.0,0.0,0.0,0.0,0.0,0.0,0.0,0.0,0.0,0.0,0.0,0.0,0.0,0.0,0.0,0.0,0.0,1.3838,1.3838,1.3838,1.3648,1.3349,1.3349,1.3397,1.3464,1.339,1.3397,1.3464,1.339,1.3444,1.3593,1.3593,1.3688,1.3831,1.3763,1.377,1.3838,1.3838,1.3912,1.4041,1.4048,1.4116,1.4238,1.4238,1.4285,1.4367,1.4367,1.4407,1.4496,1.4496,1.4044,1.3161,1.3397,1.3779,1.4306,1.4695,1.4908,1.493,1.4936,1.4936,1.493,1.4998,1.4853,1.4689,1.4373,1.4373,1.4312,1.4043,1.3654,1.3295,1.2956,1.2775,0.0,0.0,0.0,0.0,0.0,0.0,0.0,0.0,0.0,0.0,0.0,0.0,0.0,0.0,0.0,0.0,0.0,0.0,0.0,0.0,0.0,0.0,0.0,0.0,0.0,0.0,0.0,0.0,0.0,0.0,0.0,0.0,0.0,0.0,0.0,0.0,0.0,0.0,0.0,0.0,0.0,0.0,0.0,0.0,0.0,0.0,0.0,0.0,0.0,0.0,0.0,0.0,0.0,0.0,0.0,0.0,0.0,0.0,0.0,0.0,1.3953,1.396,1.396,1.3953,1.3953,1.3953,1.3912,1.3838,1.3838,1.3838,1.3838,1.3865,1.3871,1.3871,1.3892,1.3912,1.3926,1.3926,1.3933,1.3953,1.3953,1.4102,1.4353,1.4353,1.4496,1.4733,1.474,1.4746,1.4767,1.4767,1.478,1.4794,1.4794,1.4671,1.4401,1.4423,1.4414,1.4414,1.4874,1.5142,1.5201,1.5194,1.5181,1.5174,1.5107,1.5139,1.5111,1.4654,1.4258,1.429,1.4242,1.3878,1.3164,1.3278,1.3501,0.0,1.3151,0.0,0.0,0.0,0.0,0.0,0.0,0.0,0.0,0.0,0.0,0.0,0.0,0.0,0.0,0.0,0.0,0.0,0.0,0.0,0.0,0.0,0.0,0.0,0.0,0.0,0.0,0.0,0.0,0.0,0.0,0.0,0.0,0.0,0.0,0.0,0.0,0.0,0.0,0.0,0.0,0.0,0.0,0.0,0.0,0.0,0.0,0.0,0.0,0.0,0.0,0.0,0.0,0.0,0.0,0.0,0.0,0.0,0.0,1.457,1.457,1.457,1.457,1.457,1.457,1.4292,1.3838,1.3838,1.3838,1.3851,1.3973,1.4027,1.4034,1.4156,1.4272,1.438,1.4387,1.4448,1.457,1.457,1.4597,1.4658,1.4652,1.4685,1.474,1.474,1.4808,1.4923,1.493,1.4984,1.5092,1.5099,1.4919,0.0,0.0,0.0,0.0,1.5187,1.5309,1.5357,1.5248,1.5181,1.5181,1.521,0.0,1.4746,1.4563,1.4401,1.4265,1.4021,0.0,0.0,0.0,0.0,0.0,0.0,0.0,0.0,0.0,0.0,0.0,0.9846,0.653,0.0,0.0,0.0,0.0,0.0,0.0,0.0,0.0,0.0,0.0,0.0,0.0,0.0,0.0,0.0,0.0,0.0,0.0,0.0,0.0,0.0,0.0,0.0,0.0,0.0,0.0,0.0,0.0,0.0,0.0,0.0,0.0,0.0,0.0,0.0,0.0,0.0,0.0,0.0,0.0,0.0,0.0,0.0,0.0,0.0,0.0,0.0,0.0,0.0,0.0,0.0,1.474,0.0,1.474,1.474,0.0,0.0,1.457,1.4285,1.4285,1.4285,1.4292,1.4367,1.4401,1.4407,1.4482,1.4557,1.4624,1.4624,1.4665,1.474,1.474,1.478,1.4855,1.4855,1.4889,1.4957,1.5038,1.5113,1.5187,1.5269,1.5337,1.5404,1.5404,1.5247,1.5122,1.5588,1.5712,1.5492,1.5568,1.5643,1.552,1.5452,1.5411,1.5404,0.0,0.0,0.0,0.0,0.0,0.0,0.0,0.0,0.0,0.0,0.0,1.3838,1.3715,1.3432,1.3177,1.2856,1.239,1.1763,1.1395,0.8049,0.0496,0.0,0.0,0.0,0.0,0.0,0.0,0.0,0.0,0.0,0.0,0.0,0.0,0.0,0.0,0.0,0.0,0.0,0.0,0.0,0.0,0.0,0.0,0.0,0.0,0.0,0.0,0.0,0.0,0.0,0.0,0.0,0.0,0.0,0.0,0.0,0.0,0.0,0.0,0.0,0.0,0.0,0.0,0.0,0.0,0.0,0.0,0.0,0.0,0.0,0.0,1.4821,1.4814,1.4821,1.4821,1.4821,1.4841,1.4875,1.4896,0.0,0.0,0.0,1.474,1.474,1.474,1.4767,1.478,1.478,1.4808,1.4835,1.4862,1.4862,1.4936,1.5086,1.5092,1.5147,1.5269,1.5391,1.5452,1.5459,1.5581,1.5655,1.5676,1.5676,1.5744,1.5689,1.6015,1.6117,1.598,1.611,1.5945,1.5669,1.5649,1.5635,1.5635,1.5294,1.5214,1.4819,1.4765,1.4626,1.4427,1.4651,1.4645,1.4434,1.4367,1.4238,1.4021,1.3892,1.3865,1.3953,1.3892,1.3422,1.222,1.1821,0.8901,0.2422,0.1404,0.071,0.0,0.0,0.0,0.0,0.0,0.0,0.0,0.0,0.0,0.0,0.0,0.0,0.0,0.0,0.0,0.0,0.0,0.0,0.0,0.0,0.0,0.0,0.0,0.0,0.0,0.0,0.0,0.0,0.0,0.0,0.0,0.0,0.0,0.0,0.0,0.0,0.0,0.0,0.0,0.0,0.0,0.0,0.0,0.0,0.0,0.0,0.0,0.0,1.512,1.512,1.512,1.512,1.5126,1.5262,1.5391,1.5466,1.4964,1.474,1.474,1.474,1.474,1.4746,1.4882,1.4936,1.495,1.5065,1.5194,0.0,1.5316,1.5398,1.554,1.5547,1.5554,1.5574,1.5594,1.5608,1.5608,1.5635,1.5703,1.5811,1.5825,1.59,1.6035,1.6069,1.6117,1.6178,1.6124,1.6,1.5825,1.5703,1.5635,1.5628,1.5499,1.5609,1.5411,1.564,1.5542,1.5147,1.508,1.5153,1.5053,1.4631,1.4516,1.4604,1.441,1.417,1.4249,1.4529,1.4068,1.3187,1.2659,1.1694,0.9941,0.7051,0.3814,0.0,0.0,0.0,0.0,0.0,0.0,0.0,0.0,0.0,0.0,0.0,0.0,0.0,0.0,0.0,0.0,0.0,0.0,0.0,0.0,0.0,0.0,0.0,0.0,0.0,0.0,0.0,0.0,0.0,0.0,0.0,0.0,0.0,0.0,0.0,0.0,0.0,0.0,0.0,0.0,0.0,0.0,0.0,0.0,0.0,0.0,0.0,0.0,1.5432,1.5432,1.5432,1.5432,1.5438,1.5506,1.5574,1.5615,1.535,1.5228,1.5228,1.5228,1.5228,1.5235,1.5303,1.533,1.5337,1.5404,1.5466,1.5533,1.5533,1.5567,1.5635,1.5635,1.5635,1.5642,1.5723,1.5757,1.5764,1.5839,1.5954,1.6096,1.5971,1.6045,1.6313,1.6112,1.6152,1.6422,1.6412,1.6344,1.6212,1.6151,1.6083,1.6008,1.5934,1.5859,1.5778,1.6022,1.5945,1.5739,1.573,1.5646,1.5513,1.512,1.5031,1.5092,1.4646,1.4567,1.4501,1.4839,1.4926,1.4164,1.367,1.3122,1.2511,1.0454,0.8547,0.6758,0.6612,0.4749,0.0,0.0,0.0,0.0,0.0,0.0,0.0,0.0,0.0,0.0,0.0,0.0,0.0,0.0,0.0,0.0,0.0,0.0,0.0,0.0,0.0,0.0,0.0,0.0,0.0,0.0,0.0,0.0,0.0,0.0,0.0,0.0,0.0,0.0,0.0,0.0,0.0,0.0,0.0,0.0,0.0,0.0,0.0,0.0,0.0,1.5635,1.5635,1.5635,1.5655,1.5689,1.5689,1.5703,1.5737,1.5737,1.5757,1.5778,1.5689,1.5635,1.5635,1.5635,1.5635,1.5635,1.5635,1.5655,1.5689,1.5689,1.5723,1.5784,1.5791,1.5805,1.5845,1.5954,1.6008,1.6022,1.6123,1.6239,1.6361,1.6259,1.6306,1.6517,1.6312,1.6326,1.6564,1.6673,1.6653,1.6517,1.6517,1.6469,1.6368,1.6145,1.6091,1.6178,1.6069,1.6192,1.6151,1.6021,1.5925,1.5689,1.5547,1.5466,1.5452,1.5154,1.4897,1.51,1.5404,1.5479,1.4891,1.4603,1.4079,1.3667,1.2858,1.2178,1.2112,1.0835,0.7589,0.0,0.0,0.0,0.0,0.0,0.0,0.0,0.0,0.0,0.0,0.0,0.0,0.0,0.0,0.0,0.0,0.0,0.0,0.0,0.0,0.0,0.0,0.0,0.0,0.0,0.0,0.0,0.0,0.0,0.0,0.0,0.0,0.0,0.0,0.0,0.0,0.0,0.0,0.0,0.0,0.0,0.0,0.0,0.0,0.0,1.5642,1.5635,1.5649,1.5716,1.5839,1.5839,1.5913,1.6035,1.6042,1.6123,1.6191,1.5818,1.5655,1.5635,1.5655,1.5669,1.5669,1.5642,1.5723,1.5839,1.5832,1.5981,1.6218,1.6239,1.6313,1.6408,1.6429,1.6415,1.6422,1.6456,1.649,1.6503,1.6517,1.653,1.653,1.6742,1.6804,1.6727,1.6927,1.6859,1.653,1.6517,1.651,1.6503,1.6292,1.6082,1.6048,1.6048,1.6185,1.6065,1.6117,1.6179,1.6048,1.5703,1.5622,1.5628,1.5608,1.5601,1.6001,1.6015,1.5828,1.5622,1.5067,1.4886,1.4692,1.3673,1.2869,1.1932,0.899,0.5275,0.0,0.0,0.0,0.0,0.0,0.0,0.0,0.0,0.0,0.0,0.0,0.0,0.0,0.0,0.0,0.0,0.0,0.0,0.0,0.0,0.0,0.0,0.0,0.0,0.0,0.0,0.0,0.0,0.0,0.0,0.0,0.0,0.0,0.0,0.0,0.0,0.0,0.0,0.0,0.0,0.0,0.0,0.0,0.0,0.0,1.59,1.59,1.59,1.5988,1.6117,1.6123,1.6205,1.6334,1.6341,1.6374,1.6415,1.6239,1.6164,1.6157,1.6157,1.6157,1.6157,1.6157,1.6191,1.6246,1.6246,1.6313,1.6422,1.6435,1.6469,1.6517,1.6517,1.6524,1.6537,1.6612,1.6653,1.6666,1.6748,1.6795,1.6788,1.7003,1.7037,1.6883,1.689,1.6856,1.6802,1.6795,1.6748,1.6666,1.6653,1.6612,1.6326,1.6524,1.6701,1.6646,1.6374,1.6313,1.6252,1.6191,1.6157,1.6157,1.5877,1.6035,1.6035,1.6158,1.6144,1.6029,1.5837,1.5472,1.4957,1.4556,1.3753,1.2521,1.097,0.9103,0.7758,0.7572,0.5779,0.0,0.0,0.0,0.0,0.0,0.0,0.0,0.0,0.0,0.0,0.0,0.0,0.0,0.0,0.0,0.0,0.0,0.0,0.0,0.0,0.0,0.0,0.0,0.0,0.0,0.0,0.0,0.0,0.0,0.0,0.0,0.0,0.0,0.0,0.0,0.0,0.0,0.0,0.0,0.0,0.0,0.0,1.6205,1.6205,1.6205,1.6266,1.6368,1.6368,1.6429,1.6517,1.6517,1.6544,1.6585,1.6585,1.6612,1.6632,1.6564,1.6517,1.6517,1.6517,1.6517,1.6517,1.6517,1.6537,1.6578,1.6585,1.6605,1.6639,1.6653,1.6653,1.6659,1.6748,1.6815,1.6829,1.6924,1.6978,1.6978,1.6978,1.6978,1.6978,1.6978,1.6978,1.6971,1.6978,1.6931,1.6829,1.6815,1.6968,1.6653,1.6859,1.7051,1.7009,1.6797,1.6571,1.6735,1.6524,1.6524,1.651,1.6225,1.6158,1.6158,1.6259,1.6252,1.6354,1.6368,1.6009,1.5475,1.5296,1.4681,1.341,1.3009,1.2727,1.2807,1.3037,1.0168,0.447,0.2861,0.1846,0.0,0.186,0.0,0.0,0.0,0.0,0.0,0.0,0.0,0.0,0.0,0.0,0.0,0.0,0.0,0.3592,0.0,0.0,0.0,0.0,0.0,0.0,0.0,0.0,0.0,0.0,0.0,0.0,0.0,0.0,0.0,0.0,0.0,0.0,0.0,0.0,0.0,0.0,0.0,1.6503,1.6497,1.6497,1.6497,1.651,1.651,1.6517,1.6551,1.6537,1.6612,1.6734,1.6741,1.6822,1.6917,1.6666,1.653,1.653,1.6544,1.6551,1.6551,1.6544,1.6605,1.6734,1.6741,1.6815,1.691,1.6917,1.6924,1.6937,1.6958,1.6971,1.6978,1.6992,1.6985,1.7005,1.7012,1.6992,1.7012,1.7012,1.6992,1.6992,1.6992,1.6998,1.6985,1.6971,1.6951,1.6944,1.6958,1.7099,1.6962,1.6955,1.6893,1.6974,1.6749,1.6749,1.6537,1.6524,1.6306,1.6299,1.6279,1.649,1.651,1.651,1.6524,1.6154,1.5956,1.534,1.4481,1.3637,1.3011,1.3043,1.3232,1.3243,1.2009,0.8689,0.6828,0.6412,0.6433,0.4347,0.1659,0.0,0.0,0.0,0.0,0.0,0.0,0.0,0.0,0.0,0.7243,1.0678,1.1108,0.8744,0.0,0.0,0.0,0.0,0.0,0.0,0.0,0.0,0.0,0.0,0.0,0.0,0.0,0.0,0.0,0.0,0.0,0.0,0.0,0.0,0.0,0.0,1.6517,1.6517,1.6517,1.6571,1.6666,1.6666,1.672,1.6815,1.6815,1.6842,1.689,1.6897,1.6931,1.6978,1.687,1.6815,1.6815,1.6815,1.6815,1.6815,1.6815,1.6842,1.689,1.6897,1.6924,1.6971,1.6978,1.6978,1.6978,1.6978,1.7032,1.7107,1.7114,1.7161,1.7243,1.7043,1.7043,1.7263,1.7263,1.7263,1.7249,1.7263,1.7263,1.7249,1.7073,1.6978,1.6978,1.6978,1.6951,1.6904,1.6897,1.7085,1.7037,1.7023,1.6815,1.6809,1.6727,1.6673,1.6659,1.6783,1.6783,1.6865,1.6666,1.65,1.6373,1.5983,1.5774,1.5142,1.4087,1.3466,1.3439,1.3559,1.3682,1.3292,1.2097,1.0883,1.1118,1.1204,1.064,0.8929,0.6584,0.5317,0.7022,0.6167,0.4453,0.4467,0.4487,0.4499,0.4931,0.7726,1.0545,1.2991,1.2526,1.0982,0.0,0.0,0.0,0.0,0.0,0.0,0.0,0.0,0.0,0.0,0.0,0.0,0.0,0.0,0.0,0.0,0.0,0.0,0.0,0.0,0.0,1.6673,1.6673,1.6673,1.6727,1.6822,1.6822,1.6883,1.6978,1.6978,1.6978,1.6985,1.7026,1.7046,1.706,1.71,1.7121,1.7107,1.7026,1.6978,1.6978,1.6978,1.6978,1.6978,1.6978,1.6978,1.6992,1.7032,1.7073,1.7121,1.7121,1.7175,1.7256,1.7222,1.7243,1.7331,1.7304,1.7283,1.7277,1.7283,1.7277,1.7277,1.7277,1.7277,1.7249,1.7087,1.7032,1.6902,1.6909,1.7093,1.7053,1.7046,1.7026,1.6985,1.6978,1.6978,1.6965,1.7099,1.7037,1.703,1.6941,1.6934,1.7023,1.6829,1.6668,1.6335,1.6348,1.6348,1.571,1.5289,1.4651,1.3769,1.3653,1.3592,1.3658,1.3553,1.3624,1.3645,1.3781,1.3841,1.316,1.0952,1.0738,1.2477,1.0691,0.9375,0.8939,0.9203,0.9236,0.9476,0.9265,0.9941,1.3316,1.3928,1.3501,1.2679,1.0252,0.9371,0.8538,0.7703,0.4858,0.2431,0.2438,0.0,0.0,0.0,0.0,0.0,0.0,0.0,0.0,0.0,0.0,0.0,0.0,0.0,1.6978,1.6971,1.6978,1.6978,1.6998,1.7005,1.6992,1.7019,1.7012,1.7026,1.7053,1.7141,1.7195,1.7222,1.7317,1.7399,1.7338,1.7134,1.7032,1.7026,1.7019,1.7019,1.7019,1.7032,1.7032,1.7032,1.7134,1.7263,1.7378,1.7378,1.7392,1.7392,1.7304,1.7277,1.7222,1.7614,1.7502,1.7312,1.7339,1.7291,1.6998,1.7073,1.708,1.7046,1.7243,1.7134,1.6948,1.715,1.7063,1.6962,1.6949,1.6902,1.6998,1.6978,1.6978,1.6978,1.6971,1.6971,1.6971,1.6951,1.6931,1.6958,1.6971,1.6958,1.6971,1.6978,1.6768,1.6341,1.6354,1.6137,1.4212,1.3996,1.3824,1.3973,1.4012,1.3852,1.389,1.3934,1.3923,1.3841,1.3327,1.3689,1.3684,1.3025,1.2586,1.2586,1.2828,1.2874,1.294,1.2731,1.3648,1.395,1.395,1.3939,1.4037,1.3915,1.3931,1.3743,1.2921,1.1172,0.823,0.7123,0.6011,0.0,0.0,0.0,0.0,0.0,0.0,0.0,0.0,0.0,0.0,0.0,0.0,1.8594,1.7127,1.7127,1.7188,1.7277,1.7283,1.7283,1.7283,1.7283,1.7283,1.729,1.7331,1.7351,1.7358,1.7399,1.7419,1.7412,1.7317,1.7283,1.7283,1.7277,1.727,1.7277,1.7277,1.7283,1.729,1.7324,1.7372,1.7419,1.7426,1.7467,1.7541,1.7528,1.7561,1.7623,1.7384,1.7364,1.7589,1.7364,1.7317,1.7453,1.7439,1.7392,1.7297,1.7283,1.7331,1.7405,1.7449,1.7537,1.7495,1.7264,1.7026,1.6992,1.6978,1.6978,1.6978,1.6978,1.6978,1.6978,1.6985,1.6992,1.6985,1.6985,1.6978,1.6978,1.6985,1.6985,1.6768,1.6992,1.6564,1.615,1.6022,1.5423,1.4091,1.3907,1.3749,1.3787,1.3814,1.3863,1.3896,1.3819,1.376,1.3732,1.37,1.3645,1.3656,1.3705,1.3781,1.3803,1.383,1.3841,1.3939,1.3906,1.3934,1.4053,1.4135,1.4162,1.4211,1.4076,1.4124,1.2071,1.0941,0.9824,0.7813,0.3798,0.0,0.0,0.0,0.0,0.0,0.0,0.0,0.0,0.0,0.0,1.855,1.7277,1.7277,1.7331,1.7412,1.7419,1.7419,1.7419,1.7419,1.7419,1.7426,1.748,1.7507,1.7514,1.7561,1.7582,1.7589,1.7582,1.7589,1.7555,1.7453,1.7419,1.7419,1.7419,1.746,1.75,1.7507,1.7534,1.7582,1.7589,1.7636,1.7711,1.7677,1.7684,1.7765,1.7498,1.7471,1.7697,1.7684,1.765,1.7582,1.7561,1.7521,1.7433,1.7419,1.7419,1.719,1.7456,1.7558,1.7509,1.7277,1.706,1.7066,1.7114,1.7141,1.6929,1.6929,1.6936,1.6929,1.6942,1.7141,1.7141,1.7093,1.706,1.706,1.706,1.706,1.706,1.6909,1.6936,1.6956,1.7023,1.6395,1.4815,1.444,1.4034,1.3857,1.3896,1.3944,1.3977,1.3885,1.3825,1.3814,1.3749,1.37,1.3732,1.3798,1.3879,1.3896,1.3928,1.3977,1.4015,1.4021,1.4053,1.4097,1.4135,1.4156,1.4222,1.4292,1.4309,1.3394,1.3192,1.253,1.0953,0.7599,0.2684,0.0,0.0,0.0,0.0,0.0,0.0,0.0,0.0,0.0,1.7648,1.7433,1.7433,1.7446,1.7467,1.7467,1.748,1.746,1.7467,1.7473,1.7494,1.7609,1.7663,1.769,1.7772,1.7812,1.7853,1.7826,1.7812,1.7758,1.7609,1.7494,1.7494,1.75,1.7561,1.7643,1.7656,1.7724,1.7806,1.7812,1.786,1.7833,1.7957,1.7889,1.7684,1.7751,1.7738,1.7541,1.7724,1.7724,1.7467,1.7453,1.7439,1.7426,1.7419,1.7419,1.719,1.7163,1.711,1.7009,1.7209,1.7422,1.7449,1.7344,1.717,1.7157,1.6968,1.717,1.7177,1.715,1.7157,1.7365,1.727,1.6989,1.7209,1.7209,1.7209,1.6996,1.709,1.717,1.717,1.719,1.6766,1.5933,1.5085,1.4534,1.4243,1.4156,1.408,1.4053,1.3934,1.383,1.3928,1.3847,1.3852,1.3896,1.3934,1.3972,1.4026,1.4048,1.4156,1.414,1.4064,1.4064,1.4069,1.4129,1.4151,1.4195,1.4265,1.4282,1.4265,1.4282,1.433,1.2752,1.0962,0.6037,0.0,0.0,0.0,0.0,0.0,0.0,0.0,0.0,0.0,1.9088,1.7589,1.7589,1.765,1.7738,1.7745,1.7738,1.7745,1.7738,1.7724,1.7751,1.7785,1.7799,1.7812,1.784,1.786,1.786,1.786,1.786,1.7853,1.7799,1.7751,1.7745,1.7745,1.7758,1.7792,1.7792,1.7826,1.786,1.786,1.786,1.786,1.7826,1.7806,1.7792,1.7978,1.7751,1.7751,1.7745,1.7684,1.7602,1.7589,1.7528,1.7426,1.7426,1.7433,1.7419,1.7635,1.7412,1.7143,1.7143,1.758,1.7808,1.7628,1.7446,1.7224,1.7217,1.7426,1.7648,1.7655,1.7655,1.7641,1.7621,1.758,1.7358,1.7358,1.7358,1.7365,1.7405,1.7426,1.7648,1.7662,1.7264,1.6244,1.5161,1.4489,1.4288,1.4026,1.4004,1.3993,1.3955,1.3944,1.3955,1.3944,1.3934,1.3966,1.3983,1.3993,1.4064,1.4069,1.4129,1.4053,1.3993,1.401,1.4037,1.4102,1.4146,1.4167,1.4222,1.4271,1.4227,1.4189,1.426,1.3637,1.3202,0.9616,0.8961,0.0,0.0,0.2019,0.2689,0.4254,0.7115,0.0,0.0,1.9039,1.7738,1.7738,1.7785,1.786,1.786,1.786,1.786,1.786,1.786,1.786,1.786,1.786,1.786,1.786,1.786,1.786,1.786,1.786,1.786,1.7853,1.7853,1.7853,1.786,1.786,1.786,1.786,1.786,1.786,1.786,1.786,1.786,1.786,1.786,1.7853,1.786,1.786,1.786,1.786,1.7819,1.7745,1.7738,1.7704,1.7616,1.7609,1.7609,1.7609,1.7834,1.7779,1.7473,1.748,1.7738,1.7751,1.7799,1.7602,1.7602,1.7609,1.7609,1.7834,1.7834,1.7834,1.782,1.801,1.7744,1.7521,1.7514,1.7514,1.7514,1.7561,1.7602,1.7834,1.7841,1.7663,1.7059,1.5687,1.4764,1.4545,1.4349,1.4113,1.4102,1.4069,1.4059,1.4091,1.4064,1.4069,1.4102,1.4135,1.4129,1.414,1.4108,1.4091,1.4075,1.4271,1.4523,1.4545,1.4596,1.4635,1.4431,1.4205,1.4254,1.4238,1.4178,1.4227,1.4292,1.432,1.3891,1.2781,1.1665,0.9411,0.739,0.7611,0.8494,1.0907,1.2176,1.0089,1.8081,1.786,1.786,1.786,1.786,1.786,1.786,1.786,1.786,1.786,1.786,1.786,1.786,1.786,1.786,1.786,1.786,1.786,1.786,1.786,1.786,1.786,1.786,1.786,1.786,1.786,1.786,1.786,1.786,1.786,1.786,1.786,1.786,1.786,1.786,1.786,1.786,1.786,1.786,1.786,1.784,1.7833,1.7819,1.7812,1.7806,1.7812,1.7826,1.7826,1.7957,1.7926,1.7827,1.7889,1.7909,1.7799,1.784,1.7833,1.7812,1.7826,1.7846,1.7819,1.784,1.7812,1.795,1.7895,1.767,1.767,1.7663,1.7451,1.7785,1.7812,1.7826,1.786,1.786,1.7632,1.6741,1.6083,1.5424,1.4758,1.432,1.4314,1.4211,1.4227,1.4249,1.4243,1.4195,1.4211,1.4238,1.4233,1.4233,1.4442,1.4453,1.4465,1.4884,1.5081,1.5093,1.511,1.5133,1.4929,1.4674,1.447,1.4282,1.4254,1.4249,1.4276,1.4314,1.4336,1.3896,1.2772,1.1648,1.1429,1.0751,1.1656,1.2772,1.3359,1.2143,1.961,1.786,1.786,1.786,1.786,1.786,1.786,1.786,1.786,1.786,1.786,1.786,1.786,1.786,1.786,1.786,1.786,1.786,1.786,1.786,1.786,1.786,1.786,1.786,1.786,1.786,1.786,1.786,1.786,1.786,1.786,1.786,1.786,1.786,1.786,1.786,1.786,1.786,1.786,1.786,1.786,1.786,1.786,1.786,1.786,1.786,1.786,1.786,1.7833,1.8012,1.8012,1.8019,1.7812,1.784,1.786,1.786,1.786,1.786,1.786,1.786,1.786,1.786,1.7833,1.7819,1.7812,1.7806,1.7812,1.7819,1.7846,1.786,1.7867,1.7867,1.7874,1.7652,1.721,1.676,1.6539,1.5646,1.4975,1.452,1.4287,1.4292,1.4314,1.4303,1.4292,1.432,1.432,1.432,1.4542,1.4758,1.4758,1.498,1.5407,1.5808,1.5814,1.582,1.561,1.5622,1.515,1.4697,1.4509,1.4303,1.4509,1.4298,1.4314,1.433,1.4341,1.4113,1.3207,1.3222,1.3455,1.345,1.3658,1.4054,1.4249,2.0701,1.939,1.8302,1.786,1.786,1.786,1.786,1.786,1.786,1.786,1.786,1.786,1.786,1.786,1.786,1.786,1.786,1.786,1.786,1.786,1.786,1.786,1.786,1.786,1.786,1.786,1.786,1.786,1.786,1.786,1.786,1.786,1.786,1.786,1.786,1.786,1.786,1.786,1.786,1.786,1.786,1.786,1.786,1.786,1.786,1.786,1.786,1.786,1.786,1.786,1.786,1.786,1.786,1.786,1.786,1.786,1.786,1.786,1.786,1.786,1.786,1.786,1.786,1.786,1.786,1.786,1.786,1.786,1.786,1.786,1.786,1.786,1.786,1.786,1.7646,1.7424,1.7203,1.6311,1.5418,1.4969,1.4753,1.4531,1.4542,1.4542,1.432,1.432,1.432,1.432,1.4758,1.498,1.5424,1.5646,1.6089,1.6526,1.6526,1.6305,1.6299,1.6077,1.5622,1.5174,1.4969,1.4753,1.4758,1.4542,1.432,1.4325,1.433,1.4325,1.4325,1.4108,1.3885,1.4108,1.432,1.4287,1.4276,2.1579,2.114,1.8736,1.786,1.786,1.786,1.786,1.786,1.786,1.786,1.786,1.786,1.786,1.786,1.786,1.786,1.786,1.786,1.786,1.786,1.786,1.786,1.786,1.786,1.786,1.786,1.786,1.786,1.786,1.786,1.786,1.786,1.786,1.786,1.786,1.786,1.786,1.786,1.786,1.786,1.786,1.786,1.786,1.786,1.786,1.786,1.786,1.786,1.786,1.786,1.786,1.786,1.786,1.786,1.786,1.786,1.786,1.786,1.786,1.786,1.786,1.786,1.786,1.786,1.786,1.786,1.786,1.786,1.786,1.786,1.786,1.786,1.786,1.786,1.786,1.786,1.7639,1.6975,1.6311,1.5646,1.5424,1.5202,1.4764,1.4764,1.4542,1.4542,1.4542,1.4764,1.5202,1.5424,1.5868,1.6311,1.676,1.6975,1.7203,1.6982,1.676,1.6533,1.6299,1.5862,1.5418,1.5202,1.498,1.4542,1.4325,1.4325,1.4325,1.4325,1.4325,1.432,1.4325,1.4325,1.4314,1.4303,1.4282,2.3093,2.114,1.8957,1.786,1.786,1.786,1.786,1.786,1.786,1.786,1.786,1.786,1.786,1.786,1.786,1.786,1.786,1.786,1.786,1.786,1.786,1.786,1.786,1.786,1.786,1.786,1.786,1.786,1.786,1.786,1.786,1.786,1.786,1.786,1.786,1.786,1.786,1.786,1.786,1.786,1.786,1.786,1.786,1.786,1.786,1.786,1.786,1.786,1.786,1.786,1.786,1.786,1.786,1.786,1.786,1.786,1.786,1.786,1.786,1.786,1.786,1.786,1.786,1.786,1.786,1.786,1.786,1.786,1.786,1.786,1.786,1.786,1.786,1.786,1.786,1.786,1.7867,1.7639,1.7197,1.6533,1.6311,1.5874,1.543,1.5208,1.5202,1.5208,1.5208,1.543,1.5874,1.6317,1.6539,1.6982,1.7424,1.7646,1.7639,1.7646,1.7424,1.7203,1.6754,1.6533,1.6089,1.5424,1.498,1.4758,1.432,1.4325,1.4325,1.432,1.432,1.432,1.432,1.432,1.4282,1.4243,1.4184,2.4182,2.2883,1.9397,1.786,1.786,1.786,1.786,1.786,1.786,1.786,1.786,1.786,1.786,1.786,1.786,1.786,1.786,1.786,1.786,1.786,1.786,1.786,1.786,1.786,1.786,1.786,1.786,1.786,1.786,1.786,1.786,1.786,1.786,1.786,1.786,1.786,1.786,1.786,1.786,1.786,1.786,1.786,1.786,1.786,1.786,1.786,1.786,1.786,1.786,1.786,1.786,1.786,1.786,1.786,1.786,1.786,1.786,1.786,1.786,1.786,1.786,1.786,1.786,1.786,1.786,1.786,1.786,1.786,1.786,1.786,1.786,1.786,1.786,1.786,1.786,1.786,1.786,1.786,1.7646,1.7424,1.6982,1.6539,1.6096,1.6096,1.5868,1.5868,1.6089,1.6317,1.6539,1.676,1.7203,1.7424,1.7646,1.7646,1.786,1.786,1.786,1.7646,1.7424,1.6982,1.676,1.6311,1.5646,1.498,1.4758,1.452,1.432,1.432,1.432,1.4314,1.4303,1.4276,1.4227,1.4178,1.4108,2.526,2.44,2.0262,1.8302,1.786,1.786,1.786,1.786,1.786,1.786,1.786,1.786,1.786,1.786,1.786,1.786,1.786,1.786,1.786,1.786,1.786,1.786,1.786,1.786,1.786,1.786,1.786,1.786,1.786,1.786,1.786,1.786,1.786,1.786,1.786,1.786,1.786,1.786,1.786,1.786,1.786,1.786,1.786,1.786,1.786,1.786,1.786,1.786,1.786,1.786,1.786,1.786,1.786,1.786,1.786,1.786,1.786,1.786,1.786,1.786,1.786,1.786,1.786,1.786,1.786,1.786,1.786,1.786,1.786,1.786,1.786,1.786,1.786,1.786,1.786,1.786,1.786,1.786,1.786,1.7646,1.7424,1.6982,1.676,1.676,1.6754,1.6533,1.6539,1.6982,1.7203,1.7203,1.7424,1.7646,1.786,1.786,1.786,1.786,1.786,1.786,1.7646,1.7424,1.7203,1.6982,1.6305,1.5622,1.4924,1.4691,1.4503,1.4292,1.426,1.4238,1.4254,1.4216,1.4124,1.4053,1.3983,2.6786,2.4608,2.2008,1.983,1.8081,1.786,1.786,1.786,1.786,1.786,1.786,1.786,1.786,1.786,1.786,1.786,1.786,1.786,1.786,1.786,1.786,1.786,1.786,1.786,1.786,1.786,1.786,1.786,1.786,1.786,1.786,1.786,1.786,1.786,1.786,1.786,1.786,1.786,1.786,1.786,1.7853,1.7853,1.786,1.786,1.786,1.786,1.786,1.786,1.786,1.786,1.786,1.786,1.786,1.786,1.786,1.786,1.786,1.786,1.786,1.786,1.786,1.786,1.786,1.786,1.786,1.786,1.786,1.786,1.786,1.786,1.786,1.786,1.786,1.786,1.786,1.786,1.786,1.786,1.786,1.786,1.7646,1.7424,1.6982,1.7424,1.7646,1.7424,1.7203,1.7424,1.7646,1.7646,1.7646,1.786,1.786,1.786,1.786,1.786,1.7833,1.784,1.7826,1.7819,1.7552,1.7312,1.693,1.6243,1.5527,1.4844,1.4652,1.4426,1.4173,1.4146,1.4129,1.4069,1.3993,1.3923,1.3868,2.8091,2.44,2.0921,1.8736,1.786,1.786,1.786,1.786,1.786,1.786,1.786,1.786,1.786,1.786,1.786,1.786,1.786,1.786,1.786,1.786,1.786,1.786,1.786,1.786,1.786,1.786,1.786,1.786,1.786,1.786,1.786,1.786,1.786,1.786,1.7846,1.786,1.786,1.786,1.7853,1.7819,1.7785,1.7812,1.786,1.7853,1.7853,1.7853,1.786,1.786,1.786,1.786,1.786,1.786,1.786,1.786,1.786,1.786,1.786,1.786,1.786,1.786,1.786,1.786,1.786,1.786,1.786,1.786,1.786,1.786,1.786,1.786,1.786,1.786,1.786,1.786,1.786,1.786,1.786,1.786,1.786,1.786,1.786,1.7646,1.7424,1.7646,1.786,1.7639,1.7646,1.7646,1.786,1.786,1.786,1.786,1.786,1.786,1.786,1.786,1.7779,1.7765,1.7717,1.769,1.7609,1.7384,1.7219,1.6769,1.6244,1.5597,1.4995,1.4529,1.426,1.4233,1.3993,1.3934,1.3874,1.3857,1.3798,2.8963,2.5269,2.1352,1.8957,1.786,1.786,1.786,1.786,1.786,1.786,1.786,1.786,1.786,1.786,1.786,1.786,1.786,1.786,1.786,1.786,1.786,1.786,1.786,1.786,1.786,1.786,1.786,1.786,1.7853,1.7833,1.7812,1.786,1.786,1.7833,1.7812,1.7792,1.7779,1.7711,1.7711,1.767,1.7623,1.769,1.7724,1.7745,1.7758,1.7998,1.7806,1.7806,1.7806,1.786,1.786,1.786,1.786,1.786,1.786,1.786,1.786,1.786,1.786,1.786,1.786,1.786,1.786,1.786,1.786,1.786,1.786,1.786,1.786,1.786,1.786,1.786,1.786,1.786,1.786,1.786,1.786,1.786,1.786,1.786,1.786,1.786,1.7867,1.786,1.786,1.786,1.786,1.786,1.786,1.786,1.786,1.786,1.786,1.786,1.7853,1.7833,1.7758,1.7677,1.7629,1.7568,1.7494,1.7467,1.7284,1.7014,1.6518,1.6302,1.5686,1.5014,1.4344,1.4321,1.4293,1.4028,1.3984,1.376,1.3738,2.8307,2.7865,2.526,2.179,1.8081,1.786,1.786,1.786,1.786,1.786,1.786,1.786,1.786,1.786,1.786,1.786,1.786,1.786,1.786,1.786,1.786,1.786,1.786,1.786,1.7853,1.784,1.7826,1.7833,1.7819,1.769,1.7751,1.784,1.7785,1.7971,1.7923,1.7882,1.7589,1.7521,1.7277,1.727,1.7453,1.7473,1.7487,1.748,1.7703,1.7961,1.7875,1.7889,1.7923,1.8019,1.7799,1.7799,1.7779,1.7812,1.7819,1.7826,1.7853,1.786,1.786,1.786,1.786,1.786,1.786,1.786,1.786,1.786,1.786,1.786,1.786,1.786,1.786,1.786,1.786,1.786,1.786,1.786,1.786,1.786,1.786,1.786,1.786,1.786,1.786,1.786,1.786,1.786,1.786,1.786,1.786,1.786,1.786,1.786,1.786,1.7853,1.7846,1.7785,1.769,1.7582,1.7507,1.7453,1.7392,1.7378,1.7317,1.7096,1.6829,1.6596,1.6363,1.5716,1.5283,1.4833,1.4377,1.4136,1.3901,1.3673,1.3662,2.8748,2.6136,2.526,2.2874,1.983,1.8522,1.786,1.786,1.786,1.786,1.786,1.786,1.786,1.786,1.786,1.786,1.786,1.786,1.786,1.786,1.786,1.786,1.786,1.784,1.7819,1.7751,1.7724,1.7663,1.7575,1.7534,1.7541,1.7582,1.7595,1.7786,1.7738,1.7494,1.7405,1.713,1.713,1.7157,1.7304,1.7378,1.7419,1.7419,1.7419,1.7662,1.7724,1.7731,1.7772,1.7806,1.7609,1.7616,1.7636,1.769,1.7724,1.7745,1.7792,1.7833,1.7853,1.786,1.786,1.786,1.786,1.786,1.786,1.786,1.786,1.786,1.786,1.786,1.786,1.786,1.786,1.786,1.786,1.786,1.786,1.786,1.786,1.786,1.786,1.786,1.786,1.786,1.786,1.786,1.786,1.786,1.786,1.786,1.786,1.786,1.786,1.786,1.7853,1.7745,1.7616,1.7514,1.7412,1.7331,1.727,1.7148,1.7107,1.7121,1.6929,1.6902,1.6664,1.6439,1.601,1.5163,1.451,1.4269,1.3824,1.3607,1.3607,2.9845,2.6786,2.5269,2.3093,2.0262,1.8515,1.786,1.786,1.786,1.786,1.786,1.786,1.786,1.786,1.786,1.786,1.786,1.786,1.786,1.7846,1.7819,1.7806,1.7785,1.7731,1.765,1.7595,1.7575,1.7514,1.7453,1.7385,1.7365,1.7351,1.7317,1.7525,1.7566,1.7297,1.7016,1.6969,1.6989,1.7029,1.7154,1.7216,1.727,1.7263,1.7263,1.7304,1.7331,1.7358,1.7614,1.7433,1.7446,1.721,1.7244,1.7507,1.7568,1.7616,1.767,1.7971,1.8019,1.7846,1.786,1.786,1.786,1.786,1.786,1.786,1.786,1.786,1.786,1.786,1.786,1.786,1.786,1.786,1.786,1.786,1.786,1.786,1.786,1.786,1.786,1.786,1.786,1.786,1.786,1.786,1.786,1.786,1.786,1.786,1.786,1.786,1.786,1.786,1.7853,1.7731,1.7623,1.7548,1.7419,1.7243,1.7141,1.7046,1.6992,1.7032,1.7032,1.6992,1.6992,1.6808,1.6163,1.5301,1.4874,1.4446,1.4241,1.403,1.3813,3.1593,3.1154,2.6569,2.2219,1.8515,1.8081,1.786,1.786,1.786,1.786,1.786,1.786,1.786,1.786,1.7846,1.7826,1.7819,1.7819,1.7812,1.7772,1.769,1.7656,1.7609,1.7548,1.7487,1.7439,1.7419,1.7405,1.7372,1.7256,1.7209,1.7168,1.7127,1.71,1.7394,1.7066,1.6998,1.6992,1.7019,1.7019,1.7053,1.708,1.7093,1.7134,1.7141,1.6996,1.7049,1.7069,1.7116,1.7183,1.7197,1.7183,1.717,1.721,1.7446,1.7433,1.7689,1.7772,1.7882,1.8012,1.7853,1.786,1.786,1.786,1.786,1.786,1.786,1.786,1.786,1.786,1.786,1.786,1.786,1.786,1.786,1.786,1.786,1.786,1.786,1.786,1.786,1.786,1.786,1.786,1.786,1.786,1.786,1.786,1.786,1.786,1.786,1.786,1.786,1.786,1.784,1.7724,1.7623,1.7555,1.7453,1.729,1.7188,1.7148,1.7087,1.7019,1.7012,1.7039,1.7012,1.6985,1.6348,1.5927,1.5289,1.5078,1.4657,1.4241,1.4235,3.0928,2.9178,2.6136,2.3093,2.005,1.8515,1.786,1.786,1.786,1.786,1.786,1.786,1.786,1.784,1.7758,1.7717,1.7704,1.7589,1.7568,1.7568,1.7521,1.7507,1.7467,1.7426,1.7351,1.729,1.7263,1.7216,1.7114,1.708,1.7066,1.7026,1.7019,1.7012,1.7032,1.6992,1.6978,1.6978,1.6992,1.7019,1.7107,1.7127,1.7168,1.7249,1.7029,1.7056,1.7096,1.7096,1.7136,1.719,1.7197,1.7163,1.7116,1.7344,1.7365,1.7365,1.7412,1.7643,1.7751,1.7853,1.786,1.786,1.786,1.786,1.786,1.786,1.786,1.786,1.786,1.786,1.786,1.786,1.786,1.786,1.786,1.786,1.786,1.786,1.786,1.786,1.786,1.786,1.786,1.786,1.786,1.786,1.786,1.786,1.786,1.786,1.786,1.786,1.786,1.786,1.7826,1.7745,1.769,1.7643,1.7534,1.7392,1.7311,1.7263,1.7209,1.7154,1.7127,1.7093,1.7032,1.6978,1.6978,1.6558,1.592,1.5289,1.4868,1.4657,1.4657,3.0928,2.9178,2.6136,2.3919,2.2143,1.9148,1.786,1.786,1.786,1.784,1.7792,1.7785,1.7745,1.769,1.7623,1.7575,1.7561,1.748,1.7426,1.7412,1.7358,1.7351,1.7331,1.729,1.7195,1.7134,1.7114,1.7066,1.7012,1.6985,1.6985,1.6992,1.6978,1.6985,1.6985,1.6985,1.6978,1.6992,1.7026,1.71,1.7182,1.7243,1.7317,1.7372,1.7183,1.719,1.719,1.7197,1.7419,1.7426,1.7412,1.7385,1.7338,1.729,1.7331,1.7351,1.727,1.7684,1.7751,1.7846,1.7853,1.786,1.786,1.786,1.786,1.786,1.786,1.786,1.786,1.786,1.786,1.786,1.786,1.786,1.786,1.786,1.786,1.786,1.786,1.786,1.786,1.786,1.786,1.786,1.786,1.786,1.786,1.786,1.786,1.786,1.786,1.786,1.786,1.786,1.7846,1.7806,1.7758,1.7731,1.7623,1.7507,1.746,1.7412,1.7358,1.7283,1.7216,1.7134,1.7032,1.6978,1.6985,1.6775,1.6558,1.592,1.5078,1.5078,1.5289,3.1783,3.113,2.6765,2.4684,2.37,1.9717,1.7826,1.784,1.7833,1.7758,1.7643,1.7643,1.7589,1.746,1.7426,1.7412,1.7399,1.7378,1.7358,1.7331,1.7236,1.7209,1.7148,1.7087,1.7053,1.7012,1.6998,1.7019,1.6978,1.6978,1.6978,1.6985,1.7012,1.7019,1.7019,1.7046,1.7046,1.7066,1.7148,1.7229,1.7311,1.7378,1.7453,1.75,1.7514,1.7507,1.7507,1.7724,1.7717,1.7926,1.7906,1.7892,1.7829,1.7497,1.7324,1.7412,1.7337,1.7643,1.7724,1.7826,1.7853,1.786,1.786,1.786,1.786,1.786,1.786,1.786,1.786,1.786,1.786,1.786,1.786,1.786,1.786,1.786,1.786,1.786,1.786,1.786,1.786,1.786,1.786,1.786,1.786,1.786,1.786,1.786,1.786,1.786,1.786,1.786,1.786,1.786,1.7846,1.7826,1.7819,1.7785,1.7745,1.7643,1.7602,1.7561,1.7514,1.7433,1.7297,1.7188,1.7093,1.7032,1.7005,1.6788,1.6768,1.6348,1.571,1.592,1.6131,3.1397,3.0808,2.8023,2.5842,2.3676,1.9453,1.7548,1.7548,1.7548,1.7514,1.7487,1.7487,1.7453,1.7419,1.7311,1.727,1.7222,1.7168,1.7114,1.7087,1.7093,1.706,1.7026,1.7005,1.6978,1.6978,1.6978,1.6978,1.6978,1.6978,1.6978,1.6985,1.7066,1.7107,1.6949,1.7016,1.7202,1.7209,1.7511,1.7385,1.7467,1.7548,1.7616,1.767,1.769,1.769,1.7697,1.7923,1.793,1.7937,1.795,1.793,1.7799,1.7446,1.7399,1.7426,1.7344,1.7465,1.7785,1.784,1.786,1.786,1.786,1.786,1.786,1.786,1.786,1.786,1.786,1.786,1.786,1.786,1.786,1.786,1.786,1.786,1.786,1.786,1.786,1.786,1.786,1.786,1.786,1.786,1.786,1.786,1.786,1.786,1.786,1.786,1.786,1.786,1.786,1.786,1.786,1.7846,1.7853,1.7846,1.7799,1.7772,1.7758,1.7717,1.767,1.7575,1.7433,1.7297,1.7168,1.7134,1.7121,1.7012,1.6775,1.6558,1.6348,1.6558,1.6551,3.124,3.0594,2.8457,2.5651,2.2407,1.8808,1.7304,1.7277,1.7365,1.7392,1.7331,1.7331,1.7331,1.7304,1.7182,1.7134,1.7188,1.7073,1.7005,1.7012,1.6978,1.6985,1.6978,1.6978,1.6978,1.6978,1.6978,1.6978,1.6985,1.6992,1.6992,1.708,1.6949,1.7009,1.7083,1.7405,1.7453,1.7655,1.7689,1.7561,1.7629,1.7704,1.7792,1.784,1.786,1.786,1.786,1.786,1.786,1.786,1.786,1.7833,1.7957,1.7643,1.7548,1.7575,1.7663,1.7765,1.784,1.7853,1.786,1.786,1.786,1.786,1.786,1.786,1.786,1.786,1.786,1.786,1.786,1.786,1.786,1.786,1.786,1.786,1.786,1.786,1.786,1.786,1.786,1.786,1.786,1.786,1.786,1.786,1.786,1.786,1.786,1.786,1.786,1.786,1.786,1.786,1.786,1.786,1.786,1.786,1.7846,1.7833,1.786,1.7833,1.7751,1.7663,1.7568,1.7439,1.7311,1.7283,1.7256,1.7141,1.7053,1.6828,1.6815,1.6768,1.6768,3.1167,3.0706,2.8192,2.4662,2.075,1.8222,1.7114,1.7012,1.7256,1.7304,1.7188,1.7175,1.7175,1.7154,1.706,1.7073,1.7093,1.7026,1.6978,1.6978,1.6978,1.6978,1.6978,1.6978,1.6978,1.6978,1.6985,1.6998,1.7005,1.7032,1.71,1.7202,1.7036,1.711,1.723,1.7589,1.7861,1.7861,1.7861,1.7684,1.7711,1.7785,1.786,1.786,1.786,1.786,1.786,1.786,1.786,1.786,1.786,1.786,1.7806,1.7819,1.7745,1.7498,1.7758,1.7812,1.7853,1.786,1.786,1.786,1.786,1.786,1.786,1.786,1.786,1.786,1.786,1.786,1.786,1.786,1.786,1.786,1.786,1.786,1.786,1.786,1.786,1.786,1.786,1.786,1.786,1.786,1.786,1.786,1.786,1.786,1.786,1.786,1.786,1.786,1.786,1.786,1.786,1.786,1.786,1.786,1.786,1.786,1.786,1.784,1.7812,1.7745,1.7684,1.7589,1.7487,1.7453,1.7385,1.727,1.7188,1.7134,1.7087,1.7039,1.6992,3.0648,2.9986,2.6233,2.3701,2.2428,1.8693,1.7019,1.6985,1.7046,1.708,1.7039,1.7032,1.7046,1.7053,1.7012,1.7026,1.7026,1.7019,1.6985,1.6978,1.6978,1.6978,1.6978,1.6978,1.6978,1.6978,1.6992,1.7039,1.71,1.7148,1.7216,1.7365,1.7217,1.7311,1.7371,1.7731,1.8012,1.8005,1.7792,1.7785,1.7806,1.7819,1.786,1.786,1.786,1.786,1.786,1.786,1.786,1.786,1.786,1.7806,1.7704,1.7806,1.7779,1.7485,1.7785,1.784,1.786,1.786,1.786,1.786,1.786,1.786,1.786,1.786,1.786,1.786,1.786,1.786,1.786,1.786,1.786,1.786,1.786,1.786,1.786,1.786,1.786,1.786,1.786,1.786,1.786,1.786,1.786,1.786,1.786,1.786,1.786,1.786,1.786,1.786,1.786,1.786,1.786,1.786,1.786,1.786,1.786,1.786,1.786,1.7846,1.7833,1.784,1.7799,1.7704,1.7636,1.7609,1.7528,1.7412,1.7351,1.7304,1.7216,1.7161,1.708,3.0455,2.9604,2.545,2.2968,2.1535,1.8498,1.7039,1.6998,1.7046,1.7039,1.6985,1.6985,1.7012,1.7039,1.7019,1.7026,1.7032,1.6998,1.6985,1.6978,1.6978,1.6978,1.6978,1.6985,1.6978,1.6985,1.706,1.7127,1.7209,1.7283,1.7372,1.7507,1.7404,1.7458,1.7505,1.7826,1.786,1.786,1.786,1.786,1.786,1.786,1.786,1.786,1.786,1.786,1.786,1.786,1.786,1.786,1.786,1.7846,1.7792,1.7833,1.7819,1.7792,1.7819,1.786,1.786,1.786,1.786,1.786,1.786,1.786,1.786,1.786,1.786,1.786,1.786,1.786,1.786,1.786,1.786,1.786,1.786,1.786,1.786,1.786,1.786,1.786,1.786,1.786,1.786,1.786,1.786,1.786,1.786,1.786,1.786,1.786,1.786,1.786,1.786,1.786,1.786,1.786,1.786,1.786,1.786,1.786,1.786,1.786,1.786,1.7853,1.7846,1.7819,1.7765,1.7731,1.7663,1.7555,1.7507,1.7473,1.7378,1.7283,1.7216,3.0202,2.9186,2.5245,2.2347,2.0095,1.815,1.7087,1.7012,1.71,1.7093,1.6992,1.6978,1.706,1.708,1.7053,1.71,1.7093,1.7012,1.6985,1.6978,1.6978,1.7012,1.7019,1.6998,1.7005,1.7073,1.7161,1.7236,1.7311,1.7399,1.7514,1.7643,1.7697,1.7512,1.7826,1.786,1.786,1.786,1.786,1.786,1.786,1.786,1.786,1.786,1.786,1.786,1.786,1.786,1.786,1.786,1.786,1.7853,1.7846,1.7853,1.7853,1.784,1.784,1.786,1.786,1.786,1.786,1.786,1.786,1.786,1.786,1.786,1.786,1.786,1.786,1.786,1.786,1.786,1.786,1.786,1.786,1.786,1.786,1.786,1.786,1.786,1.786,1.786,1.786,1.786,1.786,1.786,1.786,1.786,1.786,1.786,1.786,1.786,1.786,1.786,1.786,1.786,1.786,1.786,1.786,1.786,1.786,1.786,1.786,1.786,1.7853,1.7846,1.7846,1.7819,1.7751,1.7677,1.767,1.7629,1.7521,1.7433,1.7365,2.9221,2.7305,2.4618,2.2347,2.0079,1.8049,1.7005,1.6985,1.7012,1.6998,1.6985,1.6978,1.7005,1.7026,1.6998,1.7019,1.7032,1.6992,1.6985,1.6978,1.6978,1.7053,1.7087,1.7039,1.7066,1.7168,1.7304,1.7433,1.7467,1.7555,1.767,1.7799,1.7812,1.7826,1.784,1.786,1.786,1.786,1.786,1.786,1.786,1.786,1.786,1.786,1.786,1.786,1.786,1.786,1.786,1.786,1.786,1.786,1.786,1.786,1.786,1.786,1.786,1.786,1.786,1.786,1.786,1.786,1.786,1.786,1.786,1.786,1.786,1.786,1.786,1.786,1.786,1.786,1.786,1.786,1.786,1.786,1.786,1.786,1.786,1.786,1.786,1.786,1.786,1.786,1.786,1.786,1.786,1.786,1.786,1.786,1.786,1.786,1.786,1.786,1.786,1.786,1.786,1.786,1.786,1.786,1.786,1.786,1.786,1.786,1.786,1.7853,1.786,1.786,1.7846,1.7785,1.7812,1.7779,1.767,1.7582,1.7521]}]]